Date StartTime U_cm/s V_cm/s W_cm/s Ustd_cm/s Vstd_cm/s Wstd_cm/s Uvar_(cm/s)^2 Vvar_(cm/s)^2 Wvar_(cm/s)^2 KE_(m/s)^2 TurbulentKE_(m/s)^2 HorizWindSpeed_cm/s FrictionSpeec_cm/s DragCoef SpeedOfSound_m/s SonicTemperature_C Pressure_mb 
12/17/2014  00:00:00      114.389       77.130       24.133       40.260       32.699       30.912     1620.889     1069.206      955.546        1.163        0.182      137.963       22.784        0.027      334.348        4.263      855.388
12/17/2014  00:01:00       98.265       90.227        0.339       51.640       35.167       29.644     2666.700     1236.715      878.760        1.129        0.239      133.405       23.565        0.031      334.333        4.236      855.378
12/17/2014  00:02:00       61.786       64.101        0.069       50.045       42.309       28.519     2504.524     1790.068      813.360        0.652        0.255       89.031       26.737        0.090      334.333        4.236      855.358
12/17/2014  00:03:00       83.369       74.366        6.315       52.312       39.859       37.317     2736.546     1588.755     1392.555        0.912        0.286      111.717       27.777        0.062      334.346        4.259      855.347
12/17/2014  00:04:00       49.000       68.804        7.198       42.546       53.338       33.616     1810.191     2844.963     1130.030        0.648        0.289       84.468       28.766        0.116      334.328        4.230      855.333
12/17/2014  00:05:00       88.475       73.329        9.916       60.046       47.579       30.455     3605.509     2263.787      927.486        1.005        0.340      114.913       23.843        0.043      334.347        4.259      855.322
12/17/2014  00:06:00       56.710       65.434        2.827       49.638       47.274       40.369     2463.882     2234.866     1629.641        0.692        0.316       86.589       31.289        0.131      334.345        4.257      855.328
12/17/2014  00:07:00       53.926       73.460        1.307       51.544       46.291       39.741     2656.806     2142.902     1579.313        0.734        0.319       91.129       31.116        0.117      334.360        4.281      855.326
12/17/2014  00:08:00       83.989       77.792       11.690       43.549       33.557       34.828     1896.542     1126.080     1213.015        0.874        0.212      114.480       17.457        0.023      334.359        4.281      855.331
12/17/2014  00:09:00       42.457       34.694        7.484       30.149       23.857       24.352      908.935      569.179      593.040        0.257        0.104       54.829       15.823        0.083      334.365        4.290      855.352
12/17/2014  00:10:00       71.137       68.686        7.888       43.954       32.627       33.228     1931.986     1064.499     1104.128        0.697        0.205       98.885       20.041        0.041      334.334        4.238      855.359
12/17/2014  00:11:00      111.000       84.411       18.307       53.000       40.630       39.997     2808.978     1650.766     1599.749        1.292        0.303      139.449       25.335        0.033      334.349        4.262      855.353
12/17/2014  00:12:00       90.018       88.567       -0.681       60.380       44.465       39.742     3645.699     1977.142     1579.437        1.157        0.360      126.283       32.849        0.068      334.350        4.264      855.332
12/17/2014  00:13:00      113.306       71.164       24.062       53.178       35.188       35.980     2827.881     1238.171     1294.557        1.192        0.268      133.801       16.856        0.016      334.370        4.298      855.319
12/17/2014  00:14:00       95.585       89.138       17.437       61.231       41.889       37.703     3749.243     1754.706     1421.508        1.215        0.346      130.699       29.585        0.051      334.388        4.328      855.319
12/17/2014  00:15:00       48.231       50.912        7.012       50.517       39.302       31.693     2552.014     1544.676     1004.443        0.503        0.255       70.130       25.402        0.131      334.377        4.310      855.316
12/17/2014  00:16:00       55.391       49.003        7.308       40.679       38.028       31.605     1654.769     1446.110      998.893        0.481        0.205       73.956       23.472        0.101      334.372        4.301      855.307
12/17/2014  00:17:00       50.623       52.124        4.313       41.817       34.201       28.618     1748.669     1169.677      818.985        0.452        0.187       72.661       20.191        0.077      334.373        4.303      855.295
12/17/2014  00:18:00      114.341       74.088       18.339       36.264       33.489       33.242     1315.053     1121.490     1105.041        1.122        0.177      136.246       13.805        0.010      334.408        4.361      855.288
12/17/2014  00:19:00       79.116       60.109       23.991       40.303       35.913       30.075     1624.309     1289.709      904.511        0.713        0.191       99.360       23.196        0.054      334.394        4.339      855.298
12/17/2014  00:20:00       81.276       54.716       25.955       55.842       38.993       35.029     3118.335     1520.458     1227.061        0.807        0.293       97.978       28.891        0.087      334.398        4.345      855.308
12/17/2014  00:21:00      119.606       36.692       10.979       46.224       42.094       28.830     2136.621     1771.932      831.196        1.026        0.237      125.107       12.500        0.010      334.389        4.331      855.303
12/17/2014  00:22:00      111.280       75.978       30.374       45.608       47.125       41.212     2080.107     2220.785     1698.443        1.254        0.300      134.744       21.637        0.026      334.391        4.333      855.287
12/17/2014  00:23:00       64.152       76.435       -0.423       39.070       37.478       33.949     1526.433     1404.594     1152.564        0.702        0.204       99.789       24.555        0.061      334.404        4.356      855.268
12/17/2014  00:24:00       55.167       61.935        5.656       44.107       26.510       25.558     1945.420      702.805      653.204        0.511        0.165       82.942       18.191        0.048      334.390        4.332      855.256
12/17/2014  00:25:00       84.610       43.168       13.055       27.558       30.967       23.286      759.428      958.969      542.226        0.573        0.113       94.986       12.492        0.017      334.402        4.351      855.242
12/17/2014  00:26:00       35.472       23.843        5.422       34.521       37.985       21.553     1191.673     1442.848      464.521        0.248        0.155       42.740       10.556        0.061      334.367        4.293      855.248
12/17/2014  00:27:00       31.584       26.676        1.908       23.809       16.124       24.538      566.859      259.986      602.137        0.157        0.071       41.342       14.949        0.131      334.382        4.319      855.247
12/17/2014  00:28:00       59.088       40.820        3.911       17.690       20.095       17.490      312.945      403.802      305.908        0.310        0.051       71.817        8.286        0.013      334.403        4.349      855.253
12/17/2014  00:29:00       24.321       31.208        8.481       15.352       17.322       16.625      235.683      300.068      276.394        0.122        0.041       39.566       14.666        0.137      334.428        4.396      855.254
12/17/2014  00:30:00       47.934       63.062        1.306       35.377       33.085       18.462     1251.546     1094.598      340.828        0.448        0.134       79.212       17.772        0.050      334.391        4.332      855.250
12/17/2014  00:31:00       18.838       50.818        0.523       21.929       21.988       13.509      480.896      483.472      182.499        0.204        0.057       54.197       10.438        0.037      334.390        4.330      855.245
12/17/2014  00:32:00       36.717       78.811       -7.452       30.202       38.406       27.126      912.162     1474.996      735.814        0.537        0.156       86.944       21.183        0.059      334.387        4.326      855.233
12/17/2014  00:33:00        5.222       67.613       -7.882       20.358       29.514       12.690      414.461      871.078      161.025        0.305        0.072       67.814       12.254        0.033      334.392        4.332      855.225
12/17/2014  00:34:00       -4.476       70.408      -10.529       15.707       20.759       10.888      246.723      430.945      118.549        0.294        0.040       70.551        8.665        0.015      334.442        4.417      855.221
12/17/2014  00:35:00        7.418       98.418      -16.572       42.931       34.634       22.885     1843.042     1199.525      523.719        0.679        0.178       98.697       17.554        0.032      334.457        4.444      855.205
12/17/2014  00:36:00        5.807      103.302      -16.607       28.757       27.142       21.156      826.965      736.669      447.577        0.650        0.101      103.466       21.999        0.045      334.444        4.421      855.199
12/17/2014  00:37:00      -10.493       67.656      -12.939       29.262       25.074       18.078      856.278      628.730      326.799        0.333        0.091       68.465       10.363        0.023      334.510        4.530      855.207
12/17/2014  00:38:00        6.306       32.373        2.229       35.963       25.814       23.096     1293.345      666.366      533.413        0.179        0.125       32.982       17.898        0.294      334.502        4.518      855.216
12/17/2014  00:39:00       12.265      102.845      -10.699       37.921       29.257       23.912     1438.013      855.999      571.791        0.685        0.143      103.574       20.165        0.038      334.417        4.376      855.232
12/17/2014  00:40:00        2.610       79.229      -10.349       29.847       30.114       18.263      890.873      906.829      333.547        0.426        0.107       79.272       17.312        0.048      334.420        4.382      855.240
12/17/2014  00:41:00       -0.663       54.577      -14.367       16.936       26.797       12.103      286.813      718.086      146.480        0.217        0.058       54.581       12.359        0.051      334.443        4.418      855.242
12/17/2014  00:42:00        6.868       71.581      -10.229       19.175       22.172       10.984      367.665      491.581      120.640        0.313        0.049       71.910        9.799        0.019      334.418        4.378      855.236
12/17/2014  00:43:00       31.394       51.773       -6.194       28.185       24.761       17.066      794.374      613.086      291.232        0.270        0.085       60.548       18.378        0.092      334.373        4.302      855.232
12/17/2014  00:44:00       73.746       37.771        8.638       36.851       25.962       25.140     1357.989      674.050      632.014        0.480        0.133       82.856       12.262        0.022      334.363        4.288      855.230
12/17/2014  00:45:00       53.499       27.736       15.664       30.326       22.027       15.992      919.644      485.198      255.755        0.277        0.083       60.261        9.832        0.027      334.350        4.268      855.219
12/17/2014  00:46:00       46.770       38.349       -7.875       35.668       29.549       14.025     1272.185      873.151      196.712        0.303        0.117       60.482        9.519        0.025      334.349        4.264      855.215
12/17/2014  00:47:00      100.187       62.420       12.676       44.773       39.216       34.508     2004.617     1537.899     1190.820        0.941        0.237      118.041       25.811        0.048      334.345        4.258      855.218
12/17/2014  00:48:00       96.218       70.522        8.731       41.209       38.723       44.416     1698.219     1499.504     1972.776        0.974        0.259      119.295       25.717        0.046      334.343        4.253      855.220
12/17/2014  00:49:00       38.968       68.202        7.836       52.373       51.718       42.228     2742.962     2674.795     1783.216        0.671        0.360       78.549       28.922        0.136      334.354        4.271      855.212
12/17/2014  00:50:00       75.097       86.170        1.844       36.945       38.339       38.317     1364.950     1469.853     1468.184        0.868        0.215      114.301       28.540        0.062      334.394        4.339      855.214
12/17/2014  00:51:00       81.102       71.843        8.667       35.400       33.902       32.812     1253.125     1149.355     1076.648        0.765        0.174      108.346       21.859        0.041      334.364        4.288      855.222
12/17/2014  00:52:00       48.275       53.623       -0.678       28.201       33.121       24.701      795.297     1097.024      610.145        0.385        0.125       72.152       19.981        0.077      334.355        4.274      855.233
12/17/2014  00:53:00       49.907      117.051      -13.271       46.361       48.035       31.450     2149.379     2307.402      989.105        1.091        0.272      127.246       29.790        0.055      334.365        4.291      855.233
12/17/2014  00:54:00       45.118      128.259      -18.817       34.865       43.775       27.877     1215.548     1916.224      777.149        1.137        0.195      135.963       25.129        0.034      334.388        4.328      855.249
12/17/2014  00:55:00       25.635       60.971        6.944       25.879       35.303       28.697      669.735     1246.288      823.529        0.358        0.137       66.141       20.737        0.098      334.359        4.282      855.256
12/17/2014  00:56:00       30.005      112.762      -14.125       36.325       51.275       27.199     1319.496     2629.100      739.804        0.925        0.234      116.685       32.345        0.077      334.334        4.239      855.243
12/17/2014  00:57:00       36.033       92.194       -7.310       32.356       41.837       25.635     1046.905     1750.339      657.137        0.665        0.173       98.985       25.562        0.067      334.327        4.227      855.234
12/17/2014  00:58:00       51.951      124.764      -16.449       31.508       39.301       26.219      992.750     1544.587      687.441        1.088        0.161      135.148       20.150        0.022      334.352        4.269      855.224
12/17/2014  00:59:00       42.299      123.536      -12.922       31.141       46.407       32.475      969.787     2153.625     1054.629        1.070        0.209      130.577       33.192        0.065      334.363        4.287      855.212
12/17/2014  01:00:00       43.632       86.301       -7.532       28.295       43.385       27.080      800.600     1882.296      733.340        0.641        0.171       96.704       24.069        0.062      334.337        4.244      855.218
12/17/2014  01:01:00       41.693       67.511        3.710       37.578       42.497       30.834     1412.125     1806.035      950.713        0.524        0.208       79.348       29.395        0.137      334.345        4.258      855.213
12/17/2014  01:02:00       63.518       74.479        5.009       56.773       41.794       30.337     3223.221     1746.760      920.353        0.775        0.295       97.886       26.406        0.073      334.344        4.256      855.200
12/17/2014  01:03:00       38.757       73.367        5.226       39.977       39.000       38.512     1598.199     1521.011     1483.161        0.576        0.230       82.975       27.922        0.113      334.344        4.255      855.185
12/17/2014  01:04:00       57.348       74.079        4.436       49.146       37.246       35.168     2415.325     1387.246     1236.786        0.692        0.252       93.683       24.282        0.067      334.365        4.291      855.181
12/17/2014  01:05:00       45.640       66.614       -8.806       43.841       31.420       23.333     1922.045      987.222      544.433        0.503        0.173       80.750       17.960        0.049      334.356        4.276      855.177
12/17/2014  01:06:00       47.580       63.260        1.379       26.904       38.480       24.728      723.831     1480.743      611.459        0.454        0.141       79.156       23.772        0.090      334.373        4.303      855.173
12/17/2014  01:07:00       36.509       77.050       -6.141       37.397       48.609       29.564     1398.529     2362.792      874.015        0.597        0.232       85.262       26.321        0.095      334.354        4.273      855.175
12/17/2014  01:08:00       25.521      124.454      -13.376       25.328       35.655       26.171      641.507     1271.263      684.901        0.946        0.130      127.043       19.979        0.025      334.356        4.275      855.173
12/17/2014  01:09:00       39.421      106.487      -10.217       39.219       40.683       25.276     1538.104     1655.111      638.861        0.841        0.192      113.550       15.232        0.018      334.339        4.247      855.154
12/17/2014  01:10:00       47.282      161.033      -17.666       36.186       44.497       29.791     1309.426     1979.944      887.490        1.633        0.209      167.831       24.144        0.021      334.325        4.222      855.133
12/17/2014  01:11:00       56.939       92.279        7.322       54.487       52.633       45.137     2968.779     2770.251     2037.336        0.979        0.389      108.432       34.245        0.100      334.308        4.195      855.117
12/17/2014  01:12:00       40.465       85.598       -9.072       40.592       38.944       29.661     1647.719     1516.622      879.762        0.654        0.202       94.681       22.524        0.057      334.301        4.183      855.108
12/17/2014  01:13:00       57.087       63.169        5.383       49.658       45.679       41.004     2465.888     2086.598     1681.342        0.675        0.312       85.142       35.200        0.171      334.294        4.173      855.099
12/17/2014  01:14:00       41.285       53.517        6.726       44.534       41.359       38.897     1983.250     1710.537     1512.976        0.491        0.260       67.591       31.094        0.212      334.288        4.161      855.089
12/17/2014  01:15:00       61.358       78.287       -4.133       43.155       45.226       35.371     1862.330     2045.416     1251.090        0.753        0.258       99.467       28.765        0.084      334.291        4.168      855.083
12/17/2014  01:16:00       80.034       70.297        2.454       34.679       45.779       30.189     1202.627     2095.672      911.389        0.778        0.210      106.522       29.354        0.076      334.263        4.120      855.087
12/17/2014  01:17:00      105.104       71.334       14.235       35.962       29.528       34.992     1293.278      871.887     1224.448        0.986        0.169      127.025       20.964        0.027      334.281        4.150      855.097
12/17/2014  01:18:00       67.971       68.252       13.612       49.594       45.326       37.253     2459.545     2054.491     1387.799        0.768        0.295       96.325       30.267        0.099      334.316        4.210      855.115
12/17/2014  01:19:00       51.623       46.615        9.832       48.021       40.796       36.352     2306.000     1664.304     1321.472        0.511        0.265       69.555       25.027        0.129      334.327        4.227      855.137
12/17/2014  01:20:00       43.981       49.555       11.248       42.598       32.070       27.862     1814.597     1028.487      776.280        0.407        0.181       66.257       19.908        0.090      334.309        4.198      855.154
12/17/2014  01:21:00       36.605       91.408      -13.515       31.590       45.058       22.763      997.917     2030.242      518.176        0.671        0.177       98.465       23.371        0.056      334.347        4.260      855.169
12/17/2014  01:22:00       55.904       52.837        2.288       38.746       26.969       20.380     1501.265      727.323      415.353        0.428        0.132       76.923       11.621        0.023      334.315        4.208      855.182
12/17/2014  01:23:00       34.172       43.775       -3.568       23.564       23.299       20.581      555.254      542.842      423.576        0.231        0.076       55.534       15.584        0.079      334.335        4.241      855.191
12/17/2014  01:24:00       33.160       58.442        4.942       30.280       21.242       26.957      916.886      451.202      726.667        0.332        0.105       67.194       19.561        0.085      334.338        4.245      855.197
12/17/2014  01:25:00       10.374      107.274      -14.080       35.565       19.650       17.612     1264.853      386.117      310.185        0.689        0.098      107.774       11.590        0.012      334.396        4.340      855.212
12/17/2014  01:26:00        0.537       95.938      -14.931       16.573       24.570        9.911      274.670      603.672       98.229        0.520        0.049       95.940        8.229        0.007      334.338        4.246      855.215
12/17/2014  01:27:00       20.346       82.991      -10.292       20.519       30.574       19.440      421.011      934.769      377.929        0.457        0.087       85.449       20.550        0.058      334.311        4.201      855.209
12/17/2014  01:28:00       34.389       57.691        1.305       33.141       29.961       22.358     1098.305      897.686      499.861        0.350        0.125       67.163       18.433        0.075      334.318        4.213      855.212
12/17/2014  01:29:00        6.522       97.533      -19.327       15.082       24.115       11.981      227.452      581.527      143.550        0.544        0.048       97.751       10.808        0.012      334.358        4.280      855.215
12/17/2014  01:30:00       29.820       70.045       -7.849       27.748       38.484       22.848      769.955     1481.012      522.052        0.431        0.139       76.128       21.252        0.078      334.344        4.256      855.215
12/17/2014  01:31:00       22.281       81.012      -11.994       14.873       28.353       12.736      221.218      803.885      162.204        0.420        0.059       84.020       13.964        0.028      334.340        4.248      855.203
12/17/2014  01:32:00       -0.887       97.172      -19.637       22.083       25.397       10.955      487.649      645.006      120.006        0.554        0.063       97.176       10.945        0.013      334.391        4.333      855.198
12/17/2014  01:33:00      -14.171      104.254      -21.427       21.977       25.488       12.613      482.980      649.633      159.078        0.641        0.065      105.213       14.634        0.019      334.401        4.351      855.203
12/17/2014  01:34:00      -37.100       67.499       -4.531       40.124       35.032       22.517     1609.914     1227.210      506.996        0.465        0.167       77.023       24.109        0.098      334.509        4.527      855.203
12/17/2014  01:35:00      -73.301      105.473      -28.172       21.324       20.913       16.335      454.707      437.342      266.838        0.922        0.058      128.443        6.388        0.002      334.520        4.547      855.202
12/17/2014  01:36:00      -48.143       90.147      -24.444       27.728       36.260       15.365      768.843     1314.814      236.071        0.668        0.116      102.197       13.707        0.018      334.504        4.520      855.196
12/17/2014  01:37:00      -17.692      109.334      -19.586       26.712       32.774       13.779      713.536     1074.140      189.855        0.731        0.099      110.756       12.343        0.012      334.574        4.636      855.198
12/17/2014  01:38:00      -10.597       89.347      -10.315       28.584       33.470       16.806      817.069     1120.223      282.425        0.521        0.111       89.973       10.011        0.012      334.583        4.652      855.209
12/17/2014  01:39:00      -57.532       89.454      -20.374       27.016       24.398       17.813      729.854      595.272      317.307        0.668        0.082      106.358       15.133        0.020      334.557        4.609      855.221
12/17/2014  01:40:00      -51.090      107.581      -21.112       29.032       23.092       17.097      842.856      533.241      292.321        0.815        0.083      119.096       13.316        0.013      334.538        4.576      855.227
12/17/2014  01:41:00      -34.167       91.761      -14.203       40.031       36.528       20.373     1602.509     1334.298      415.063        0.657        0.168       97.915       15.439        0.025      334.627        4.725      855.230
12/17/2014  01:42:00      -45.815       73.898       -6.200       41.109       28.269       20.799     1689.961      799.138      432.596        0.526        0.146       86.947       18.849        0.047      334.587        4.659      855.239
12/17/2014  01:43:00      -16.035      183.138      -26.500       20.139       34.788       16.079      405.575     1210.208      258.537        1.819        0.094      183.839       14.322        0.006      334.398        4.344      855.253
12/17/2014  01:44:00      -36.733       76.988       -6.389       42.808       58.476       28.329     1832.507     3419.420      802.554        0.668        0.303       85.302       31.369        0.135      334.590        4.664      855.254
12/17/2014  01:45:00      -56.425       97.694      -19.883       25.425       34.941       19.478      646.439     1220.868      379.411        0.768        0.112      112.818       18.152        0.026      334.449        4.430      855.251
12/17/2014  01:46:00      -55.634       97.290      -20.758       24.053       33.211       16.056      578.527     1102.983      257.811        0.747        0.097      112.074       14.485        0.017      334.563        4.619      855.244
12/17/2014  01:47:00      -51.400      143.132      -25.640       27.189       39.081       20.226      739.226     1527.324      409.076        1.323        0.134      152.081       18.785        0.015      334.519        4.545      855.238
12/17/2014  01:48:00      -40.941       88.572      -11.768       31.177       49.797       23.614      972.015     2479.747      557.617        0.683        0.200       97.576       24.333        0.062      334.556        4.605      855.235
12/17/2014  01:49:00      -17.396      112.064      -12.920       27.272       52.949       28.655      743.754     2803.578      821.128        0.870        0.218      113.406       29.952        0.070      334.597        4.674      855.240
12/17/2014  01:50:00      -26.049      151.750      -25.234       27.782       31.402       19.265      771.820      986.081      371.141        1.324        0.106      153.970       12.360        0.006      334.508        4.525      855.238
12/17/2014  01:51:00      -40.683       90.437      -16.234       22.790       26.265       16.478      519.362      689.864      271.534        0.579        0.074       99.166       11.347        0.013      334.618        4.710      855.227
12/17/2014  01:52:00      -51.928      102.982      -12.625       35.465       40.584       18.946     1257.732     1647.026      358.943        0.836        0.163      115.333       18.938        0.027      334.473        4.469      855.203
12/17/2014  01:53:00      -33.816      119.088      -16.473       34.982       33.035       18.990     1223.741     1091.287      360.630        0.914        0.134      123.796       12.291        0.010      334.600        4.678      855.197
12/17/2014  01:54:00      -42.366       78.025      -13.029       27.315       26.991       16.643      746.087      728.503      277.006        0.490        0.088       88.785       14.047        0.025      334.480        4.480      855.198
12/17/2014  01:55:00      -52.927       91.730      -15.509       31.840       32.217       20.453     1013.813     1037.906      418.314        0.696        0.124      105.904       16.095        0.023      334.562        4.617      855.208
12/17/2014  01:56:00       -2.034      140.389      -22.314       38.018       34.240       19.324     1445.367     1172.377      373.416        1.160        0.150      140.404        9.199        0.004      334.380        4.313      855.222
12/17/2014  01:57:00       17.832      112.447      -12.899       21.232       25.671       21.194      450.806      658.993      449.171        0.734        0.078      113.852       15.691        0.019      334.354        4.273      855.228
12/17/2014  01:58:00      -17.810      111.776      -20.380       33.341       34.455       14.378     1111.613     1187.139      206.726        0.787        0.125      113.186       15.719        0.019      334.478        4.477      855.230
12/17/2014  01:59:00      -14.687       82.652       -9.376       43.944       32.320       16.135     1931.045     1044.586      260.343        0.518        0.162       83.947       18.055        0.046      334.432        4.403      855.238
12/17/2014  02:00:00        4.930       75.225      -12.601       27.016       16.788       15.298      729.853      281.835      234.024        0.354        0.062       75.387        8.454        0.013      334.404        4.354      855.249
12/17/2014  02:01:00        9.875       76.396      -10.261       23.239       17.977       14.103      540.071      323.156      198.889        0.355        0.053       77.031        8.666        0.013      334.367        4.293      855.275
12/17/2014  02:02:00      -10.146       81.457      -12.505       21.774       26.029       13.898      474.128      677.520      193.159        0.412        0.067       82.087       12.431        0.023      334.368        4.296      855.295
12/17/2014  02:03:00      -34.371       49.763       -2.972       22.642       31.185       25.455      512.657      972.508      647.951        0.290        0.107       60.479       19.988        0.109      334.510        4.531      855.317
12/17/2014  02:04:00      -51.574       89.672      -18.412       29.482       29.408       18.085      869.169      864.854      327.066        0.655        0.103      103.445        7.674        0.006      334.388        4.329      855.353
12/17/2014  02:05:00      -39.462       59.843      -20.962       25.198       22.963       11.869      634.932      527.280      140.885        0.344        0.065       71.683       10.107        0.020      334.475        4.472      855.381
12/17/2014  02:06:00      -48.680       85.106      -19.184       34.651       26.072       20.949     1200.725      679.750      438.879        0.615        0.116       98.044       10.439        0.011      334.555        4.604      855.408
12/17/2014  02:07:00      -83.769       70.080      -22.782       24.463       27.648       15.186      598.451      764.427      230.619        0.702        0.080      109.217       10.772        0.010      334.569        4.627      855.421
12/17/2014  02:08:00      -79.220       24.809      -10.786       29.605       31.131       18.848      876.462      969.132      355.235        0.460        0.110       83.014       16.033        0.037      334.594        4.670      855.433
12/17/2014  02:09:00     -106.578       22.026      -17.668       34.270       25.689       18.084     1174.437      659.931      327.046        0.716        0.108      108.830       10.848        0.010      334.637        4.742      855.445
12/17/2014  02:10:00     -165.535       54.908      -18.673       38.986       23.629       19.363     1519.912      558.319      374.911        1.661        0.123      174.404       14.128        0.007      334.318        4.212      855.450
12/17/2014  02:11:00     -127.385       43.010      -12.165       33.960       23.972       20.444     1153.278      574.655      417.964        1.018        0.107      134.450       16.024        0.014      334.248        4.094      855.456
12/17/2014  02:12:00      -91.540        1.066      -13.128       37.284       34.812       21.572     1390.130     1211.908      465.340        0.581        0.153       91.546       16.280        0.032      334.199        4.014      855.453
12/17/2014  02:13:00      -67.264       40.237      -16.833       26.523       28.731       19.677      703.454      825.455      387.201        0.417        0.096       78.380       19.167        0.060      334.428        4.394      855.449
12/17/2014  02:14:00      -64.748       29.464      -10.746       24.029       28.453       19.553      577.405      809.546      382.331        0.347        0.088       71.136       12.373        0.030      334.420        4.382      855.440
12/17/2014  02:15:00      -50.532       51.195       -8.978       28.430       41.893       21.212      808.247     1755.015      449.938        0.413        0.151       71.933       20.155        0.079      334.259        4.114      855.433
12/17/2014  02:16:00      -28.719       28.529       -0.482       25.817       24.238       19.690      666.532      587.503      387.681        0.164        0.082       40.480       14.368        0.126      334.348        4.262      855.431
12/17/2014  02:17:00      -22.044       12.351        1.752       19.184       41.626       15.055      368.025     1732.754      226.645        0.148        0.116       25.268       19.861        0.618      334.414        4.371      855.427
12/17/2014  02:18:00      -12.588      104.927      -20.429       21.739       21.365        9.286      472.593      456.483       86.225        0.630        0.051      105.679        6.993        0.004      334.334        4.240      855.417
12/17/2014  02:19:00      -20.468       62.173      -22.275       19.974       23.478       10.674      398.977      551.237      113.933        0.292        0.053       65.456       10.061        0.024      334.352        4.271      855.402
12/17/2014  02:20:00      -12.336       29.515       -7.679       21.683       15.246        6.905      470.133      232.432       47.673        0.092        0.038       31.989        6.245        0.038      334.353        4.271      855.388
12/17/2014  02:21:00      -13.413       54.294       -6.122       20.770       31.911       16.875      431.394     1018.339      284.778        0.245        0.087       55.926       18.259        0.107      334.424        4.387      855.378
12/17/2014  02:22:00       14.226       60.789      -10.196       16.695       32.631       14.827      278.721     1064.780      219.847        0.278        0.078       62.431       17.680        0.080      334.289        4.162      855.378
12/17/2014  02:23:00        5.329      101.216      -13.800       19.171       25.488       12.106      367.509      649.625      146.567        0.581        0.058      101.356        2.938        0.001      334.312        4.204      855.388
12/17/2014  02:24:00       -0.629       65.804      -11.522       14.825       22.262       16.168      219.768      495.580      261.417        0.272        0.049       65.807        8.348        0.016      334.460        4.448      855.389
12/17/2014  02:25:00      -35.369       57.044      -14.966       20.831       27.644       19.016      433.914      764.216      361.616        0.314        0.078       67.119       12.786        0.036      334.522        4.550      855.389
12/17/2014  02:26:00      -55.387       49.538      -17.439       34.930       33.131       14.422     1220.087     1097.659      207.992        0.418        0.126       74.308       12.645        0.029      334.416        4.374      855.398
12/17/2014  02:27:00      -36.444       23.156       -4.898       24.983       26.414       20.192      624.162      697.702      407.716        0.181        0.086       43.178       15.957        0.137      334.420        4.381      855.401
12/17/2014  02:28:00      -61.188       66.946      -24.037       28.558       33.125       15.520      815.572     1097.271      240.878        0.548        0.108       90.696       17.887        0.039      334.442        4.417      855.388
12/17/2014  02:29:00      -50.527       76.226      -16.953       19.819       25.778       15.891      392.778      664.519      252.530        0.498        0.065       91.452       13.476        0.022      334.342        4.252      855.377
12/17/2014  02:30:00      -44.160       21.896      -10.700       21.240       33.763       14.138      451.127     1139.973      199.894        0.217        0.090       49.290        6.900        0.020      334.370        4.298      855.373
12/17/2014  02:31:00      -27.864       33.747       -8.729       40.831       26.493       14.849     1667.130      701.864      220.499        0.229        0.129       43.764       10.486        0.057      334.361        4.284      855.386
12/17/2014  02:32:00      -31.412        3.053       -4.911       21.188       20.020       10.312      448.948      400.794      106.348        0.099        0.048       31.560        9.731        0.095      334.343        4.254      855.391
12/17/2014  02:33:00      -53.127       -3.794       -9.762       15.729       20.944       10.460      247.404      438.640      109.407        0.186        0.040       53.263        7.031        0.017      334.267        4.126      855.397
12/17/2014  02:34:00      -40.768      -21.039      -14.032       23.342       19.371       13.191      544.854      375.238      173.993        0.170        0.055       45.877       11.477        0.063      334.135        3.908      855.416
12/17/2014  02:35:00      -59.141      -28.408       -7.013       17.652       15.869       14.391      311.586      251.815      207.111        0.256        0.039       65.610       11.715        0.032      334.082        3.820      855.437
12/17/2014  02:36:00      -59.993      -21.674       -9.673       12.082       16.810        9.107      145.965      282.563       82.943        0.234        0.026       63.788        7.058        0.012      334.038        3.748      855.450
12/17/2014  02:37:00      -56.686      -17.765       -4.826       18.826       15.339       13.652      354.411      235.286      186.387        0.216        0.039       59.405        8.943        0.023      334.059        3.782      855.452
12/17/2014  02:38:00      -61.566       -8.275       -8.035       21.984       20.665       11.202      483.281      427.027      125.494        0.248        0.052       62.120       10.795        0.030      334.021        3.720      855.448
12/17/2014  02:39:00      -40.867      -13.156       -7.029       23.467       13.813        8.884      550.685      190.789       78.919        0.136        0.041       42.932        4.550        0.011      334.077        3.811      855.455
12/17/2014  02:40:00      -13.567       -9.925       -1.274       22.532       14.366       11.713      507.701      206.372      137.205        0.057        0.043       16.810       12.511        0.554      334.203        4.021      855.464
12/17/2014  02:41:00       -2.652       21.383       -0.687       13.642       19.871       14.476      186.103      394.871      209.542        0.063        0.040       21.546       10.795        0.251      334.235        4.075      855.472
12/17/2014  02:42:00       -1.219       30.758       -4.081       22.841       16.511       12.091      521.731      272.622      146.197        0.095        0.047       30.782        7.460        0.059      334.271        4.135      855.469
12/17/2014  02:43:00      -29.589        0.015       -6.844       19.798       14.016        7.067      391.950      196.456       49.935        0.078        0.032       29.589        5.298        0.032      334.221        4.049      855.464
12/17/2014  02:44:00      -47.350      -21.290       -8.780       15.228       16.846        9.043      231.895      283.802       81.779        0.168        0.030       51.916        7.424        0.020      334.105        3.859      855.465
12/17/2014  02:45:00      -16.909      -19.233       -4.917       15.408       15.082       10.533      237.391      227.464      110.939        0.063        0.029       25.609        8.050        0.099      334.098        3.848      855.468
12/17/2014  02:46:00      -10.805      -30.066      -10.628       18.090       12.289        8.690      327.258      151.025       75.524        0.084        0.028       31.949        5.530        0.030      334.095        3.842      855.461
12/17/2014  02:47:00      -25.118      -13.787       -8.118       10.808        8.916        6.186      116.809       79.491       38.269        0.056        0.012       28.653        3.012        0.011      334.079        3.816      855.463
12/17/2014  02:48:00      -35.537      -12.911       -5.078        9.593        5.749        5.588       92.018       33.049       31.228        0.081        0.008       37.809        2.380        0.004      334.073        3.802      855.458
12/17/2014  02:49:00      -32.987      -26.018       -3.228       17.211        7.702       10.201      296.225       59.320      104.052        0.112        0.023       42.013        8.549        0.041      333.998        3.680      855.457
12/17/2014  02:50:00      -59.789       -8.407       -4.011       22.874       14.740       10.924      523.197      217.280      119.332        0.226        0.043       60.377       10.704        0.031      333.966        3.628      855.457
12/17/2014  02:51:00      -93.661      -31.446       -8.853       19.092       14.760       11.363      364.510      217.862      129.126        0.528        0.036       98.799        8.191        0.007      334.005        3.694      855.444
12/17/2014  02:52:00      -75.429      -23.260       -9.312       26.465       23.062       18.745      700.399      531.842      351.391        0.395        0.079       78.934       19.911        0.064      333.996        3.679      855.446
12/17/2014  02:53:00      -97.734      -23.661       -9.801       29.633       21.943       17.426      878.091      481.511      303.661        0.594        0.083      100.557       15.757        0.025      333.916        3.545      855.454
12/17/2014  02:54:00      -97.390      -25.541      -10.854       18.094       10.710        9.561      327.380      114.700       91.419        0.539        0.027      100.683        6.821        0.005      333.817        3.379      855.459
12/17/2014  02:55:00      -64.724       -3.518       -1.323       43.273       25.327       18.545     1872.561      641.481      343.902        0.353        0.143       64.820       25.032        0.149      333.914        3.542      855.461
12/17/2014  02:56:00      -70.959       -8.457       -2.858       36.232       23.262       19.816     1312.745      541.137      392.668        0.368        0.112       71.462       21.328        0.089      334.191        4.001      855.455
12/17/2014  02:57:00      -72.163        1.468       -6.807       33.551       20.114       15.491     1125.698      404.576      239.969        0.351        0.089       72.178       15.859        0.048      334.150        3.934      855.454
12/17/2014  02:58:00      -64.110       -4.348       -9.371       23.508       25.420       15.268      552.635      646.180      233.103        0.282        0.072       64.257       12.632        0.039      334.180        3.983      855.456
12/17/2014  02:59:00      -48.210       -2.267       -4.951       23.754       23.319       12.097      564.244      543.792      146.339        0.180        0.063       48.263        9.518        0.039      334.256        4.109      855.457
12/17/2014  03:00:00      -54.680       -7.567       -4.369       22.322       26.731       16.013      498.258      714.543      256.427        0.227        0.073       55.201       13.027        0.056      334.121        3.885      855.463
12/17/2014  03:01:00      -32.852       -7.536       -3.408       19.532       22.350       13.857      381.502      499.526      192.025        0.111        0.054       33.705       12.593        0.140      334.113        3.872      855.459
12/17/2014  03:02:00      -51.692       -4.345       -6.241       23.120       26.181       16.915      534.536      685.447      286.129        0.212        0.075       51.874       12.084        0.054      334.121        3.885      855.454
12/17/2014  03:03:00      -23.149        8.729       -6.615       17.726       20.622       14.707      314.228      425.282      216.309        0.081        0.048       24.740       11.601        0.220      334.119        3.881      855.449
12/17/2014  03:04:00      -28.667      -16.858       -8.425       21.071       15.473       12.316      443.974      239.400      151.675        0.101        0.042       33.256       10.024        0.091      334.150        3.933      855.459
12/17/2014  03:05:00      -48.206       -2.689       -2.306       17.683       24.974       11.142      312.680      623.708      124.142        0.170        0.053       48.280       11.361        0.055      334.121        3.885      855.474
12/17/2014  03:06:00      -46.633      -12.778      -10.553       17.213       18.418        8.919      296.280      339.219       79.557        0.158        0.036       48.352        4.032        0.007      334.028        3.731      855.492
12/17/2014  03:07:00      -47.465      -15.123      -14.901       21.129       25.672       16.251      446.437      659.061      264.106        0.204        0.068       49.816       15.842        0.101      334.024        3.723      855.511
12/17/2014  03:08:00      -42.848      -20.502        1.048       24.488        7.090        7.776      599.682       50.263       60.467        0.148        0.036       47.500        4.156        0.008      333.941        3.589      855.524
12/17/2014  03:09:00       -8.316       18.949      -12.252       25.287       37.183       18.414      639.455     1382.601      339.075        0.147        0.118       20.693       23.679        1.309      334.067        3.794      855.534
12/17/2014  03:10:00       -0.849       34.801       -2.809       24.885       33.477       18.085      619.241     1120.689      327.052        0.164        0.103       34.811       22.857        0.431      334.254        4.105      855.539
12/17/2014  03:11:00      -24.422       -6.826       -5.546       20.280       15.728        8.497      411.279      247.367       72.203        0.070        0.037       25.358       10.049        0.157      334.119        3.882      855.551
12/17/2014  03:12:00      -42.693      -17.241       -8.136       10.380       12.033        7.422      107.737      144.791       55.091        0.125        0.015       46.043        5.707        0.015      333.956        3.611      855.556
12/17/2014  03:13:00      -28.455      -21.822        2.966       20.261       12.629        9.059      410.503      159.493       82.058        0.097        0.033       35.859        9.062        0.064      334.015        3.710      855.564
12/17/2014  03:14:00       -1.751        2.288       -3.183       13.765       13.953       11.341      189.471      194.686      128.610        0.027        0.026        2.881       10.428       13.103      333.999        3.683      855.574
12/17/2014  03:15:00      -26.554      -17.668       -9.803       27.472       10.907        7.676      754.729      118.957       58.913        0.102        0.047       31.895        5.493        0.030      334.035        3.743      855.579
12/17/2014  03:16:00      -19.105      -18.902        6.145       20.087       14.395       10.348      403.505      207.203      107.085        0.074        0.036       26.875       10.635        0.157      334.007        3.698      855.581
12/17/2014  03:17:00        9.094        5.084        9.628        9.357       10.097       10.168       87.546      101.945      103.387        0.025        0.015       10.418        4.020        0.149      334.098        3.847      855.582
12/17/2014  03:18:00       15.583       59.861       -4.930       21.340       28.312       16.840      455.380      801.594      283.576        0.270        0.077       61.856       18.062        0.085      334.117        3.877      855.573
12/17/2014  03:19:00       15.179       98.520      -16.027       15.851       10.369        9.269      251.262      107.507       85.918        0.532        0.022       99.682        5.372        0.003      334.145        3.926      855.565
12/17/2014  03:20:00       -1.552      110.002      -20.125       17.202       21.169       10.246      295.902      448.115      104.974        0.668        0.042      110.013        8.858        0.006      334.170        3.964      855.558
12/17/2014  03:21:00        5.106       59.824      -11.395        7.947       18.455        7.123       63.156      340.601       50.741        0.209        0.023       60.041        8.201        0.019      334.142        3.919      855.568
12/17/2014  03:22:00       -3.073       27.107       -6.394       11.367       17.737        7.688      129.217      314.613       59.104        0.064        0.025       27.281        9.400        0.119      334.103        3.856      855.575
12/17/2014  03:23:00      -46.221      -13.536       -3.800       22.743       15.399       16.926      517.229      237.128      286.479        0.169        0.052       48.162       17.528        0.132      333.992        3.671      855.587
12/17/2014  03:24:00      -90.693       -4.423       -9.816       20.476       19.100       14.580      419.249      364.814      212.574        0.467        0.050       90.800       11.233        0.015      333.959        3.616      855.597
12/17/2014  03:25:00      -87.649        8.696      -10.002       38.493       28.261       20.772     1481.739      798.683      431.494        0.528        0.136       88.080       21.798        0.061      334.205        4.024      855.600
12/17/2014  03:26:00      -93.202       31.412       -1.835       32.893       21.946       22.217     1081.980      481.615      493.614        0.587        0.103       98.353       17.591        0.032      334.418        4.377      855.607
12/17/2014  03:27:00      -76.232       27.131       -6.501       27.330       23.847       17.143      746.926      568.696      293.882        0.410        0.080       80.916       12.886        0.025      334.356        4.274      855.619
12/17/2014  03:28:00      -53.388       22.217      -14.406       29.067       27.538       14.957      844.870      758.366      223.714        0.269        0.091       57.826       15.781        0.074      334.168        3.962      855.624
12/17/2014  03:29:00      -11.942       72.000      -12.949       28.106       32.382       17.864      789.959     1048.591      319.113        0.383        0.108       72.983       21.297        0.085      334.205        4.026      855.632
12/17/2014  03:30:00      -10.291       25.977       -0.961       18.467       25.558       12.530      341.045      653.226      156.997        0.097        0.058       27.941        9.499        0.116      334.279        4.146      855.631
12/17/2014  03:31:00        4.831       39.488        6.808       19.124       20.328       16.459      365.736      413.232      270.893        0.134        0.052       39.783       14.949        0.141      334.196        4.010      855.631
12/17/2014  03:32:00      -34.970       70.485      -14.267       25.915       19.319       14.381      671.602      373.223      206.816        0.382        0.063       78.683        8.631        0.012      334.312        4.202      855.636
12/17/2014  03:33:00      -75.420       55.112      -21.786       14.123       15.139       13.974      199.460      229.199      195.276        0.491        0.031       93.411       10.600        0.013      334.228        4.062      855.639
12/17/2014  03:34:00      -30.951       48.844      -12.050       20.197       27.807       14.434      407.926      773.227      208.352        0.244        0.069       57.825       10.269        0.032      334.322        4.219      855.650
12/17/2014  03:35:00      -19.707       49.887       -9.121       20.016       18.655       11.731      400.641      348.004      137.620        0.192        0.044       53.639        6.972        0.017      334.290        4.165      855.654
12/17/2014  03:36:00      -30.494        9.540       -1.202       14.295       22.838       12.744      204.342      521.553      162.421        0.096        0.044       31.952        8.206        0.066      334.230        4.065      855.656
12/17/2014  03:37:00      -43.965       11.945       -5.587       14.807       22.933       10.384      219.235      525.912      107.830        0.148        0.043       45.559        6.407        0.020      334.179        3.981      855.662
12/17/2014  03:38:00      -58.845       72.604      -23.503       17.992       14.822        7.516      323.711      219.706       56.488        0.494        0.030       93.456        3.924        0.002      334.161        3.952      855.675
12/17/2014  03:39:00      -45.283       46.646       -7.642       17.900       25.430       14.315      320.427      646.687      204.928        0.273        0.059       65.011        6.410        0.010      334.281        4.150      855.676
12/17/2014  03:40:00       10.898       56.518       -3.319       21.263       26.255       16.200      452.115      689.323      262.449        0.236        0.070       57.559       12.755        0.049      334.317        4.210      855.687
12/17/2014  03:41:00       16.559       54.506       -4.212       12.760       23.355       16.891      162.825      545.458      285.294        0.213        0.050       56.966       16.544        0.084      334.090        3.833      855.695
12/17/2014  03:42:00       43.613       49.679       -4.478       27.549       28.555       16.590      758.965      815.416      275.223        0.312        0.092       66.107       14.428        0.048      334.068        3.795      855.710
12/17/2014  03:43:00        8.507       43.334       -1.485       18.574       29.955       17.029      344.983      897.287      289.979        0.174        0.077       44.161       18.058        0.167      334.091        3.833      855.731
12/17/2014  03:44:00       -3.055       90.472      -16.796       17.020       15.318       10.237      289.672      234.642      104.801        0.455        0.031       90.523        8.377        0.009      334.115        3.874      855.766
12/17/2014  03:45:00       -4.302       99.942      -14.635       11.155       21.469        7.701      124.429      460.933       59.305        0.543        0.032      100.034        8.066        0.007      334.111        3.869      855.798
12/17/2014  03:46:00      -10.548       89.929      -14.684       17.647       16.521        8.983      311.422      272.931       80.693        0.454        0.033       90.545        7.718        0.007      334.167        3.961      855.820
12/17/2014  03:47:00      -33.226       36.846        2.557       24.908       27.687       21.033      620.409      766.592      442.377        0.215        0.091       49.615       15.249        0.094      334.268        4.128      855.833
12/17/2014  03:48:00      -62.028       42.350       -9.860       22.237       25.369       16.098      494.473      643.567      259.130        0.357        0.070       75.106       12.330        0.027      334.378        4.313      855.845
12/17/2014  03:49:00      -67.564       22.486       -8.023       30.347       31.555       17.711      920.919      995.691      313.667        0.368        0.112       71.207       19.533        0.075      334.328        4.229      855.856
12/17/2014  03:50:00      -74.444       84.444      -23.743       27.410       33.600       15.737      751.293     1128.938      247.664        0.768        0.106      112.573       20.393        0.033      334.250        4.098      855.865
12/17/2014  03:51:00      -68.098       19.098       -8.639       24.556       23.774       13.749      602.973      565.194      189.044        0.322        0.068       70.725       13.789        0.038      334.298        4.178      855.868
12/17/2014  03:52:00      -53.798        1.875        1.828       19.194       20.960       13.697      368.423      439.302      187.599        0.195        0.050       53.831        9.710        0.033      334.309        4.197      855.868
12/17/2014  03:53:00      -51.046       -5.705       -5.709       13.426       12.029       10.815      180.265      144.685      116.959        0.156        0.022       51.364        7.213        0.020      334.224        4.055      855.869
12/17/2014  03:54:00      -28.888      -11.130       -1.583       19.565       19.867       11.804      382.804      394.680      139.327        0.094        0.046       30.957       10.420        0.113      334.229        4.065      855.877
12/17/2014  03:55:00      -13.655      -22.823        7.392       22.864       20.873       10.395      522.745      435.673      108.060        0.091        0.053       26.596       13.431        0.255      334.160        3.951      855.889
12/17/2014  03:56:00        6.087       16.995        4.301       16.007        9.242       15.873      256.238       85.424      251.947        0.047        0.030       18.052        9.466        0.275      334.234        4.073      855.899
12/17/2014  03:57:00       36.733       34.604       -6.035       11.247        9.212       12.060      126.496       84.870      145.436        0.147        0.018       50.466        8.887        0.031      334.208        4.027      855.898
12/17/2014  03:58:00       10.282       10.300        3.554       14.418       10.148       10.698      207.877      102.978      114.452        0.032        0.021       14.554        6.453        0.197      334.187        3.998      855.899
12/17/2014  03:59:00      -29.167       -4.212       -3.814       26.129       30.299        9.996      682.712      918.005       99.919        0.129        0.085       29.470        8.874        0.091      334.200        4.018      855.907
12/17/2014  04:00:00      -58.201      -31.062        0.514       26.638       18.095       12.861      709.584      327.414      165.401        0.278        0.060       65.972       16.351        0.061      334.181        3.985      855.923
12/17/2014  04:01:00       -5.295      -21.085        8.802       21.665       11.999       15.825      469.383      143.975      250.429        0.071        0.043       21.740       15.249        0.492      334.216        4.041      855.942
12/17/2014  04:02:00       -8.903      -11.621       12.272       19.849       12.713        9.851      394.002      161.612       97.051        0.051        0.033       14.639       11.104        0.575      334.227        4.061      855.949
12/17/2014  04:03:00      -31.334      -33.698        4.613       28.964       17.728       11.666      838.915      314.283      136.085        0.171        0.064       46.015       10.741        0.054      334.195        4.007      855.959
12/17/2014  04:04:00       -8.789      -29.096        8.592       23.749       22.358       15.335      564.037      499.902      235.176        0.115        0.065       30.394       16.988        0.312      334.227        4.061      855.958
12/17/2014  04:05:00      -42.750      -37.636        3.631       29.350       24.019       16.350      861.399      576.930      267.338        0.248        0.085       56.956       10.563        0.034      334.079        3.816      855.953
12/17/2014  04:06:00      -99.330      -52.682       -0.849       39.806       23.184       20.225     1584.536      537.507      409.070        0.759        0.127      112.436       13.474        0.014      333.989        3.666      855.950
12/17/2014  04:07:00     -138.496      -74.387      -11.940       32.559       30.863       21.939     1060.080      952.522      481.311        1.368        0.125      157.209       18.795        0.014      333.919        3.551      855.959
12/17/2014  04:08:00     -117.267      -64.694       -7.098       37.473       29.667       20.087     1404.222      880.159      403.470        1.034        0.134      133.929       16.218        0.015      333.841        3.422      855.972
12/17/2014  04:09:00      -57.953       -8.941        2.710       33.722       26.658       21.948     1137.178      710.654      481.709        0.289        0.116       58.639       16.340        0.078      333.962        3.622      855.968
12/17/2014  04:10:00       -7.532       16.252       19.576       12.680       20.457       13.438      160.779      418.502      180.576        0.073        0.038       17.913        6.466        0.130      334.008        3.699      855.960
12/17/2014  04:11:00        7.384       33.574        7.039       16.263       33.277       15.145      264.494     1107.374      229.364        0.142        0.080       34.376       16.040        0.218      334.095        3.842      855.950
12/17/2014  04:12:00      -27.305       44.295      -11.214       21.746       13.680        8.884      472.883      187.152       78.927        0.179        0.037       52.035        9.284        0.032      334.206        4.026      855.963
12/17/2014  04:13:00        1.395       34.461       -9.569       19.729       17.966       10.324      389.221      322.786      106.595        0.105        0.041       34.490        9.436        0.075      334.146        3.927      855.977
12/17/2014  04:14:00       17.259       19.286        3.643       12.729       18.707       11.519      162.019      349.967      132.680        0.066        0.032       25.881       11.559        0.199      334.137        3.911      855.989
12/17/2014  04:15:00        9.915       25.395       11.229       12.179       12.386        9.948      148.327      153.416       98.972        0.063        0.020       27.262        7.394        0.074      334.118        3.879      855.987
12/17/2014  04:16:00        0.143       38.485       -3.595        7.731        9.535        7.078       59.765       90.911       50.096        0.085        0.010       38.485        5.093        0.018      334.138        3.914      855.982
12/17/2014  04:17:00       -5.593       -1.571       -4.500       12.627       20.567        8.723      159.441      423.017       76.091        0.036        0.033        5.810        6.895        1.409      334.117        3.879      855.969
12/17/2014  04:18:00      -41.332       -3.055       -1.756       25.686       18.819       14.004      659.761      354.170      196.108        0.147        0.061       41.445       13.414        0.105      334.222        4.053      855.973
12/17/2014  04:19:00      -81.502      -26.538       -6.298       31.243       25.044       14.444      976.096      627.225      208.616        0.460        0.091       85.713       14.604        0.029      334.045        3.761      855.995
12/17/2014  04:20:00      -98.635      -25.680       -3.530       28.753       24.259       19.029      826.756      588.483      362.092        0.609        0.089      101.923       17.739        0.030      334.058        3.779      856.019
12/17/2014  04:21:00      -92.063      -22.752       -7.582       21.305       27.893       13.829      453.889      778.026      191.254        0.524        0.071       94.833        9.046        0.009      334.103        3.855      856.032
12/17/2014  04:22:00      -64.265      -18.836       -0.716       31.485       22.488       13.259      991.278      505.708      175.791        0.308        0.084       66.968       13.152        0.039      333.972        3.638      856.026
12/17/2014  04:23:00       -7.438       24.142       -3.817       12.866       18.151       15.762      165.541      329.473      248.453        0.070        0.037       25.262       11.786        0.218      334.159        3.948      856.009
12/17/2014  04:24:00       25.754       29.981       -0.965       18.743       20.148       10.994      351.304      405.936      120.864        0.122        0.044       39.524        7.868        0.040      334.160        3.948      855.995
12/17/2014  04:25:00       14.502       49.121       -8.936       10.001       13.278        8.603      100.012      176.313       74.007        0.153        0.018       51.217        4.595        0.008      334.211        4.033      855.994
12/17/2014  04:26:00        9.251       44.975       -7.312       10.846       20.480        8.122      117.646      419.451       65.969        0.138        0.030       45.916        7.989        0.030      334.148        3.931      855.999
12/17/2014  04:27:00        3.316       62.165       -9.191        5.831        7.802        5.215       34.001       60.870       27.197        0.204        0.006       62.253        3.326        0.003      334.155        3.941      856.004
12/17/2014  04:28:00       10.128       81.734      -13.919        7.486        8.437        4.591       56.045       71.175       21.079        0.356        0.007       82.359        2.742        0.001      334.203        4.019      856.003
12/17/2014  04:29:00        0.490       86.541      -14.824        5.377        9.924        4.917       28.913       98.494       24.179        0.393        0.008       86.542        1.454        0.000      334.160        3.949      855.991
12/17/2014  04:30:00      -12.162       98.482      -18.826       12.169       14.180       10.129      148.081      201.083      102.600        0.533        0.023       99.230        4.484        0.002      334.196        4.009      855.985
12/17/2014  04:31:00      -39.574       60.676       -7.135       32.680       33.924       20.230     1067.983     1150.824      409.247        0.396        0.131       72.441       13.722        0.036      334.257        4.111      855.989
12/17/2014  04:32:00      -72.159       77.222      -23.821       23.686       27.595       15.225      561.010      761.457      231.792        0.665        0.078      105.688       15.377        0.021      334.229        4.064      856.002
12/17/2014  04:33:00      -57.133       51.162      -13.675       20.650       24.563       16.066      426.435      603.337      258.103        0.368        0.064       76.693        7.677        0.010      334.300        4.181      856.010
12/17/2014  04:34:00      -42.071       11.993       -9.102       19.334       36.556       13.959      373.806     1336.359      194.845        0.195        0.095       43.748        4.681        0.011      334.147        3.927      856.017
12/17/2014  04:35:00      -85.234      -19.743      -13.937       28.241       17.012       14.753      797.530      289.418      217.652        0.458        0.065       87.491       13.895        0.025      334.004        3.692      856.031
12/17/2014  04:36:00     -115.009        2.609      -10.830       34.080       21.554       17.033     1161.464      464.596      290.134        0.763        0.096      115.038       11.190        0.009      333.826        3.396      856.041
12/17/2014  04:37:00      -63.273       16.956      -11.619       29.339       26.819       14.314      860.792      719.281      204.904        0.311        0.089       65.506        8.468        0.017      334.110        3.868      856.048
12/17/2014  04:38:00      -14.001       61.961      -10.679       35.573       19.416       17.291     1265.448      376.962      298.994        0.304        0.097       63.523       20.445        0.104      334.038        3.747      856.046
12/17/2014  04:39:00       54.861       54.748        5.407       23.127       19.545       16.014      534.861      381.989      256.433        0.360        0.059       77.505       12.016        0.024      334.012        3.705      856.022
12/17/2014  04:40:00       60.045       58.822        4.540       37.913       24.706       23.051     1437.419      610.380      531.329        0.483        0.129       84.056       13.591        0.026      333.955        3.610      856.003
12/17/2014  04:41:00       46.359       30.132        3.885       26.684       30.839       18.420      712.062      951.039      339.310        0.254        0.100       55.291       12.554        0.052      333.957        3.614      855.988
12/17/2014  04:42:00       48.401       22.124        3.437       23.313       22.315       18.301      543.515      497.938      334.911        0.211        0.069       53.218       13.224        0.062      333.966        3.630      855.985
12/17/2014  04:43:00        6.279        9.031       -4.618       26.376       10.883       13.637      695.670      118.449      185.965        0.057        0.050       11.000       11.360        1.067      333.963        3.624      855.996
12/17/2014  04:44:00       -5.641       28.812       -9.848       10.862       19.506        8.303      117.974      380.465       68.940        0.076        0.028       29.359        9.133        0.097      334.003        3.687      856.008
12/17/2014  04:45:00       -4.230        4.615        3.573        9.567       13.880       13.993       91.531      192.641      195.816        0.027        0.024        6.261        7.186        1.317      333.849        3.435      856.016
12/17/2014  04:46:00        3.462       13.488        9.065       11.071       14.611       14.462      122.572      213.476      209.158        0.041        0.027       13.925       13.019        0.874      333.945        3.595      856.014
12/17/2014  04:47:00        0.550       49.949       61.725       19.907       23.873       13.199      396.294      569.925      174.206        0.372        0.057       49.952       13.842        0.077      333.970        3.633      856.021
12/17/2014  04:48:00       16.562       66.060       62.647       32.770       27.579       24.963     1073.864      760.583      623.153        0.551        0.123       68.105       22.273        0.107      333.991        3.670      856.031
12/17/2014  04:49:00       10.027       12.677       55.246       30.840       50.688       37.488      951.101     2569.288     1405.343        0.412        0.246       16.163       39.035        5.833      333.987        3.663      856.033
12/17/2014  04:50:00       13.356       59.211       69.203       30.516       30.326       28.994      931.238      919.648      840.664        0.558        0.135       60.699       17.900        0.087      333.978        3.649      856.027
12/17/2014  04:51:00       51.381       80.971       69.144       38.866       39.042       31.504     1510.543     1524.247      992.472        0.900        0.201       95.898       27.615        0.083      334.034        3.741      856.010
12/17/2014  04:52:00       40.743       74.480       73.942       30.364       30.358       18.160      922.003      921.621      329.802        0.742        0.109       84.896        5.171        0.004      334.062        3.786      856.006
12/17/2014  04:53:00       12.522       48.935       68.983       35.259       38.964       21.214     1243.220     1518.195      450.042        0.526        0.161       50.512       23.722        0.221      334.040        3.749      856.008
12/17/2014  04:54:00       59.309       75.099       50.575       42.237       25.422       27.248     1783.955      646.301      742.480        0.744        0.159       95.695       27.921        0.085      333.993        3.674      856.017
12/17/2014  04:55:00        8.379       -9.578       30.136       21.049       33.187       26.191      443.052     1101.352      685.964        0.165        0.112       12.726       21.448        2.841      334.016        3.711      856.037
12/17/2014  04:56:00      -11.053      -46.405        9.862       17.398       12.354       18.659      302.701      152.620      348.158        0.159        0.040       47.703       12.921        0.073      334.049        3.765      856.061
12/17/2014  04:57:00      -43.766      -16.049       -5.178       19.344       12.975       20.204      374.193      168.358      408.191        0.158        0.048       46.616       17.696        0.144      334.052        3.768      856.078
12/17/2014  04:58:00      -67.120      -13.062       -4.939       20.040       15.722       11.293      401.605      247.192      127.543        0.274        0.039       68.379        9.655        0.020      333.935        3.576      856.079
12/17/2014  04:59:00      -86.223      -57.343        5.773       37.421       32.029       21.490     1400.356     1025.852      461.805        0.682        0.144      103.550       19.759        0.036      333.867        3.464      856.060
12/17/2014  05:00:00     -118.451      -42.988        2.362       33.381       20.703       17.222     1114.290      428.618      296.613        0.886        0.092      126.010       16.113        0.016      333.823        3.390      856.042
12/17/2014  05:01:00     -115.193      -28.599       -5.562       17.963       19.530       15.157      322.672      381.434      229.749        0.753        0.047      118.691       10.748        0.008      333.850        3.435      856.044
12/17/2014  05:02:00      -80.042      -22.945       -2.828       23.004       16.563       12.537      529.161      274.320      157.189        0.395        0.048       83.266        8.594        0.011      333.890        3.500      856.058
12/17/2014  05:03:00     -106.243      -27.218      -11.124       26.112       16.867       12.434      681.838      284.505      154.606        0.664        0.056      109.674       13.272        0.015      333.932        3.571      856.091
12/17/2014  05:04:00      -42.925      -26.010       -1.240       31.836       20.901       17.426     1013.506      436.849      303.668        0.214        0.088       50.190       11.677        0.054      333.921        3.553      856.119
12/17/2014  05:05:00      -28.015      -27.017        2.629       28.531       24.675       16.629      814.023      608.842      276.532        0.161        0.085       38.920       16.044        0.170      333.896        3.512      856.140
12/17/2014  05:06:00      -43.326      -55.602        5.801       51.230       35.696       19.714     2624.469     1274.203      388.656        0.464        0.214       70.489       24.578        0.122      333.991        3.669      856.149
12/17/2014  05:07:00      -89.044      -77.153        1.841       43.737       41.468       21.892     1912.945     1719.554      479.267        0.900        0.206      117.820       17.761        0.023      333.916        3.544      856.165
12/17/2014  05:08:00      -71.411      -57.842       -0.205       47.997       40.023       26.773     2303.736     1601.806      716.809        0.653        0.231       91.898       21.184        0.053      333.919        3.552      856.174
12/17/2014  05:09:00      -61.661      -71.477       -2.130       51.708       35.427       21.161     2673.757     1255.082      447.789        0.665        0.219       94.398       24.695        0.068      333.884        3.491      856.178
12/17/2014  05:10:00       -1.246       -9.577        8.691       16.763       33.839       17.172      280.989     1145.060      294.888        0.094        0.086        9.658       15.119        2.451      333.861        3.454      856.161
12/17/2014  05:11:00      -26.299       20.501       -3.531       12.646       14.978       12.112      159.928      224.326      146.712        0.083        0.027       33.346        8.689        0.068      333.856        3.446      856.129
12/17/2014  05:12:00      -19.982       -0.316       -4.360       19.999       30.535       15.153      399.942      932.369      229.612        0.099        0.078       19.985        6.817        0.116      333.819        3.384      856.110
12/17/2014  05:13:00      -19.686      -46.603       -9.468       30.086       22.853       29.587      905.146      522.259      875.413        0.248        0.115       50.590       12.511        0.061      333.814        3.376      856.108
12/17/2014  05:14:00      -43.495      -47.950        7.350       60.647       46.535       25.716     3678.063     2165.490      661.307        0.537        0.325       64.738       26.245        0.164      333.701        3.189      856.125
12/17/2014  05:15:00     -117.069     -125.068       -2.043       50.639       37.154       29.395     2564.308     1380.449      864.061        1.708        0.240      171.310       23.539        0.019      333.515        2.878      856.140
12/17/2014  05:16:00     -104.794      -99.068       -0.178       50.918       49.388       35.393     2592.663     2439.146     1252.680        1.354        0.314      144.209       30.789        0.046      333.481        2.824      856.143
12/17/2014  05:17:00      -81.060      -94.908       13.078       64.486       47.780       31.813     4158.494     2282.939     1012.081        1.160        0.373      124.813       29.652        0.056      333.519        2.885      856.152
12/17/2014  05:18:00      -55.052     -143.515       -2.287       41.244       46.940       28.836     1701.036     2203.326      831.543        1.418        0.237      153.712       21.139        0.019      333.546        2.931      856.148
12/17/2014  05:19:00      -80.061      -55.226       -1.410       54.880       46.274       28.680     3011.845     2141.310      822.524        0.772        0.299       97.261       28.195        0.084      333.577        2.983      856.131
12/17/2014  05:20:00       14.090      -43.545        8.612       37.882       45.123       31.050     1435.069     2036.059      964.100        0.330        0.222       45.768       33.582        0.538      333.693        3.176      856.124
12/17/2014  05:21:00      -18.220        8.466       24.159       27.345       26.546       22.872      747.761      704.695      523.121        0.148        0.099       20.091       18.493        0.847      333.559        2.953      856.138
12/17/2014  05:22:00      -93.175       30.442        1.950       37.363       29.366       17.961     1396.001      862.373      322.597        0.610        0.129       98.022       13.000        0.018      333.732        3.239      856.177
12/17/2014  05:23:00     -151.102      -49.804       -1.600       62.326       56.381       25.148     3884.509     3178.841      632.420        1.650        0.385      159.098       20.464        0.017      333.559        2.952      856.215
12/17/2014  05:24:00     -188.000      -28.377       -2.988       76.482       50.380       35.633     5849.421     2538.179     1269.676        2.291        0.483      190.129       41.402        0.047      333.386        2.664      856.259
12/17/2014  05:25:00     -200.883       22.439      -17.750       37.079       30.172       21.411     1374.886      910.374      458.425        2.196        0.137      202.132       17.125        0.007      333.306        2.531      856.294
12/17/2014  05:26:00     -120.356       -4.164      -18.639       28.372       25.834       16.160      804.988      667.412      261.148        0.829        0.087      120.428       12.844        0.011      333.344        2.597      856.313
12/17/2014  05:27:00     -121.020        1.283      -17.635       26.549       29.268       19.192      704.870      856.640      368.338        0.844        0.096      121.026       12.113        0.010      333.380        2.657      856.318
12/17/2014  05:28:00     -138.390      -58.451      -21.563       19.466       25.345       15.434      378.929      642.373      238.223        1.215        0.063      150.228       10.989        0.005      333.343        2.597      856.319
12/17/2014  05:29:00      -94.156      -10.980      -10.909       36.649       34.392       19.049     1343.186     1182.823      362.856        0.600        0.144       94.794       16.870        0.032      333.339        2.590      856.318
12/17/2014  05:30:00     -127.233       19.552      -14.264       16.020       14.697       10.503      256.630      215.989      110.306        0.868        0.029      128.726        8.472        0.004      333.372        2.643      856.325
12/17/2014  05:31:00      -88.127       -9.826       -7.713       26.433       21.435       14.974      698.695      459.473      224.231        0.465        0.069       88.674       10.756        0.015      333.324        2.563      856.325
12/17/2014  05:32:00     -102.442      -19.925       -9.121       23.327       24.311       16.939      544.164      591.028      286.928        0.620        0.071      104.362       15.502        0.022      333.349        2.607      856.333
12/17/2014  05:33:00     -104.474      -29.552      -10.309       39.301       23.561        9.948     1544.560      555.097       98.953        0.705        0.110      108.574        7.740        0.005      333.400        2.689      856.337
12/17/2014  05:34:00     -108.137      -22.231       -6.465       34.433       22.357       21.574     1185.624      499.826      465.430        0.719        0.108      110.398       21.592        0.038      333.332        2.577      856.343
12/17/2014  05:35:00      -63.412      -22.409        0.695       44.470       23.693       16.457     1977.571      561.361      270.817        0.367        0.140       67.255       19.005        0.080      333.418        2.720      856.334
12/17/2014  05:36:00      -50.991       17.017       -3.289       30.759       20.060       12.931      946.114      402.395      167.214        0.221        0.076       53.756       12.837        0.057      333.508        2.868      856.319
12/17/2014  05:37:00      -35.567       42.050       -9.928       22.611       25.470       10.877      511.256      648.719      118.308        0.220        0.064       55.075       14.146        0.066      333.702        3.190      856.311
12/17/2014  05:38:00      -42.924       -0.285       -4.630       19.443       17.329       10.947      378.011      300.299      119.839        0.133        0.040       42.925        8.736        0.041      333.619        3.052      856.317
12/17/2014  05:39:00      -20.819      -37.682       10.938       34.089       17.195       16.541     1162.067      295.661      273.611        0.185        0.087       43.051       19.350        0.202      333.463        2.793      856.342
12/17/2014  05:40:00      -41.016      -41.999       15.610       73.621       41.449       30.451     5420.003     1718.035      927.243        0.588        0.403       58.704       37.305        0.404      333.346        2.601      856.373
12/17/2014  05:41:00     -121.481     -109.540      -13.522       48.130       39.138       24.282     2316.486     1531.753      589.604        1.569        0.222      163.575       22.364        0.019      333.368        2.635      856.390
12/17/2014  05:42:00     -121.634      -70.891       -3.487       37.579       43.507       23.087     1412.209     1892.844      532.997        1.183        0.192      140.785        9.975        0.005      333.325        2.567      856.388
12/17/2014  05:43:00     -124.531      -72.668      -11.518       36.601       41.701       22.124     1339.624     1738.941      489.460        1.224        0.178      144.182       16.311        0.013      333.462        2.791      856.372
12/17/2014  05:44:00      -87.612      -72.921        1.165       27.051       28.891       21.991      731.746      834.703      483.596        0.752        0.103      113.988       18.974        0.028      333.527        2.898      856.360
12/17/2014  05:45:00     -113.109      -46.704        0.338       25.703       22.346       19.518      660.628      499.330      380.968        0.826        0.077      122.372       10.136        0.007      333.551        2.940      856.355
12/17/2014  05:46:00      -64.035      -30.235        4.222       38.038       19.693       10.899     1446.886      387.808      118.786        0.349        0.098       70.814       11.269        0.025      333.492        2.842      856.363
12/17/2014  05:47:00      -22.409      -26.281       -0.488       18.449       20.499        8.935      340.379      420.202       79.829        0.102        0.042       34.537        7.345        0.045      333.624        3.060      856.362
12/17/2014  05:48:00      -65.568      -48.231        0.477       39.901       30.861       18.806     1592.068      952.380      353.662        0.476        0.145       81.396       16.057        0.039      333.478        2.818      856.381
12/17/2014  05:49:00      -80.501      -66.371       -1.541       37.499       37.107       21.350     1406.197     1376.898      455.805        0.706        0.162      104.333       10.688        0.010      333.473        2.809      856.387
12/17/2014  05:50:00      -68.384      -57.728        3.766       41.015       22.147       22.174     1682.243      490.496      491.677        0.534        0.133       89.493       23.643        0.070      333.505        2.864      856.379
12/17/2014  05:51:00     -105.622      -55.385       -5.058       34.885       26.995       22.326     1216.958      728.707      498.456        0.835        0.122      119.262       21.431        0.032      333.316        2.550      856.381
12/17/2014  05:52:00      -97.476      -53.360       -3.055       32.508       25.473       14.987     1056.748      648.868      224.597        0.714        0.097      111.125       15.322        0.019      333.228        2.405      856.390
12/17/2014  05:53:00      -77.501      -26.718       -6.333       24.271       19.967       18.356      589.079      398.666      336.948        0.404        0.066       81.977       11.038        0.018      333.279        2.490      856.403
12/17/2014  05:54:00      -62.022      -10.391       -4.203       21.829       16.344       13.236      476.518      267.140      175.202        0.245        0.046       62.886       11.179        0.032      333.366        2.634      856.404
12/17/2014  05:55:00      -46.930      -33.841        5.529       24.476       19.792       11.577      599.052      391.731      134.032        0.225        0.056       57.858       11.755        0.041      333.406        2.700      856.417
12/17/2014  05:56:00     -105.140      -59.031        2.914       44.224       24.737       20.371     1955.805      611.901      414.998        0.876        0.149      120.578       16.571        0.019      333.346        2.600      856.426
12/17/2014  05:57:00      -17.158      -18.268       12.857       22.447       14.901       13.228      503.878      222.039      174.970        0.085        0.045       25.062       11.179        0.199      333.257        2.452      856.430
12/17/2014  05:58:00        7.669        6.441        6.082       13.855       15.234        8.045      191.968      232.069       64.722        0.031        0.024       10.015        4.180        0.174      333.275        2.483      856.421
12/17/2014  05:59:00       44.522       40.777       12.524       14.535        9.101       11.888      211.278       82.823      141.313        0.212        0.022       60.374        5.679        0.009      333.266        2.466      856.417
12/17/2014  06:00:00       81.151       48.833       11.473       27.877       21.238       16.934      777.126      451.042      286.748        0.531        0.076       94.711       14.034        0.022      333.272        2.477      856.422
12/17/2014  06:01:00      131.741       65.297       12.758       40.948       29.149       30.154     1676.706      849.644      909.254        1.261        0.172      147.035       24.819        0.028      333.047        2.105      856.428
12/17/2014  06:02:00      147.137       76.960        6.111       42.765       32.042       24.581     1828.881     1026.720      604.228        1.553        0.173      166.048       19.208        0.013      332.850        1.781      856.437
12/17/2014  06:03:00       79.526       55.671        8.835       33.879       32.715       25.721     1147.774     1070.286      661.565        0.619        0.144       97.075       15.995        0.027      332.761        1.634      856.463
12/17/2014  06:04:00      113.347       77.570       15.910       42.494       31.002       28.778     1805.706      961.115      828.167        1.136        0.180      137.349       23.809        0.030      332.714        1.556      856.471
12/17/2014  06:05:00      114.180       81.584       12.832       42.577       39.943       28.092     1812.821     1595.470      789.182        1.203        0.210      140.332       19.454        0.019      332.667        1.479      856.472
12/17/2014  06:06:00       62.390       48.835        8.391       54.593       32.695       31.195     2980.389     1068.935      973.149        0.568        0.251       79.230       29.273        0.137      332.716        1.558      856.497
12/17/2014  06:07:00        6.848       72.546       -5.985       26.644       33.452       20.621      709.912     1119.061      425.241        0.380        0.113       72.869       20.313        0.078      332.763        1.636      856.544
12/17/2014  06:08:00       25.754       56.456       -5.193       21.915       26.054       16.935      480.252      678.835      286.810        0.266        0.072       62.053       11.166        0.032      332.868        1.810      856.561
12/17/2014  06:09:00       72.767       49.999       10.714       39.163       25.126       23.236     1533.773      631.310      539.914        0.531        0.135       88.289       17.738        0.040      332.865        1.808      856.565
12/17/2014  06:10:00       59.066       25.850        1.497       25.438       16.683       17.525      647.079      278.308      307.125        0.270        0.062       64.475       10.748        0.028      332.889        1.846      856.576
12/17/2014  06:11:00        5.036       -1.632        2.914        9.827       10.444       10.052       96.563      109.068      101.037        0.017        0.015        5.294        5.451        1.060      332.895        1.854      856.583
12/17/2014  06:12:00       39.263       26.560       48.760       41.443       24.484       19.377     1717.528      599.475      375.479        0.366        0.135       47.403       18.127        0.146      332.875        1.823      856.577
12/17/2014  06:13:00       38.258       68.373       66.656       44.534       40.491       33.544     1983.243     1639.523     1125.214        0.766        0.237       78.349       35.812        0.209      332.949        1.944      856.559
12/17/2014  06:14:00       10.427        0.549       51.124       25.393       78.591       42.337      644.786     6176.498     1792.394        0.567        0.431       10.442       54.381       27.123      333.052        2.114      856.543
12/17/2014  06:15:00       -8.629      -42.494       -2.208       30.950       26.422       19.022      957.894      698.122      361.830        0.195        0.101       43.362       15.332        0.125      333.057        2.122      856.573
12/17/2014  06:16:00       15.884       -9.902        7.914       18.938       25.328       19.461      358.653      641.532      378.745        0.090        0.069       18.717       16.790        0.805      333.057        2.124      856.595
12/17/2014  06:17:00       34.053       28.351        6.842       17.174       13.851       18.739      294.957      191.854      351.138        0.142        0.042       44.310        7.909        0.032      333.138        2.256      856.607
12/17/2014  06:18:00        6.802       17.077       26.987       19.253       17.066       11.596      370.687      291.259      134.457        0.093        0.040       18.382       12.153        0.437      333.143        2.266      856.615
12/17/2014  06:19:00      -69.346      -26.162        1.784       59.528       28.651       19.697     3543.606      820.889      387.958        0.512        0.238       74.117       12.529        0.029      333.081        2.162      856.656
12/17/2014  06:20:00      -90.393      -93.957        1.479       67.280       58.280       32.835     4526.623     3396.552     1078.112        1.300        0.450      130.380       38.469        0.087      333.068        2.140      856.702
12/17/2014  06:21:00      -77.968      -52.794       -3.011       48.737       41.429       21.303     2375.265     1716.369      453.824        0.671        0.227       94.161       15.222        0.026      333.100        2.194      856.705
12/17/2014  06:22:00     -100.372      -25.391       -0.739       29.632       34.237       18.779      878.074     1172.185      352.640        0.656        0.120      103.534       10.805        0.011      333.163        2.298      856.716
12/17/2014  06:23:00      -53.920      -24.140        6.753       40.829       40.786       22.361     1667.001     1663.466      500.014        0.368        0.192       59.077       19.172        0.105      333.117        2.223      856.727
12/17/2014  06:24:00       16.843        9.999       13.090       18.767       19.703        8.855      352.190      388.189       78.415        0.069        0.041       19.587        3.074        0.025      333.064        2.134      856.714
12/17/2014  06:25:00       40.938       42.483       17.715       15.749       15.041       21.823      248.035      226.221      476.264        0.237        0.048       58.998        8.335        0.020      333.185        2.335      856.695
12/17/2014  06:26:00       54.381       31.561       -5.836       28.855       22.408       13.190      832.627      502.133      173.971        0.275        0.075       62.875       14.165        0.051      333.188        2.339      856.705
12/17/2014  06:27:00       15.287       19.724        1.449       34.174       27.813       16.094     1167.854      773.539      259.004        0.141        0.110       24.954       12.555        0.253      333.097        2.190      856.705
12/17/2014  06:28:00      -68.065       -5.015       -6.814       28.794       18.166       12.951      829.109      330.009      167.737        0.302        0.066       68.250       13.356        0.038      333.081        2.162      856.733
12/17/2014  06:29:00     -103.212       -9.763       -8.625       26.138       23.994       16.740      683.204      575.708      280.220        0.618        0.077      103.672       14.857        0.021      332.811        1.718      856.778
12/17/2014  06:30:00      -66.560      -32.215        2.931       55.501       17.391       16.672     3080.394      302.444      277.951        0.457        0.183       73.946       20.382        0.076      332.798        1.694      856.815
12/17/2014  06:31:00       43.143       34.447        7.301       26.870       35.871       18.375      721.996     1286.711      337.658        0.272        0.117       55.208        9.883        0.032      332.970        1.979      856.786
12/17/2014  06:32:00       66.312       43.377        9.028       32.381       16.699       17.807     1048.528      278.871      317.078        0.400        0.082       79.240        8.282        0.011      333.007        2.041      856.752
12/17/2014  06:33:00       37.632       15.862       -3.172       15.678       12.103       15.648      245.787      146.493      244.869        0.116        0.032       40.838        6.560        0.026      332.985        2.004      856.756
12/17/2014  06:34:00       -6.548       14.578      -10.228       16.913        9.297        8.245      286.060       86.443       67.974        0.040        0.022       15.981        6.502        0.166      332.937        1.924      856.785
12/17/2014  06:35:00      -57.613        4.581       -4.963       44.127       22.124       17.536     1947.163      489.456      307.526        0.305        0.137       57.795       22.274        0.149      332.873        1.819      856.818
12/17/2014  06:36:00      -61.852       -4.682       -3.109       27.562       15.649       16.954      759.685      244.884      287.433        0.257        0.065       62.029       12.603        0.041      332.846        1.774      856.856
12/17/2014  06:37:00       18.547       11.867        2.583       21.217       24.069       11.377      450.143      579.332      129.438        0.082        0.058       22.018        8.000        0.132      333.032        2.082      856.858
12/17/2014  06:38:00       57.511       36.916        2.256       11.569       12.021        9.120      133.844      144.511       83.166        0.252        0.018       68.340        5.767        0.007      333.151        2.278      856.843
12/17/2014  06:39:00       27.385       41.372       -1.416       16.960       22.209       13.140      287.646      493.220      172.647        0.171        0.048       49.614       12.734        0.066      332.962        1.965      856.841
12/17/2014  06:40:00       22.751       24.518        0.429       31.113       21.352       17.601      967.991      455.929      309.806        0.143        0.087       33.448       13.091        0.153      332.880        1.833      856.849
12/17/2014  06:41:00        4.167       14.175       -3.223       25.069       33.510       13.424      628.451     1122.902      180.200        0.108        0.097       14.775       15.946        1.165      332.966        1.971      856.832
12/17/2014  06:42:00       16.764       34.561       -2.951       16.000       19.563       14.560      255.992      382.724      211.999        0.117        0.043       38.412       11.733        0.093      332.958        1.961      856.828
12/17/2014  06:43:00       15.975       29.242        1.222       10.612       13.989       12.507      112.612      195.690      156.421        0.079        0.023       33.321        9.825        0.087      332.917        1.892      856.822
12/17/2014  06:44:00        6.105       17.467       -7.178       11.855       12.150        9.323      140.543      147.633       86.915        0.038        0.019       18.503        8.575        0.215      332.889        1.845      856.834
12/17/2014  06:45:00        8.284       56.874       -7.767       10.037       12.817        6.130      100.745      164.276       37.577        0.183        0.015       57.474        6.705        0.014      333.078        2.159      856.849
12/17/2014  06:46:00       -6.699       62.144      -10.888       14.712       12.674        6.236      216.456      160.638       38.893        0.222        0.021       62.504        6.520        0.011      333.225        2.399      856.857
12/17/2014  06:47:00       13.517       56.539       -6.456       12.858       12.421        6.284      165.339      154.282       39.490        0.189        0.018       58.132        5.869        0.010      333.208        2.370      856.867
12/17/2014  06:48:00       10.976       56.201       -8.860       15.531       11.369        6.017      241.199      129.249       36.201        0.188        0.020       57.263        3.217        0.003      333.224        2.397      856.876
12/17/2014  06:49:00       -2.301       45.143       -6.143       14.338       10.711        9.165      205.567      114.716       83.996        0.124        0.020       45.202        7.832        0.030      333.258        2.455      856.883
12/17/2014  06:50:00      -54.421       -0.544       -6.087       22.089       12.001        8.773      487.923      144.023       76.963        0.185        0.035       54.424        7.765        0.020      332.679        1.501      856.898
12/17/2014  06:51:00      -49.053      -16.182      -10.468       16.565       12.391        9.857      274.411      153.526       97.152        0.165        0.026       51.653        5.823        0.013      332.596        1.361      856.903
12/17/2014  06:52:00      -65.573      -18.738       -5.544       27.465       12.689       13.235      754.346      161.018      175.160        0.289        0.055       68.198        4.911        0.005      332.617        1.399      856.915
12/17/2014  06:53:00      -29.719       -1.779       -0.772       13.313        7.870        6.513      177.244       61.933       42.424        0.058        0.014       29.772        4.024        0.018      332.637        1.429      856.921
12/17/2014  06:54:00       -0.051        2.783       -7.037       10.530        9.554        5.180      110.873       91.285       26.834        0.014        0.011        2.784        4.703        2.855      332.872        1.817      856.917
12/17/2014  06:55:00       15.264       -1.479       -1.378        8.259       14.735        6.106       68.210      217.134       37.284        0.028        0.016       15.335        5.037        0.108      333.141        2.264      856.928
12/17/2014  06:56:00       50.549       -3.443        7.379       18.023       11.413       10.609      324.839      130.261      112.556        0.159        0.028       50.666        6.270        0.015      333.381        2.658      856.932
12/17/2014  06:57:00        0.866       -1.277        6.110       14.921       11.631        9.605      222.651      135.280       92.252        0.024        0.023        1.543        5.223       11.457      333.122        2.230      856.947
12/17/2014  06:58:00      -10.591        1.435       -0.075       16.856       16.868       11.330      284.130      284.524      128.369        0.041        0.035       10.688        7.220        0.456      332.982        2.002      856.954
12/17/2014  06:59:00      -49.408      -15.490       -1.847       15.194       15.686       11.971      230.847      246.042      143.308        0.165        0.031       51.779        9.419        0.033      332.951        1.947      856.968
12/17/2014  07:00:00      -77.275      -36.259       -8.600       26.330       16.591       14.070      693.277      275.276      197.977        0.426        0.058       85.359        6.442        0.006      332.669        1.482      857.003
12/17/2014  07:01:00       -8.528      -15.203       -5.920       28.340       14.948        9.470      803.169      223.428       89.690        0.073        0.056       17.432        6.248        0.128      332.616        1.395      857.019
12/17/2014  07:02:00       24.970       45.114        0.533       19.811       15.176       20.964      392.493      230.311      439.484        0.186        0.053       51.563       14.947        0.084      333.266        2.467      857.013
12/17/2014  07:03:00       40.935       50.580       12.224        8.759       17.905       19.981       76.721      320.585      399.226        0.259        0.040       65.069       15.728        0.058      333.269        2.473      857.036
12/17/2014  07:04:00       33.953       68.250       -4.529       16.722       18.432       16.811      279.618      339.753      282.602        0.337        0.045       76.229       14.843        0.038      333.255        2.448      857.051
12/17/2014  07:05:00       28.364       82.663      -12.661       15.520       14.939        8.912      240.885      223.175       79.419        0.417        0.027       87.394        7.643        0.008      333.232        2.411      857.059
12/17/2014  07:06:00       57.903       45.827        3.138       41.659       25.651       24.568     1735.463      657.998      603.608        0.423        0.150       73.844       16.033        0.047      333.025        2.070      857.054
12/17/2014  07:07:00      106.709       43.634       22.451       38.880       33.267       29.804     1511.664     1106.697      888.304        0.865        0.175      115.286       24.843        0.046      332.932        1.918      857.047
12/17/2014  07:08:00       84.795       68.756       35.741       38.662       33.815       37.207     1494.779     1143.459     1384.375        0.861        0.201      109.167       27.507        0.063      332.712        1.553      857.048
12/17/2014  07:09:00       84.769      105.559       67.827       66.709       53.756       50.943     4450.098     2889.758     2595.224        1.643        0.497      135.382       51.840        0.147      332.567        1.311      857.047
12/17/2014  07:10:00      143.213       56.992       18.235       65.172       46.131       31.827     4247.423     2128.093     1012.989        1.574        0.369      154.136       12.932        0.007      332.510        1.219      857.041
12/17/2014  07:11:00      140.308       59.937        7.502       51.573       37.440       29.853     2659.810     1401.724      891.213        1.414        0.248      152.574        8.162        0.003      332.544        1.275      857.034
12/17/2014  07:12:00       54.888       34.846       25.803       51.739       33.158       25.302     2676.875     1099.464      640.193        0.465        0.221       65.015       18.444        0.080      332.503        1.208      857.037
12/17/2014  07:13:00        3.052       -9.193        2.842       19.889       14.690       16.322      395.567      215.805      266.423        0.049        0.044        9.686       13.294        1.884      332.566        1.312      857.064
12/17/2014  07:14:00       40.128       42.764       -0.923       38.011       18.682       11.511     1444.848      349.004      132.496        0.268        0.096       58.643       12.817        0.048      332.635        1.425      857.079
12/17/2014  07:15:00      108.914       68.379       21.201       17.327       25.020       15.845      300.216      625.977      251.063        0.908        0.059      128.600       13.374        0.011      332.662        1.471      857.060
12/17/2014  07:16:00      125.944       80.188       16.330       41.870       24.571       28.008     1753.065      603.731      784.456        1.285        0.157      149.305       17.143        0.013      332.533        1.258      857.055
12/17/2014  07:17:00       41.625       44.831        7.445       56.747       44.216       35.828     3220.274     1955.093     1283.635        0.513        0.323       61.176       28.796        0.222      332.521        1.237      857.088
12/17/2014  07:18:00        3.555       75.708      -16.436       27.917       36.791       14.906      779.365     1353.601      222.188        0.418        0.118       75.791       16.755        0.049      332.640        1.435      857.127
12/17/2014  07:19:00      -15.205       18.320       -0.091       22.598       13.338       11.599      510.689      177.896      134.530        0.069        0.041       23.808        7.056        0.088      332.660        1.468      857.155
12/17/2014  07:20:00       31.725       83.526       -7.441       35.170       27.864       15.783     1236.946      776.412      249.104        0.515        0.113       89.348        8.102        0.008      332.687        1.509      857.165
12/17/2014  07:21:00      161.736       90.559       21.428       35.926       32.064       29.887     1290.707     1028.076      893.221        1.901        0.161      185.363       20.673        0.012      332.696        1.525      857.140
12/17/2014  07:22:00      170.033       66.301       11.720       72.863       55.932       46.503     5308.999     3128.437     2162.570        2.202        0.530      182.502       34.410        0.036      332.688        1.510      857.124
12/17/2014  07:23:00      133.612       83.377       33.239       51.610       39.695       41.428     2663.610     1575.656     1716.243        1.593        0.298      157.493       26.752        0.029      332.647        1.445      857.135
12/17/2014  07:24:00       58.473       74.343       64.713       62.589       49.298       38.516     3917.361     2430.291     1483.520        1.048        0.392       94.583       36.382        0.148      332.680        1.499      857.150
12/17/2014  07:25:00       90.821       76.857       70.954       46.389       37.205       41.942     2151.910     1384.211     1759.145        1.224        0.265      118.976       32.827        0.076      332.694        1.524      857.161
12/17/2014  07:26:00      131.343       63.474       30.014       53.954       37.645       32.429     2911.078     1417.140     1051.627        1.378        0.269      145.877       27.097        0.035      332.646        1.444      857.167
12/17/2014  07:27:00      103.555       56.400       43.549       50.442       40.219       34.276     2544.362     1617.543     1174.862        1.057        0.267      117.918       18.696        0.025      332.642        1.437      857.178
12/17/2014  07:28:00       70.859       43.095       23.911       24.244       27.345       29.866      587.789      747.742      891.966        0.484        0.111       82.935       14.145        0.029      332.625        1.409      857.191
12/17/2014  07:29:00       36.984       12.614       30.553       27.493       26.036       22.801      755.887      677.850      519.893        0.221        0.098       39.076       14.124        0.131      332.605        1.374      857.199
12/17/2014  07:30:00       43.873       29.893       25.490       17.487       12.770       12.784      305.804      163.076      163.433        0.205        0.032       53.089        7.214        0.018      332.581        1.336      857.216
12/17/2014  07:31:00       25.762       25.438        2.631       30.756       22.728       15.593      945.934      516.556      243.127        0.151        0.085       36.205       10.170        0.079      332.611        1.386      857.221
12/17/2014  07:32:00      -11.919       48.544      -12.116       22.327       28.165       13.431      498.498      793.281      180.391        0.206        0.074       49.986       13.136        0.069      332.672        1.488      857.207
12/17/2014  07:33:00       -9.534       14.590       -2.209       21.930       27.564       15.759      480.930      759.794      248.351        0.090        0.074       17.429       17.787        1.042      332.732        1.589      857.204
12/17/2014  07:34:00      -60.651       -7.701      -10.930       23.989       23.345       14.283      575.462      544.982      204.004        0.259        0.066       61.138        3.668        0.004      332.525        1.244      857.198
12/17/2014  07:35:00      -71.763        4.307      -12.612       18.450       10.863        9.595      340.405      118.013       92.057        0.294        0.028       71.892        8.603        0.014      332.621        1.403      857.193
12/17/2014  07:36:00      -64.991        4.886       -8.690       15.489       10.060        8.254      239.900      101.195       68.129        0.237        0.020       65.175        6.769        0.011      332.716        1.561      857.202
12/17/2014  07:37:00      -49.450      -33.329       -3.566        9.615       12.959        7.545       92.449      167.931       56.922        0.194        0.016       59.633        5.739        0.009      332.716        1.559      857.211
12/17/2014  07:38:00       -7.267      -45.021       -5.808       17.086       11.586       11.285      291.942      134.227      127.341        0.133        0.028       45.604        6.761        0.022      332.815        1.723      857.220
12/17/2014  07:39:00       -7.351      -11.063        5.896       14.836       14.735       17.915      220.122      217.121      320.937        0.048        0.038       13.282        5.759        0.188      332.900        1.863      857.227
12/17/2014  07:40:00        7.769      -43.945        1.129       30.927       26.378       21.587      956.474      695.776      466.017        0.206        0.106       44.627       11.306        0.064      332.977        1.990      857.228
12/17/2014  07:41:00      -37.015      -48.558      -19.098       21.148       16.044       10.247      447.242      257.421      104.992        0.245        0.040       61.057        9.603        0.025      333.019        2.059      857.239
12/17/2014  07:42:00      -35.538       12.668       -6.990       19.309       22.867       13.091      372.846      522.890      171.376        0.127        0.053       37.728       10.760        0.081      333.003        2.035      857.238
12/17/2014  07:43:00      -22.472       -9.220       27.977       23.343       25.528       21.271      544.911      651.691      452.469        0.151        0.082       24.290       13.510        0.309      333.017        2.056      857.253
12/17/2014  07:44:00       20.797      -38.653       -5.135       32.355       54.534       25.934     1046.858     2973.937      672.578        0.332        0.235       43.892       27.419        0.390      333.237        2.421      857.269
12/17/2014  07:45:00      -11.978       -8.519       29.581       19.079       35.091       18.920      363.997     1231.407      357.974        0.152        0.098       14.699       16.120        1.203      333.186        2.336      857.275
12/17/2014  07:46:00       10.574      -35.913       10.134       32.235       43.021       23.543     1039.085     1850.769      554.289        0.247        0.172       37.438       27.672        0.546      333.117        2.221      857.296
12/17/2014  07:47:00      -36.577       -7.761       -5.001       26.660       22.813       12.185      710.737      520.450      148.484        0.140        0.069       37.391       14.842        0.158      332.998        2.026      857.319
12/17/2014  07:48:00      -10.039      -23.895        0.414       20.408       16.328       12.591      416.483      266.614      158.535        0.076        0.042       25.918        5.095        0.039      332.996        2.023      857.346
12/17/2014  07:49:00      -15.549      -11.689      -13.607       17.718       25.197        8.118      313.916      634.889       65.895        0.079        0.051       19.453        8.395        0.186      333.112        2.214      857.374
12/17/2014  07:50:00       -2.580      -25.049       -3.566       21.801       27.369       14.432      475.296      749.062      208.287        0.104        0.072       25.181       12.742        0.256      333.147        2.271      857.410
12/17/2014  07:51:00      -19.332      -27.926       -7.705       19.079       22.509       15.066      363.995      506.655      226.992        0.116        0.055       33.964       12.058        0.126      333.203        2.362      857.449
12/17/2014  07:52:00      -50.388       18.059        0.537       34.852       24.232       16.937     1214.629      587.213      286.855        0.248        0.104       53.526       11.948        0.050      333.155        2.285      857.472
12/17/2014  07:53:00       20.140       18.167        8.852       30.557       21.595       27.581      933.705      466.362      760.688        0.149        0.108       27.123       10.940        0.163      333.163        2.297      857.471
12/17/2014  07:54:00       -9.575       17.139        1.411       30.100       19.937       16.794      906.017      397.478      282.043        0.099        0.079       19.632        7.523        0.147      333.129        2.243      857.481
12/17/2014  07:55:00       -6.316       14.192       -7.200       15.354       14.334       14.880      235.738      205.449      221.404        0.048        0.033       15.534       11.490        0.547      333.181        2.327      857.515
12/17/2014  07:56:00        5.917       15.226        3.674       19.397       18.312       14.374      376.257      335.317      206.609        0.060        0.046       16.335       12.485        0.584      333.229        2.406      857.558
12/17/2014  07:57:00       -5.321       57.408      -20.358       25.192       19.577       16.325      634.658      383.260      266.517        0.251        0.064       57.654        9.756        0.029      333.200        2.358      857.577
12/17/2014  07:58:00      -68.333      -14.365       -4.285       33.764       25.980       17.228     1140.037      674.946      296.791        0.350        0.106       69.827       14.081        0.041      333.136        2.254      857.609
12/17/2014  07:59:00      -46.584       -8.997       10.674       29.028       20.441       16.494      842.611      417.837      272.066        0.195        0.077       47.445       16.711        0.124      333.177        2.322      857.624
12/17/2014  08:00:00     -103.141      -50.078       -4.415       18.212       33.921       12.433      331.666     1150.667      154.577        0.740        0.082      114.656       10.724        0.009      333.026        2.072      857.634
12/17/2014  08:01:00      -79.705        9.749      -11.761       25.324       29.029       17.215      641.302      842.710      296.366        0.418        0.089       80.299       12.639        0.025      333.084        2.167      857.618
12/17/2014  08:02:00      -71.981       52.996      -12.249       21.593       28.906       16.202      466.252      835.572      262.502        0.485        0.078       89.385       12.991        0.021      333.173        2.316      857.608
12/17/2014  08:03:00      -59.864       41.873       -1.495       27.233       23.151       16.926      741.618      535.974      286.482        0.345        0.078       73.055       14.831        0.041      333.198        2.356      857.595
12/17/2014  08:04:00        0.227      105.143      -10.480       20.519       20.564       15.563      421.029      422.875      242.202        0.613        0.054      105.143        9.559        0.008      333.251        2.444      857.596
12/17/2014  08:05:00        5.815       78.284       -4.543       19.909       28.160       18.958      396.369      792.972      359.421        0.387        0.077       78.499       17.722        0.051      333.198        2.354      857.586
12/17/2014  08:06:00       -2.607       67.130       -1.359       13.209       33.199       17.541      174.490     1102.159      307.685        0.305        0.079       67.180       20.151        0.090      333.255        2.451      857.600
12/17/2014  08:07:00      -54.673       31.723       -2.656       31.035       22.124       16.144      963.191      489.483      260.630        0.286        0.086       63.210        9.217        0.021      333.321        2.558      857.617
12/17/2014  08:08:00      -54.510       35.911       -0.083       14.855       14.949       15.752      220.682      223.485      248.140        0.248        0.035       65.276        5.330        0.007      333.335        2.582      857.619
12/17/2014  08:09:00      -56.357       11.201       -4.860       19.983       12.149       11.847      399.306      147.594      140.354        0.201        0.034       57.460        9.972        0.030      333.254        2.448      857.617
12/17/2014  08:10:00      -25.264       30.135        0.786       17.697       24.332       12.178      313.199      592.037      148.294        0.130        0.053       39.324       10.555        0.072      333.378        2.654      857.604
12/17/2014  08:11:00        8.196       97.771      -15.159       16.749       18.870       12.542      280.522      356.088      157.307        0.532        0.040       98.114        5.930        0.004      333.403        2.694      857.597
12/17/2014  08:12:00        0.887       91.457      -13.365       15.508       18.278        8.947      240.506      334.088       80.044        0.460        0.033       91.462        5.862        0.004      333.341        2.593      857.589
12/17/2014  08:13:00       -3.600       49.789       -1.752       19.651       17.846       13.460      386.173      318.483      181.175        0.169        0.044       49.919        3.814        0.006      333.619        3.052      857.587
12/17/2014  08:14:00       -9.553       90.845       -9.386       14.722       15.779       12.414      216.737      248.962      154.109        0.453        0.031       91.346       10.329        0.013      333.391        2.674      857.585
12/17/2014  08:15:00       -8.210       80.388       -4.727       23.265       36.365       14.324      541.238     1322.447      205.181        0.431        0.103       80.806        8.580        0.011      333.443        2.762      857.569
12/17/2014  08:16:00       -2.922       71.163       -6.241       10.611       11.584       10.241      112.597      134.188      104.879        0.273        0.018       71.223        4.196        0.003      333.479        2.820      857.547
12/17/2014  08:17:00       -4.732       39.731       -0.556       10.484       17.581       15.343      109.907      309.105      235.402        0.113        0.033       40.012       12.287        0.094      333.678        3.150      857.532
12/17/2014  08:18:00        7.460       -6.555       11.350       10.692        8.146        9.043      114.324       66.359       81.779        0.024        0.013        9.930        6.777        0.466      334.001        3.685      857.519
12/17/2014  08:19:00       -6.975       -1.391        9.462        7.392        3.955        6.206       54.641       15.638       38.512        0.012        0.005        7.112        4.555        0.410      334.185        3.991      857.509
12/17/2014  08:20:00      -15.094       41.319        4.974       39.418       25.891       18.054     1553.744      670.352      325.956        0.225        0.128       43.990       11.539        0.069      333.792        3.339      857.503
12/17/2014  08:21:00       -8.936       43.076        5.715       15.646       32.441       16.170      244.788     1052.446      261.459        0.176        0.078       43.993       15.016        0.117      333.879        3.482      857.498
12/17/2014  08:22:00      -56.284       -3.218       -5.069       21.458       19.953       12.538      460.442      398.109      157.199        0.211        0.051       56.376       10.852        0.037      333.766        3.296      857.506
12/17/2014  08:23:00      -37.934      -38.471       -0.095       50.455       17.844       23.472     2545.743      318.403      550.918        0.317        0.171       54.028       26.878        0.247      333.728        3.233      857.513
12/17/2014  08:24:00      -75.813       -5.518       -9.081       19.767       16.178       13.313      390.717      261.720      177.246        0.334        0.041       76.013       13.864        0.033      333.633        3.075      857.525
12/17/2014  08:25:00      -59.949        6.409       -9.397       22.907       12.502       13.538      524.727      156.307      183.267        0.229        0.043       60.291        8.833        0.021      333.809        3.369      857.542
12/17/2014  08:26:00      -42.352      -22.423       -6.653       12.467        9.714        8.556      155.431       94.363       73.213        0.133        0.016       47.922        4.148        0.007      333.857        3.446      857.547
12/17/2014  08:27:00      -13.603      -15.171        2.972        6.384        7.842        6.760       40.751       61.500       45.700        0.029        0.007       20.376        2.066        0.010      333.993        3.672      857.555
12/17/2014  08:28:00      -10.967       19.342        4.464       16.505       19.279       12.862      272.431      371.698      165.424        0.066        0.040       22.235        9.582        0.186      334.213        4.039      857.553
12/17/2014  08:29:00       34.214       17.943        6.433       29.587       23.895       18.183      875.374      570.974      330.638        0.166        0.089       38.633       10.047        0.068      334.192        4.003      857.543
12/17/2014  08:30:00       79.092       56.309        2.999       35.680       26.769       29.783     1273.053      716.575      887.030        0.616        0.144       97.089       13.096        0.018      334.022        3.721      857.539
12/17/2014  08:31:00      121.066       74.540        2.027       30.051       27.000       24.018      903.069      729.010      576.861        1.121        0.110      142.173       13.640        0.009      333.862        3.455      857.552
12/17/2014  08:32:00      102.855       57.657       11.680       44.897       29.617       32.152     2015.712      877.172     1033.764        0.898        0.196      117.913       21.426        0.033      333.983        3.655      857.564
12/17/2014  08:33:00       55.364       49.604        5.708       47.529       42.896       28.634     2258.960     1840.090      819.906        0.524        0.246       74.335       25.792        0.120      334.123        3.888      857.581
12/17/2014  08:34:00      104.494       83.882       -2.698       46.989       33.378       37.221     2207.977     1114.068     1385.409        1.133        0.235      133.997       18.564        0.019      333.979        3.648      857.596
12/17/2014  08:35:00       61.218       63.802        1.843       42.168       42.163       35.956     1778.120     1777.694     1292.801        0.633        0.242       88.421       27.048        0.094      334.023        3.722      857.613
12/17/2014  08:36:00        8.842       33.847        0.654       31.746       33.574       20.660     1007.829     1127.196      426.846        0.189        0.128       34.983       13.767        0.155      334.175        3.974      857.629
12/17/2014  08:37:00       32.829       57.447        0.999       39.801       32.689       27.993     1584.095     1068.574      783.601        0.391        0.172       66.166       22.063        0.111      334.263        4.119      857.633
12/17/2014  08:38:00      129.721       65.162        5.607       44.527       31.251       31.920     1982.666      976.640     1018.897        1.254        0.199      145.168        9.223        0.004      334.021        3.719      857.625
12/17/2014  08:39:00       77.868       39.276        8.503       40.525       37.266       23.412     1642.271     1388.733      548.123        0.563        0.179       87.212        8.634        0.010      334.257        4.109      857.610
12/17/2014  08:40:00      113.720       63.432       -1.571       35.846       25.620       24.558     1284.933      656.378      603.092        0.975        0.127      130.215       17.208        0.017      334.182        3.986      857.603
12/17/2014  08:41:00       67.365       16.818       15.673       44.860       40.916       29.926     2012.421     1674.156      895.559        0.482        0.229       69.433       21.164        0.093      334.540        4.579      857.605
12/17/2014  08:42:00       19.788       39.153       68.897       46.867       43.818       37.820     2196.503     1920.007     1430.389        0.611        0.277       43.870       29.270        0.445      334.754        4.934      857.610
12/17/2014  08:43:00        5.161       80.719      102.162       31.236       49.532       36.151      975.706     2453.447     1306.892        1.086        0.237       80.883       34.542        0.182      334.571        4.632      857.613
12/17/2014  08:44:00      108.615       97.210       36.527       48.077       39.168       53.540     2311.418     1534.099     2866.496        1.465        0.336      145.763       41.466        0.081      334.203        4.021      857.632
12/17/2014  08:45:00       16.148       33.302       59.341       45.874       51.099       33.267     2104.393     2611.058     1106.686        0.536        0.291       37.010       31.917        0.744      334.526        4.557      857.649
12/17/2014  08:46:00       14.007       27.088       60.305       37.192       47.280       24.995     1383.269     2235.436      624.772        0.440        0.212       30.495       28.791        0.891      334.576        4.640      857.676
12/17/2014  08:47:00       48.738        5.895       19.191       37.812       30.016       28.506     1429.728      900.975      812.575        0.296        0.157       49.093       22.632        0.213      334.352        4.268      857.685
12/17/2014  08:48:00       42.307      -11.099       15.928       40.777       40.857       21.381     1662.735     1669.305      457.144        0.298        0.189       43.739       19.506        0.199      334.466        4.458      857.678
12/17/2014  08:49:00       32.118       -3.968       24.311       48.293       47.988       37.014     2332.256     2302.808     1370.000        0.382        0.300       32.362       38.427        1.410      334.560        4.613      857.676
12/17/2014  08:50:00       51.617      -50.287        4.491       47.023       57.711       48.133     2211.180     3330.593     2316.744        0.653        0.393       72.063       39.558        0.301      334.664        4.787      857.670
12/17/2014  08:51:00       15.510       43.201       76.537       38.673       41.758       27.277     1495.577     1743.757      744.013        0.597        0.199       45.901       17.942        0.153      334.856        5.105      857.698
12/17/2014  08:52:00       32.952       35.870       75.912       37.529       45.946       37.665     1408.402     2110.997     1418.684        0.654        0.247       48.709       28.086        0.332      334.842        5.082      857.717
12/17/2014  08:53:00       11.473       46.336       83.998       46.723       53.152       40.412     2183.000     2825.097     1633.090        0.799        0.332       47.735       43.494        0.830      334.873        5.134      857.728
12/17/2014  08:54:00       23.223      -10.016       47.871       54.615       82.268       42.369     2982.821     6768.084     1795.122        0.724        0.577       25.291       57.372        5.146      334.884        5.151      857.734
12/17/2014  08:55:00       30.202       36.918       81.700       62.957       88.984       60.159     3963.570     7918.150     3619.114        1.222        0.775       47.698       60.807        1.625      334.779        4.976      857.736
12/17/2014  08:56:00       53.223      -29.749       35.533       52.828       70.757       53.876     2790.828     5006.602     2902.656        0.784        0.535       60.972       32.623        0.286      334.776        4.971      857.752
12/17/2014  08:57:00       35.113       27.209       77.152       54.892       68.894       46.438     3013.112     4746.364     2156.476        0.892        0.496       44.421       49.584        1.246      334.776        4.972      857.779
12/17/2014  08:58:00       36.419       35.217       72.602       51.351       57.395       32.558     2636.927     3294.235     1060.016        0.741        0.350       50.662       27.620        0.297      334.658        4.776      857.804
12/17/2014  08:59:00       42.771       43.050       62.346       49.959       48.536       40.016     2495.916     2355.740     1601.285        0.701        0.323       60.685       34.886        0.330      334.587        4.658      857.814
12/17/2014  09:00:00       50.888       -2.616        7.346       81.430       41.114       32.397     6630.818     1690.327     1049.594        0.601        0.469       50.955       38.570        0.573      334.638        4.742      857.813
12/17/2014  09:01:00       38.305      -47.968       15.342       49.969       81.938       46.258     2496.946     6713.777     2139.790        0.767        0.568       61.386       52.224        0.724      334.772        4.964      857.815
12/17/2014  09:02:00      -42.811      -47.421       10.855       32.059       26.268       31.967     1027.776      690.002     1021.907        0.347        0.137       63.887       20.311        0.101      334.660        4.779      857.828
12/17/2014  09:03:00       14.958      -18.483        2.697       38.576       38.612       29.615     1488.078     1490.873      877.062        0.221        0.193       23.777       28.141        1.401      334.816        5.039      857.830
12/17/2014  09:04:00       21.630      -34.898        8.735       34.044       41.798       28.633     1159.016     1747.068      819.876        0.274        0.186       41.058       16.060        0.153      334.887        5.157      857.823
12/17/2014  09:05:00       -4.498        9.615       58.480       16.738       25.861       19.883      280.160      668.782      395.322        0.244        0.067       10.615       17.705        2.782      335.309        5.857      857.824
12/17/2014  09:06:00       -7.119       12.744       44.402       15.596       23.730       14.424      243.223      563.095      208.056        0.160        0.051       14.598        9.168        0.394      335.433        6.063      857.821
12/17/2014  09:07:00      -12.542       10.189       45.234       15.486       31.395       23.162      239.826      985.615      536.471        0.203        0.088       16.159       15.431        0.912      335.332        5.895      857.813
12/17/2014  09:08:00       -6.017      -26.452       19.877       26.155       58.067       46.886      684.102     3371.742     2198.313        0.369        0.313       27.128       49.909        3.385      335.049        5.426      857.810
12/17/2014  09:09:00        2.859        0.542       35.081       28.548       26.520       18.092      814.993      703.306      327.302        0.154        0.092        2.910       17.423       35.861      335.463        6.114      857.796
12/17/2014  09:10:00      -14.792        9.069       34.782       18.197       21.182       16.763      331.148      448.697      281.009        0.129        0.053       17.350       12.243        0.498      335.560        6.275      857.794
12/17/2014  09:11:00       27.391      -47.089       11.430       38.960       47.538       30.728     1517.864     2259.845      944.191        0.391        0.236       54.476       34.350        0.398      335.394        5.999      857.793
12/17/2014  09:12:00       -5.396      -16.113       13.884       66.663       39.143       40.200     4443.920     1532.206     1616.021        0.404        0.380       16.993       37.268        4.810      335.192        5.663      857.790
12/17/2014  09:13:00      -23.483      -47.746        1.407       35.283       31.943       21.642     1244.880     1020.349      468.355        0.278        0.137       53.208       14.606        0.075      335.215        5.702      857.795
12/17/2014  09:14:00        9.544      -15.842       14.697       30.217       36.444       29.486      913.037     1328.198      869.435        0.183        0.156       18.495       20.590        1.239      335.373        5.963      857.793
12/17/2014  09:15:00      -29.622      -49.887       14.197       25.097       34.172       23.340      629.838     1167.741      544.751        0.295        0.117       58.019       14.542        0.063      335.266        5.786      857.801
12/17/2014  09:16:00        7.270       11.586       41.271       32.222       31.833       27.323     1038.277     1013.308      746.521        0.234        0.140       13.678       23.781        3.023      335.645        6.417      857.800
12/17/2014  09:17:00       21.500       52.376       72.443       25.347       30.702       17.876      642.491      942.634      319.547        0.518        0.095       56.618       18.042        0.102      335.395        6.000      857.810
12/17/2014  09:18:00       29.168      -33.447       38.428       32.916       68.981       25.379     1083.433     4758.347      644.104        0.496        0.324       44.379       35.245        0.631      335.441        6.078      857.819
12/17/2014  09:19:00      124.795       76.261       58.731       70.649       53.469       44.585     4991.267     2858.907     1987.781        1.734        0.492      146.251       41.179        0.079      335.069        5.457      857.837
12/17/2014  09:20:00       87.431       79.346       64.367       75.626       47.005       39.047     5719.347     2209.464     1524.629        1.377        0.473      118.068       36.908        0.098      335.052        5.429      857.866
12/17/2014  09:21:00       39.932       42.261       91.506       54.650       52.657       36.815     2986.621     2772.738     1355.316        0.943        0.356       58.143       35.104        0.365      335.412        6.030      857.880
12/17/2014  09:22:00       36.521       74.061       72.053       55.035       38.345       39.499     3028.812     1470.342     1560.200        0.903        0.303       82.577       32.834        0.158      335.170        5.627      857.896
12/17/2014  09:23:00       64.536       41.960       22.775       37.707       32.337       34.053     1421.838     1045.691     1159.638        0.503        0.181       76.977        9.244        0.014      335.073        5.465      857.899
12/17/2014  09:24:00      105.937       82.398       30.414       47.673       36.652       40.993     2272.691     1343.404     1680.458        1.212        0.265      134.209       23.009        0.029      335.167        5.622      857.903
12/17/2014  09:25:00       59.528       87.444       63.527       49.228       57.873       42.902     2423.409     3349.335     1840.576        1.142        0.381      105.783       27.222        0.066      335.529        6.222      857.910
12/17/2014  09:26:00      109.922       96.111       28.021       62.559       58.885       56.518     3913.619     3467.502     3194.313        1.634        0.529      146.014       40.235        0.076      335.114        5.533      857.940
12/17/2014  09:27:00      151.514      104.588       15.278       49.615       46.046       48.987     2461.620     2120.208     2399.739        2.055        0.349      184.106       24.885        0.018      334.978        5.306      857.949
12/17/2014  09:28:00      167.109      126.875       18.783       56.804       50.220       37.622     3226.679     2522.087     1415.413        2.577        0.358      209.816       32.887        0.025      334.893        5.163      857.957
12/17/2014  09:29:00      173.741       74.683       14.381       70.310       52.022       49.482     4943.547     2706.297     2448.435        2.303        0.505      189.112       31.880        0.028      334.923        5.214      857.963
12/17/2014  09:30:00      162.769       98.196       22.126       48.490       47.302       44.988     2351.317     2237.510     2023.897        2.162        0.331      190.096       25.615        0.018      334.871        5.128      857.966
12/17/2014  09:31:00      100.368       92.597        6.819       65.959       44.651       45.835     4350.533     1993.699     2100.862        1.357        0.422      136.558       28.286        0.043      335.096        5.502      857.969
12/17/2014  09:32:00       53.000       58.185        9.327       49.200       44.235       35.119     2420.680     1956.708     1233.356        0.594        0.281       78.705       26.220        0.111      335.286        5.818      857.976
12/17/2014  09:33:00       50.879       50.867       35.429       42.833       36.144       34.867     1834.645     1306.411     1215.690        0.539        0.218       71.946       31.179        0.188      335.614        6.365      857.979
12/17/2014  09:34:00       33.768       75.831       87.455       57.230       61.331       45.160     3275.319     3761.536     2039.465        1.181        0.454       83.010       48.508        0.341      335.389        5.990      857.981
12/17/2014  09:35:00       66.218       66.025       68.467       56.077       52.708       45.603     3144.668     2778.111     2079.647        1.072        0.400       93.510       32.657        0.122      335.289        5.824      857.987
12/17/2014  09:36:00       31.702       91.981      111.675       59.217       57.702       36.374     3506.655     3329.520     1323.034        1.505        0.408       97.291       39.050        0.161      335.252        5.762      857.988
12/17/2014  09:37:00       57.326      102.340       77.045       63.983       39.453       50.596     4093.772     1556.532     2559.998        1.395        0.411      117.302       47.670        0.165      335.214        5.700      858.005
12/17/2014  09:38:00       83.374       98.356       34.778       54.465       40.962       46.831     2966.405     1677.868     2193.138        1.233        0.342      128.938       21.958        0.029      334.999        5.342      858.020
12/17/2014  09:39:00       71.284       64.298       19.342       44.505       33.745       30.552     1980.654     1138.697      933.436        0.682        0.203       95.998       30.666        0.102      335.275        5.800      858.018
12/17/2014  09:40:00       32.226       58.439       54.557       44.801       34.113       30.028     2007.086     1163.727      901.659        0.575        0.204       66.736       27.969        0.176      335.568        6.289      858.025
12/17/2014  09:41:00       -8.005      -44.020       27.905       43.831       63.073       30.497     1921.165     3978.251      930.047        0.480        0.341       44.741       33.576        0.563      335.426        6.053      858.025
12/17/2014  09:42:00        8.433      -55.589       28.097       34.069       62.910       26.463     1160.719     3957.690      700.270        0.488        0.291       56.225       31.240        0.309      335.704        6.517      858.024
12/17/2014  09:43:00       56.451      -35.172       23.914       49.257       54.893       40.265     2426.205     3013.214     1621.256        0.603        0.353       66.511       42.025        0.399      335.419        6.041      858.025
12/17/2014  09:44:00       21.746       45.251       64.013       33.499       37.459       21.918     1122.150     1403.197      480.378        0.481        0.150       50.205       19.564        0.152      335.471        6.127      858.021
12/17/2014  09:45:00       54.694       65.957       58.557       60.978       41.422       49.072     3718.283     1715.809     2408.085        0.930        0.392       85.684       33.318        0.151      335.551        6.260      858.014
12/17/2014  09:46:00       -1.151       31.025       57.957       26.507       52.506       37.574      702.601     2756.838     1411.833        0.460        0.244       31.046       29.279        0.889      335.804        6.681      858.008
12/17/2014  09:47:00       30.004       10.031       38.099       35.650       43.869       30.747     1270.897     1924.464      945.357        0.330        0.207       31.636       16.995        0.289      335.953        6.930      858.022
12/17/2014  09:48:00        6.657      -59.424        7.695       37.168       47.546       35.459     1381.456     2260.665     1257.337        0.427        0.245       59.796       33.902        0.321      335.703        6.515      858.013
12/17/2014  09:49:00       40.035       76.585       72.710       56.406       42.708       25.798     3181.669     1823.970      665.551        0.921        0.284       86.418       15.364        0.032      335.713        6.530      858.023
12/17/2014  09:50:00       18.364       -4.461       34.874       32.488       58.607       29.088     1055.482     3434.749      846.094        0.345        0.267       18.898       34.825        3.396      335.748        6.588      858.039
12/17/2014  09:51:00       29.818       -6.198       21.102       42.861       47.091       38.137     1837.026     2217.568     1454.409        0.344        0.275       30.455       31.158        1.047      335.803        6.680      858.053
12/17/2014  09:52:00       -8.810       11.863       51.857       22.534       54.014       38.702      507.785     2917.488     1497.872        0.391        0.246       14.777       38.043        6.628      335.929        6.889      858.064
12/17/2014  09:53:00       17.623       46.314       60.073       38.542       56.222       35.991     1485.523     3160.933     1295.349        0.600        0.297       49.553       29.285        0.349      335.805        6.684      858.071
12/17/2014  09:54:00       34.521      -48.784       15.914       21.103       34.450       22.024      445.324     1186.812      485.050        0.297        0.106       59.763       13.762        0.053      335.900        6.843      858.079
12/17/2014  09:55:00       13.858       40.920       44.317       26.350       26.688       17.435      694.333      712.248      303.972        0.277        0.086       43.203       11.381        0.069      335.994        6.998      858.083
12/17/2014  09:56:00       -0.306       35.344       54.557       22.805       39.481       24.155      520.086     1558.748      583.470        0.344        0.133       35.345       23.359        0.437      336.258        7.440      858.094
12/17/2014  09:57:00       85.855       98.394       74.697       47.839       37.503       41.925     2288.599     1406.504     1757.714        1.404        0.273      130.585       34.685        0.071      335.543        6.246      858.096
12/17/2014  09:58:00       93.280       66.655        5.660       35.755       31.368       31.225     1278.406      983.929      975.017        0.821        0.162      114.647       18.154        0.025      335.535        6.233      858.112
12/17/2014  09:59:00       18.141       51.297      -19.253       37.475       28.358       17.857     1404.383      804.200      318.886        0.293        0.126       54.411       11.308        0.043      335.461        6.110      858.118
12/17/2014  10:00:00       54.723       82.677        8.717       53.376       37.871       31.133     2848.957     1434.234      969.274        0.758        0.263       99.147       26.276        0.070      335.542        6.245      858.132
12/17/2014  10:01:00      111.453       69.975       16.266       71.245       47.848       42.927     5075.890     2289.409     1842.763        1.339        0.460      131.599       28.784        0.048      335.670        6.459      858.132
12/17/2014  10:02:00       88.405       72.149       81.977       69.386       48.407       46.308     4814.359     2343.194     2144.436        1.452        0.465      114.109       39.795        0.122      335.993        6.995      858.132
12/17/2014  10:03:00       50.800       61.928       81.864       58.349       75.622       55.933     3404.551     5718.627     3128.492        1.268        0.613       80.098       53.507        0.446      335.911        6.860      858.137
12/17/2014  10:04:00       55.878      -20.451       38.191       67.991      102.708       72.804     4622.791    10549.008     5300.462        1.273        1.024       59.503       77.812        1.710      335.996        7.001      858.144
12/17/2014  10:05:00       82.368      -90.600      -14.947       58.778       69.943       44.347     3454.884     4891.975     1966.690        1.276        0.516      122.445       40.590        0.110      335.855        6.766      858.151
12/17/2014  10:06:00      -15.148       42.111       71.972       29.940       48.280       37.868      896.387     2330.982     1434.003        0.592        0.233       44.753       34.732        0.602      336.152        7.263      858.136
12/17/2014  10:07:00       80.417       88.371       60.360       41.864       36.377       38.112     1752.557     1323.278     1452.560        1.122        0.226      119.483       22.287        0.035      335.826        6.719      858.137
12/17/2014  10:08:00       -0.249       39.490       78.059       22.872       41.519       21.479      523.134     1723.795      461.335        0.518        0.135       39.491       13.732        0.121      336.591        7.996      858.121
12/17/2014  10:09:00       82.177      122.572      113.964       85.384       71.167       60.819     7290.379     5064.724     3699.004        2.541        0.803      147.570       60.880        0.170      335.881        6.809      858.123
12/17/2014  10:10:00       27.735      105.327      114.156       62.805       50.263       37.033     3944.427     2526.378     1371.466        1.637        0.392      108.918       32.936        0.091      336.022        7.044      858.122
12/17/2014  10:11:00       78.788      113.383       91.131       49.610       47.200       47.736     2461.201     2227.842     2278.746        1.717        0.348      138.069       32.553        0.056      335.904        6.847      858.137
12/17/2014  10:12:00       85.210       95.526       62.987       66.957       53.711       43.950     4483.268     2884.886     1931.635        1.482        0.465      128.008       32.296        0.064      335.785        6.648      858.151
12/17/2014  10:13:00       -4.378       93.777      106.329       27.967       43.273       35.423      782.176     1872.593     1254.803        1.201        0.195       93.879       28.125        0.090      335.870        6.791      858.160
12/17/2014  10:14:00       55.615       80.895       73.940       90.799       48.979       56.166     8244.378     2398.967     3154.623        1.445        0.690       98.169       49.185        0.251      335.940        6.908      858.158
12/17/2014  10:15:00      114.224       81.185       24.306       75.913       57.407       59.700     5762.790     3295.603     3564.123        1.642        0.631      140.136       43.456        0.096      335.843        6.746      858.166
12/17/2014  10:16:00      104.670       84.242       40.978       63.860       66.650       49.121     4078.114     4442.267     2412.920        1.533        0.547      134.359       34.686        0.067      336.101        7.176      858.177
12/17/2014  10:17:00       96.965       79.883       25.989       42.261       26.720       34.315     1785.963      713.934     1177.531        1.007        0.184      125.632       16.556        0.017      335.958        6.938      858.191
12/17/2014  10:18:00       26.162       96.544      120.870       46.842       55.296       41.793     2194.163     3057.699     1746.684        1.581        0.350      100.026       33.011        0.109      336.125        7.216      858.186
12/17/2014  10:19:00       37.297       96.827      116.904       58.870       47.285       32.503     3465.631     2235.835     1056.466        1.559        0.338      103.762       29.661        0.082      336.025        7.049      858.195
12/17/2014  10:20:00      115.338      121.611       85.106       75.131       44.374       43.101     5644.635     1969.051     1857.671        2.240        0.474      167.607       40.221        0.058      335.993        6.994      858.219
12/17/2014  10:21:00       40.552       39.360       51.462       58.753       48.411       46.138     3451.896     2343.586     2128.683        0.688        0.396       56.513       29.305        0.269      336.251        7.427      858.231
12/17/2014  10:22:00       58.416       70.192       15.656       64.866       52.486       45.497     4207.650     2754.822     2069.955        0.881        0.452       91.320       32.914        0.130      336.105        7.185      858.246
12/17/2014  10:23:00        3.017       37.024       66.794       60.949       53.735       48.333     3714.774     2887.442     2336.126        0.739        0.447       37.147       42.417        1.304      336.260        7.443      858.245
12/17/2014  10:24:00      114.402       75.051       14.835       64.337       37.993       41.835     4139.213     1443.496     1750.187        1.314        0.367      136.822       40.339        0.087      335.835        6.734      858.258
12/17/2014  10:25:00      104.045       92.966       31.017       60.061       36.905       37.148     3607.267     1361.994     1379.980        1.339        0.317      139.528       29.600        0.045      335.666        6.451      858.259
12/17/2014  10:26:00       81.006       57.337       10.148       52.233       40.575       38.451     2728.293     1646.294     1478.490        0.790        0.293       99.245       30.900        0.097      335.808        6.690      858.241
12/17/2014  10:27:00       21.845       37.561       14.942       40.888       32.620       32.335     1671.846     1064.067     1045.524        0.295        0.189       43.451       20.468        0.222      336.238        7.406      858.219
12/17/2014  10:28:00       82.548       49.947       12.288       80.348       69.449       53.340     6455.722     4823.184     2845.124        1.179        0.706       96.482       38.474        0.159      336.313        7.531      858.184
12/17/2014  10:29:00      185.320      125.530       55.647       57.251       52.004       59.581     3277.673     2704.366     3549.918        3.136        0.477      223.833       36.465        0.027      335.844        6.744      858.186
12/17/2014  10:30:00      150.382      102.635       45.736       42.275       35.406       39.970     1787.208     1253.567     1597.579        1.994        0.232      182.068       20.593        0.013      335.884        6.814      858.198
12/17/2014  10:31:00      151.928       78.712       38.165       40.328       28.265       33.064     1626.366      798.896     1093.233        1.713        0.176      171.107        6.574        0.001      335.698        6.504      858.204
12/17/2014  10:32:00      111.702       75.301       19.651       49.888       39.381       34.096     2488.826     1550.898     1162.549        1.187        0.260      134.713       24.581        0.033      335.658        6.440      858.208
12/17/2014  10:33:00      130.707       87.700       20.769       53.394       34.789       49.434     2850.876     1210.271     2443.742        1.585        0.325      157.403       25.208        0.026      335.800        6.676      858.197
12/17/2014  10:34:00        4.130       96.951      119.811       42.739       76.717       59.112     1826.660     5885.509     3494.275        1.749        0.560       97.038       57.688        0.353      336.246        7.419      858.193
12/17/2014  10:35:00       78.615      119.485      115.026       67.082       84.766       51.397     4499.990     7185.198     2641.673        2.400        0.716      143.028       43.931        0.094      335.746        6.583      858.195
12/17/2014  10:36:00      143.197      111.000       82.780       84.093       62.493       59.108     7071.676     3905.345     3493.792        2.707        0.724      181.180       48.272        0.071      335.833        6.727      858.184
12/17/2014  10:37:00       89.681      123.875      105.060      107.691       63.385       56.083    11597.379     4017.685     3145.277        2.659        0.938      152.930       48.180        0.099      335.941        6.908      858.182
12/17/2014  10:38:00       61.729       75.730       88.491       54.812       53.294       40.746     3004.372     2840.269     1660.219        1.244        0.375       97.701       32.717        0.112      335.900        6.842      858.182
12/17/2014  10:39:00       95.892       45.175       34.280       70.404       48.623       40.682     4956.764     2364.200     1655.025        1.069        0.449      106.000       32.419        0.094      335.865        6.783      858.174
12/17/2014  10:40:00       49.298       28.017       64.704       65.047      130.971       74.813     4231.084    17153.344     5596.998        1.719        1.349       56.703       84.810        2.237      336.162        7.277      858.158
12/17/2014  10:41:00      108.198      -64.511       36.376      112.431      100.705       72.239    12640.655    10141.576     5218.451        2.259        1.400      125.970       84.361        0.448      336.196        7.334      858.152
12/17/2014  10:42:00      133.428      -79.422       16.092       92.352       89.753       75.415     8528.873     8055.653     5687.375        2.332        1.114      155.277       79.932        0.265      336.061        7.109      858.159
12/17/2014  10:43:00       88.054      -75.724       32.882       77.167      158.589       91.430     5954.748    25150.478     8359.446        2.701        1.973      116.136      111.073        0.915      336.051        7.091      858.166
12/17/2014  10:44:00       64.779       95.543      115.014       73.347       65.967       53.225     5379.768     4351.589     2832.897        1.956        0.628      115.433       50.877        0.194      336.124        7.214      858.169
12/17/2014  10:45:00       78.347      106.709      109.160       68.087       68.903       55.183     4635.895     4747.590     3045.200        2.093        0.621      132.382       41.083        0.096      336.174        7.297      858.180
12/17/2014  10:46:00       87.161       78.313       62.262       95.909       73.069       59.990     9198.584     5339.100     3598.800        1.787        0.907      117.175       54.814        0.219      336.156        7.268      858.168
12/17/2014  10:47:00      104.883       43.037       39.818       76.934       54.764       45.057     5918.813     2999.095     2030.106        1.269        0.547      113.369       39.887        0.124      336.187        7.321      858.162
12/17/2014  10:48:00       68.059       58.967       59.713       68.186       51.489       49.893     4649.341     2651.076     2489.289        1.073        0.489       90.051       33.510        0.138      336.258        7.439      858.166
12/17/2014  10:49:00       94.847      116.685      101.161       73.928       59.509       53.850     5465.326     3541.368     2899.841        2.237        0.595      150.370       38.061        0.064      336.192        7.325      858.161
12/17/2014  10:50:00       74.727      101.158       77.971       86.653       51.494       45.344     7508.658     2651.599     2056.112        1.705        0.611      125.766       44.736        0.127      336.252        7.429      858.154
12/17/2014  10:51:00      135.299      116.466       89.197       75.443       60.672       84.696     5691.582     3681.115     7173.405        2.818        0.827      178.522       66.724        0.140      336.190        7.323      858.156
12/17/2014  10:52:00      147.446      113.988       76.801       73.508       61.543       52.267     5403.494     3787.538     2731.849        2.628        0.596      186.369       32.164        0.030      336.062        7.110      858.153
12/17/2014  10:53:00       66.809       85.600       99.370       62.131       52.570       43.389     3860.210     2763.653     1882.621        1.508        0.425      108.586       33.663        0.096      336.163        7.281      858.144
12/17/2014  10:54:00       58.324       85.388      109.239       75.187       64.365       44.586     5653.133     4142.808     1987.924        1.720        0.589      103.406       49.778        0.232      336.164        7.280      858.123
12/17/2014  10:55:00      127.398      103.980       82.555       91.089       58.512       62.212     8297.184     3423.637     3870.327        2.472        0.780      164.445       47.275        0.083      336.144        7.246      858.108
12/17/2014  10:56:00      142.237      118.078       76.408       74.689       65.125       64.963     5578.509     4241.245     4220.148        2.702        0.702      184.862       46.006        0.062      336.031        7.057      858.105
12/17/2014  10:57:00       43.493       90.781       91.583       71.585       54.505       37.920     5124.437     2970.833     1437.907        1.402        0.477      100.662       39.702        0.156      336.489        7.826      858.096
12/17/2014  10:58:00       13.973       38.417       45.929       36.605       44.128       34.326     1339.929     1947.316     1178.255        0.412        0.223       40.879       21.832        0.285      336.803        8.352      858.073
12/17/2014  10:59:00       39.644      -43.565        6.344       46.989       83.194       36.869     2207.971     6921.191     1359.320        0.700        0.524       58.903       40.044        0.462      336.522        7.880      858.044
12/17/2014  11:00:00       34.795      -55.293       18.275       39.465       71.987       33.194     1557.463     5182.102     1101.841        0.622        0.392       65.330       33.573        0.264      336.697        8.172      858.030
12/17/2014  11:01:00       25.185      -11.260       49.994       41.901       65.762       41.761     1755.660     4324.695     1743.959        0.554        0.391       27.587       33.816        1.502      336.777        8.307      858.015
12/17/2014  11:02:00        1.715       11.662       53.370       23.289       49.670       23.726      542.361     2467.070      562.905        0.328        0.179       11.787       25.008        4.501      336.823        8.384      858.007
12/17/2014  11:03:00       25.427      -21.877       50.716       37.915       87.311       45.943     1437.561     7623.172     2110.787        0.743        0.559       33.543       55.156        2.704      336.743        8.250      857.987
12/17/2014  11:04:00       49.082       -6.360       83.763       71.682      116.692       63.738     5138.288    13617.103     4062.586        1.614        1.141       49.493       74.689        2.277      336.497        7.838      857.961
12/17/2014  11:05:00       85.948     -131.473      -17.150       54.071       72.098       40.771     2923.705     5198.171     1662.260        1.737        0.489      157.074       28.005        0.032      336.026        7.052      857.962
12/17/2014  11:06:00       76.594     -108.213      -18.696       31.339       42.272       26.200      982.131     1786.913      686.440        1.069        0.173      132.577       20.466        0.024      336.045        7.083      857.965
12/17/2014  11:07:00       54.710      -77.824      -22.860       41.870       58.860       24.973     1753.134     3464.492      623.636        0.771        0.292       95.131       26.334        0.077      336.145        7.249      857.957
12/17/2014  11:08:00       82.238       65.300       39.824       38.714       29.648       36.008     1498.761      879.023     1296.584        0.814        0.184      105.010       23.424        0.050      336.143        7.246      857.961
12/17/2014  11:09:00      113.777       65.607        7.920       36.141       46.402       34.629     1306.196     2153.162     1199.164        1.098        0.233      131.337       10.397        0.006      336.059        7.106      857.947
12/17/2014  11:10:00       87.232       79.400       21.969       38.394       32.132       38.629     1474.077     1032.486     1492.168        0.920        0.200      117.957       23.789        0.041      336.078        7.138      857.914
12/17/2014  11:11:00       61.634       64.196       38.414       33.877       26.100       27.553     1147.631      681.227      759.179        0.599        0.129       88.994       24.206        0.074      336.176        7.302      857.902
12/17/2014  11:12:00       -5.943       21.846       60.613       22.296       43.819       35.734      497.094     1920.113     1276.941        0.394        0.185       22.640       34.268        2.291      336.643        8.082      857.895
12/17/2014  11:13:00       38.177     -102.416        1.338       53.080       56.907       29.681     2817.536     3238.421      880.984        0.944        0.347      109.300       20.564        0.035      336.295        7.503      857.905
12/17/2014  11:14:00       67.581     -161.331      -21.951       62.485       56.298       34.571     3904.408     3169.474     1195.175        1.967        0.413      174.914       25.853        0.022      336.355        7.599      857.900
12/17/2014  11:15:00       -5.304      -56.666       13.179       42.533       62.145       33.831     1809.062     3862.061     1144.542        0.511        0.341       56.914       34.592        0.369      336.494        7.834      857.896
12/17/2014  11:16:00       31.440      -36.119       53.832       65.197       58.225       55.785     4250.635     3390.191     3112.002        0.797        0.538       47.886       43.065        0.809      336.469        7.792      857.902
12/17/2014  11:17:00      103.877      -24.170       16.538       50.764       38.021       34.986     2576.984     1445.576     1224.039        0.845        0.262      106.652       33.667        0.100      336.098        7.171      857.926
12/17/2014  11:18:00       42.109       51.506       44.994       43.224       39.574       49.083     1868.293     1566.102     2409.127        0.615        0.292       66.528       33.738        0.257      336.137        7.238      857.917
12/17/2014  11:19:00       46.403       54.188       48.134       41.592       28.739       25.825     1729.860      825.945      666.939        0.531        0.161       71.341       25.339        0.126      336.228        7.390      857.911
12/17/2014  11:20:00       97.070       70.113       18.755       35.918       31.527       25.697     1290.092      993.941      660.360        0.882        0.147      119.743       25.101        0.044      336.069        7.122      857.900
12/17/2014  11:21:00       84.842       73.657       32.035       37.613       27.089       27.223     1414.720      733.814      741.068        0.827        0.144      112.355       13.976        0.015      336.205        7.350      857.881
12/17/2014  11:22:00       52.854       89.267       73.123       58.952       45.840       47.048     3475.392     2101.321     2213.528        1.195        0.390      103.741       39.554        0.145      336.253        7.429      857.860
12/17/2014  11:23:00       53.753       93.362       78.571       46.837       33.982       35.290     2193.683     1154.809     1245.410        1.119        0.230      107.731       27.978        0.067      336.163        7.280      857.842
12/17/2014  11:24:00       65.906       42.585       26.306       43.267       43.905       26.807     1872.017     1927.650      718.593        0.568        0.226       78.467       19.588        0.062      336.069        7.122      857.845
12/17/2014  11:25:00       88.995       54.038        9.226       35.282       27.837       21.391     1244.810      774.906      457.576        0.670        0.124      104.116       15.415        0.022      336.062        7.111      857.838
12/17/2014  11:26:00       58.483       54.810       15.480       43.574       43.363       32.503     1898.677     1880.362     1056.453        0.575        0.242       80.153       24.146        0.091      336.236        7.401      857.819
12/17/2014  11:27:00       50.443       69.355       70.824       55.129       55.899       41.101     3039.216     3124.679     1689.307        1.011        0.393       85.759       38.865        0.205      336.493        7.833      857.798
12/17/2014  11:28:00       -1.809       11.547       20.421       53.421       52.471       48.256     2853.760     2753.217     2328.637        0.424        0.397       11.687       20.335        3.027      336.514        7.866      857.782
12/17/2014  11:29:00      -41.579      -39.389       21.801       52.458       60.360       38.811     2751.809     3643.304     1506.317        0.583        0.395       57.274       26.644        0.216      336.661        8.113      857.771
12/17/2014  11:30:00       16.389      -43.548       51.911       41.522       76.998       50.614     1724.062     5928.766     2561.817        0.754        0.511       46.530       55.878        1.442      336.756        8.271      857.753
12/17/2014  11:31:00      115.984       96.369       65.289       61.382       47.260       49.441     3767.742     2233.536     2444.364        1.772        0.422      150.795       39.384        0.068      336.230        7.392      857.732
12/17/2014  11:32:00       23.442       19.671       64.356       58.370       87.570       63.850     3407.092     7668.526     4076.797        1.011        0.758       30.602       58.266        3.625      336.635        8.068      857.722
12/17/2014  11:33:00      114.867      -57.699       33.854       60.449      119.547       71.315     3654.073    14291.372     5085.767        2.035        1.152      128.544       83.511        0.422      336.501        7.843      857.724
12/17/2014  11:34:00       55.781       -8.953       25.661       43.409       42.967       35.738     1884.366     1846.146     1277.231        0.443        0.250       56.495       34.432        0.371      336.554        7.933      857.723
12/17/2014  11:35:00       -6.276      -48.428       12.370       26.205       52.074       26.899      686.688     2711.742      723.531        0.333        0.206       48.832       22.793        0.218      336.867        8.457      857.694
12/17/2014  11:36:00       59.571      -88.017       -4.543       59.347       40.337       31.732     3522.088     1627.094     1006.911        0.874        0.308      106.281       21.216        0.040      336.609        8.027      857.690
12/17/2014  11:37:00       10.946       13.550       13.100       45.207       21.725       32.745     2043.684      471.984     1072.246        0.203        0.179       17.419       30.113        2.989      336.620        8.044      857.691
12/17/2014  11:38:00      -55.596       15.688      -16.073       24.578       43.151       15.265      604.071     1862.005      233.021        0.315        0.135       57.767       15.903        0.076      336.569        7.960      857.668
12/17/2014  11:39:00      -38.008      -29.699        6.790       35.475       29.845       26.414     1258.447      890.709      697.701        0.261        0.142       48.235       20.986        0.189      336.776        8.305      857.645
12/17/2014  11:40:00      -49.745      -31.618       14.900       41.015       27.884       32.077     1682.219      777.494     1028.945        0.359        0.174       58.943       20.293        0.119      336.575        7.968      857.621
12/17/2014  11:41:00      -55.104      -40.245       -4.733       48.343       29.007       22.383     2337.001      841.403      501.014        0.418        0.184       68.236       22.675        0.110      336.488        7.824      857.594
12/17/2014  11:42:00      -31.604      -20.575       13.321       41.966       34.742       27.907     1761.121     1206.992      778.809        0.267        0.187       37.711       25.336        0.451      336.828        8.393      857.576
12/17/2014  11:43:00       32.623     -110.874      -13.171       50.834       65.296       38.718     2584.126     4263.576     1499.045        1.094        0.417      115.574       38.565        0.111      336.876        8.471      857.559
12/17/2014  11:44:00       38.834      -26.447        1.515       39.543       42.479       40.691     1563.630     1804.449     1655.746        0.362        0.251       46.985       27.141        0.334      336.766        8.288      857.557
12/17/2014  11:45:00        4.878       33.639       53.465       54.222       62.553       57.345     2940.024     3912.817     3288.477        0.708        0.507       33.991       33.145        0.951      336.865        8.455      857.548
12/17/2014  11:46:00      -20.631       20.601       64.803       20.376       37.256       39.770      415.162     1387.980     1581.671        0.422        0.169       29.155       32.549        1.246      337.060        8.779      857.543
12/17/2014  11:47:00       19.821       -6.585       24.685       54.101       42.445       30.913     2926.873     1801.595      955.632        0.336        0.284       20.886       17.986        0.742      337.008        8.693      857.525
12/17/2014  11:48:00       -0.708        0.928       46.807       38.764       53.497       32.663     1502.619     2861.906     1066.881        0.381        0.272        1.167       25.708      485.426      336.885        8.487      857.520
12/17/2014  11:49:00       53.105      -75.688       -4.511       44.314       63.917       24.184     1963.734     4085.422      584.858        0.760        0.332       92.460       12.770        0.019      336.443        7.747      857.516
12/17/2014  11:50:00      -33.943       14.744       -0.527       30.019       33.082       16.908      901.163     1094.450      285.864        0.183        0.114       37.007       12.072        0.106      336.823        8.384      857.516
12/17/2014  11:51:00       -8.226       22.777       37.565       24.987       31.773       24.266      624.333     1009.554      588.853        0.211        0.111       24.217       26.385        1.187      337.231        9.066      857.511
12/17/2014  11:52:00       23.533       23.373       32.656       37.234       37.827       33.505     1386.346     1430.876     1122.599        0.305        0.197       33.168       32.827        0.980      336.792        8.332      857.517
12/17/2014  11:53:00       25.959       57.509       15.245       22.434       16.822       26.693      503.295      282.966      712.502        0.286        0.075       63.096        8.632        0.019      336.523        7.882      857.516
12/17/2014  11:54:00      -53.171       50.563       11.348       55.225       28.835       26.710     3049.789      831.433      713.404        0.505        0.230       73.374       17.366        0.056      336.804        8.351      857.500
12/17/2014  11:55:00      -58.701       26.407       -2.498       40.536       24.902       30.547     1643.184      620.121      933.103        0.367        0.160       64.368       22.609        0.123      336.802        8.348      857.495
12/17/2014  11:56:00      -85.912       -5.286        3.806       53.956       31.612       21.141     2911.205      999.311      446.937        0.589        0.218       86.075       22.101        0.066      336.856        8.440      857.490
12/17/2014  11:57:00     -125.392      -43.911       -6.128       63.389       59.164       33.785     4018.209     3500.390     1141.432        1.317        0.433      132.858       18.183        0.019      336.755        8.270      857.483
12/17/2014  11:58:00     -142.441      -59.061        8.057       65.498       59.959       36.302     4289.935     3595.026     1317.834        1.652        0.460      154.200       34.888        0.051      336.552        7.930      857.458
12/17/2014  11:59:00     -192.788      -69.389      -13.512      102.120       81.859       41.251    10428.583     6700.856     1701.613        3.049        0.942      204.895       39.758        0.038      336.580        7.975      857.429
12/17/2014  12:00:00     -184.234      -67.416        0.786      107.377       94.483       54.219    11529.760     8927.129     2939.669        3.094        1.170      196.181       38.499        0.039      336.690        8.160      857.401
12/17/2014  12:01:00      -42.943      -42.431       30.351       78.435       77.360       54.901     6152.102     5984.515     3014.121        0.986        0.758       60.369       51.359        0.724      336.854        8.434      857.392
12/17/2014  12:02:00     -143.878     -131.579        0.366      105.530       76.075       55.138    11136.548     5787.431     3040.251        2.899        0.998      194.971       54.126        0.077      336.599        8.007      857.374
12/17/2014  12:03:00     -113.089      -18.623       16.440      102.795       63.231       50.518    10566.854     3998.197     2552.051        1.526        0.856      114.613       51.703        0.204      336.898        8.507      857.372
12/17/2014  12:04:00      -91.766      -11.468        8.652       86.115       67.574       33.659     7415.753     4566.218     1132.950        1.087        0.656       92.480       40.375        0.191      336.733        8.232      857.366
12/17/2014  12:05:00     -124.219     -103.826       -8.907       53.640       64.991       28.899     2877.216     4223.848      835.170        1.711        0.397      161.896       26.482        0.027      336.381        7.643      857.350
12/17/2014  12:06:00     -142.526      -45.035       -2.959       63.043       38.801       25.539     3974.394     1505.545      652.233        1.424        0.307      149.472       26.800        0.032      336.526        7.888      857.328
12/17/2014  12:07:00     -151.646      -40.974       -4.304       59.661       46.457       36.607     3559.387     2158.215     1340.067        1.587        0.353      157.084       37.189        0.056      336.415        7.701      857.309
12/17/2014  12:08:00      -91.554       12.994      -18.388       59.182       50.270       36.706     3502.466     2527.091     1347.342        0.813        0.369       92.472       33.661        0.133      336.424        7.716      857.276
12/17/2014  12:09:00      -31.021      -35.424       19.463       34.597       49.220       31.959     1196.949     2422.609     1021.395        0.362        0.232       47.087       29.381        0.389      336.797        8.340      857.251
12/17/2014  12:10:00      -79.958      -16.429       -5.893       69.358       46.021       31.452     4810.470     2117.962      989.197        0.731        0.396       81.628       30.073        0.136      336.675        8.137      857.247
12/17/2014  12:11:00      -40.123       13.252        3.211       50.640       36.952       33.780     2564.389     1365.416     1141.097        0.343        0.254       42.254       25.522        0.365      337.037        8.740      857.235
12/17/2014  12:12:00     -150.269      -52.422        1.386      108.034       64.716       38.704    11671.377     4188.105     1498.027        2.134        0.868      159.151       42.186        0.070      336.673        8.128      857.238
12/17/2014  12:13:00     -203.219      -78.879       -4.041       72.843       57.767       35.208     5306.160     3337.046     1239.629        2.871        0.494      217.990       39.384        0.033      336.480        7.805      857.226
12/17/2014  12:14:00     -118.397      -42.933        0.747       66.624       53.963       29.485     4438.729     2912.026      869.358        1.204        0.411      125.941       31.172        0.061      336.618        8.041      857.222
12/17/2014  12:15:00     -111.391       12.645       -6.408       50.628       43.334       30.286     2563.209     1877.877      917.228        0.898        0.268      112.106       21.217        0.036      336.746        8.254      857.224
12/17/2014  12:16:00      -28.121       20.607       18.130       57.355       37.661       33.522     3289.592     1418.364     1123.719        0.369        0.292       34.864       36.041        1.069      337.024        8.719      857.221
12/17/2014  12:17:00      -78.676       26.263       12.610       86.785       31.987       35.743     7531.711     1023.138     1277.588        0.843        0.492       82.944       48.665        0.344      336.849        8.427      857.228
12/17/2014  12:18:00      -99.806        3.329      -11.432       39.958       32.768       26.401     1596.639     1073.725      697.010        0.673        0.168       99.862       20.231        0.041      336.613        8.033      857.220
12/17/2014  12:19:00      -91.925       12.469       -5.891       75.231       38.531       34.317     5659.771     1484.668     1177.639        0.848        0.416       92.767       37.959        0.167      337.164        8.954      857.210
12/17/2014  12:20:00      -81.222      -51.223        0.750       56.456       44.317       22.934     3187.286     1964.005      525.967        0.745        0.284       96.025       25.020        0.068      336.827        8.390      857.201
12/17/2014  12:21:00      -55.865     -103.310       14.424      109.817       56.798       44.576    12059.834     3226.055     1987.009        1.563        0.864      117.448       51.200        0.190      336.799        8.343      857.199
12/17/2014  12:22:00     -213.137     -161.296       -1.813       78.492       62.627       46.106     6161.049     3922.187     2125.742        4.183        0.610      267.290       50.160        0.035      336.566        7.950      857.196
12/17/2014  12:23:00     -198.512     -144.804       -3.048       70.775       55.544       45.856     5009.042     3085.086     2102.756        3.529        0.510      245.714       41.929        0.029      336.498        7.836      857.206
12/17/2014  12:24:00     -228.191     -158.801       -7.490       92.680       61.237       42.788     8589.522     3749.922     1830.833        4.575        0.709      278.009       40.799        0.022      336.537        7.901      857.198
12/17/2014  12:25:00     -238.091     -145.163        0.592      103.437       93.005       48.785    10699.121     8649.864     2379.989        4.974        1.086      278.854       50.265        0.032      336.522        7.877      857.190
12/17/2014  12:26:00     -235.710     -188.493      -10.724      111.359       84.746       62.517    12400.828     7181.953     3908.342        5.734        1.175      301.810       62.324        0.043      336.518        7.870      857.172
12/17/2014  12:27:00     -237.788     -153.662      -12.247       74.562       60.497       40.825     5559.471     3659.942     1666.672        4.559        0.544      283.117       32.937        0.014      336.452        7.759      857.156
12/17/2014  12:28:00     -199.388     -125.288       -1.071      116.472       96.456       61.001    13565.819     9303.771     3721.094        4.102        1.330      235.484       63.642        0.073      336.554        7.930      857.136
12/17/2014  12:29:00     -178.342     -120.572        0.235       95.099       71.699       51.031     9043.810     5140.689     2604.202        3.156        0.839      215.275       46.243        0.046      336.553        7.931      857.151
12/17/2014  12:30:00     -121.176      -91.130       -1.174       70.717       84.089       32.614     5000.859     7071.005     1063.654        1.806        0.657      151.619       34.812        0.053      336.495        7.834      857.158
12/17/2014  12:31:00      -39.529      -71.990        7.390       38.961       36.212       26.271     1517.995     1311.337      690.169        0.516        0.176       82.129       26.187        0.102      336.615        8.036      857.151
12/17/2014  12:32:00      -34.665     -125.370      -10.920       27.491       35.666       18.841      755.778     1272.064      354.989        0.971        0.119      130.074        8.616        0.004      336.470        7.793      857.118
12/17/2014  12:33:00      -44.035      -72.077        3.543       40.435       41.550       28.053     1635.019     1726.383      786.969        0.565        0.207       84.464       29.018        0.118      336.603        8.017      857.067
12/17/2014  12:34:00      -48.100       -1.161        3.229       32.905       27.425       20.236     1082.751      752.146      409.507        0.228        0.112       48.114       15.947        0.110      336.702        8.183      857.024
12/17/2014  12:35:00      -16.206       -8.401        4.578       45.939       45.465       27.484     2110.350     2067.090      755.357        0.264        0.247       18.254       31.659        3.008      336.968        8.624      856.982
12/17/2014  12:36:00       61.037      -82.790        1.009       43.257       71.768       34.142     1871.209     5150.638     1165.653        0.938        0.409      102.858       28.714        0.078      336.883        8.483      856.950
12/17/2014  12:37:00       25.919       -5.020       62.400       52.161       80.006       44.860     2720.781     6401.019     2012.463        0.786        0.557       26.400       37.604        2.029      336.985        8.655      856.917
12/17/2014  12:38:00       14.618       49.426       68.429       43.869       59.158       42.065     1924.449     3499.622     1769.452        0.726        0.360       51.542       30.702        0.355      336.784        8.318      856.903
12/17/2014  12:39:00        8.792       39.187       19.215       36.283       30.585       22.358     1316.452      935.448      499.883        0.237        0.138       40.161       13.151        0.107      336.729        8.226      856.896
12/17/2014  12:40:00       -4.255       20.262       39.336       15.950       23.785       26.160      254.416      565.719      684.327        0.174        0.075       20.704       20.942        1.023      336.940        8.579      856.901
12/17/2014  12:41:00        2.246        8.277       64.851       33.140       68.099       43.886     1098.255     4637.496     1926.015        0.597        0.383        8.577       47.848       31.124      336.882        8.481      856.916
12/17/2014  12:42:00       92.275      -94.219       -1.476       39.854       72.129       39.686     1588.318     5202.629     1575.004        1.288        0.418      131.878       36.071        0.075      336.759        8.275      856.926
12/17/2014  12:43:00       25.724       29.779       39.842       37.911       33.526       25.621     1437.237     1124.021      656.419        0.318        0.161       39.351       21.967        0.312      336.756        8.272      856.937
12/17/2014  12:44:00       -4.916      -18.543        1.877       54.387       31.921       21.544     2957.911     1018.925      464.163        0.241        0.222       19.184       16.484        0.738      336.978        8.642      856.930
12/17/2014  12:45:00      -79.246      -98.256       10.088       80.154       83.296       31.391     6424.651     6938.290      985.406        1.519        0.717      126.230       46.673        0.137      336.955        8.602      856.915
12/17/2014  12:46:00      -46.898      -37.199       27.047       39.100       50.569       37.249     1528.787     2557.248     1387.491        0.489        0.274       59.859       31.596        0.279      337.125        8.887      856.908
12/17/2014  12:47:00      -23.135        6.273       75.888       39.523       72.390       41.352     1562.104     5240.355     1709.978        0.742        0.426       23.971       43.683        3.321      337.152        8.933      856.909
12/17/2014  12:48:00       10.717       29.159       70.825       47.080       62.192       47.517     2216.523     3867.878     2257.849        0.716        0.417       31.066       46.718        2.261      336.955        8.604      856.909
12/17/2014  12:49:00       11.469       40.140       61.307       46.082       41.769       36.221     2123.596     1744.622     1311.988        0.534        0.259       41.746       28.809        0.476      337.011        8.697      856.889
12/17/2014  12:50:00       -5.791       45.675       65.291       28.459       39.039       42.293      809.904     1524.017     1788.740        0.525        0.206       46.041       31.750        0.476      337.166        8.956      856.847
12/17/2014  12:51:00       32.893       52.379       48.583       53.143       50.607       42.916     2824.196     2561.117     1841.755        0.670        0.361       61.851       43.386        0.492      336.994        8.669      856.802
12/17/2014  12:52:00       40.816      -68.313       29.057       59.534      103.860       46.526     3544.305    10786.910     2164.711        1.183        0.825       79.578       48.932        0.378      337.020        8.711      856.774
12/17/2014  12:53:00       -7.000      -22.488       33.258       29.832       55.843       31.208      889.954     3118.393      973.964        0.332        0.249       23.552       19.430        0.681      337.106        8.856      856.760
12/17/2014  12:54:00       14.645      -12.033       31.059       50.248       45.436       36.415     2524.889     2064.467     1326.067        0.362        0.296       18.954       33.366        3.099      337.106        8.855      856.764
12/17/2014  12:55:00       38.312       -2.041       18.973       59.550       47.840       35.284     3546.194     2288.645     1244.994        0.445        0.354       38.367       31.452        0.672      336.873        8.467      856.771
12/17/2014  12:56:00       24.693       22.626       35.036       46.266       47.911       39.298     2140.554     2295.498     1544.351        0.416        0.299       33.491       27.190        0.659      336.946        8.589      856.775
12/17/2014  12:57:00        4.595      -81.566      -19.562       38.044       47.444       32.066     1447.384     2250.965     1028.257        0.589        0.236       81.695       20.255        0.061      337.046        8.755      856.792
12/17/2014  12:58:00       63.248     -105.035       -5.907       51.109       44.563       30.218     2612.101     1985.892      913.121        1.029        0.276      122.608       27.986        0.052      336.957        8.607      856.815
12/17/2014  12:59:00       15.926     -104.368        0.547       39.047       60.330       35.438     1524.666     3639.725     1255.833        0.878        0.321      105.576       38.564        0.133      336.965        8.619      856.828
12/17/2014  13:00:00       28.265      -98.625      -11.977       40.482       45.851       26.411     1638.819     2102.328      697.558        0.755        0.222      102.595       18.054        0.031      337.032        8.731      856.828
12/17/2014  13:01:00       -9.564      -23.102       28.073       17.562       37.340       27.167      308.430     1394.296      738.035        0.193        0.122       25.003       22.906        0.839      337.248        9.093      856.837
12/17/2014  13:02:00        5.736      -26.306       15.898       21.917       29.640       23.275      480.359      878.545      541.703        0.144        0.095       26.924       22.694        0.710      337.327        9.226      856.841
12/17/2014  13:03:00       69.803      -82.324      -13.280       39.261       60.567       34.578     1541.435     3668.326     1195.651        0.911        0.320      107.934       36.650        0.115      337.186        8.990      856.835
12/17/2014  13:04:00       19.702      -49.294       41.792       68.800       96.504       68.417     4733.488     9313.105     4680.865        1.164        0.936       53.085       68.499        1.665      337.121        8.879      856.810
12/17/2014  13:05:00       35.015      -72.687       19.309       67.970       69.674       59.049     4619.862     4854.457     3486.831        0.992        0.648       80.681       51.211        0.403      336.974        8.634      856.821
12/17/2014  13:06:00      152.211     -186.359      -35.928       72.193       88.188       42.024     5211.865     7777.161     1766.042        3.697        0.738      240.620       32.708        0.018      336.721        8.208      856.809
12/17/2014  13:07:00       74.255     -130.553       -4.637       72.175      109.689       53.315     5209.242    12031.707     2842.441        2.133        1.004      150.193       46.013        0.094      336.859        8.440      856.798
12/17/2014  13:08:00      132.697     -168.034      -26.709       71.931       70.898       36.855     5174.007     5026.502     1358.328        2.906        0.578      214.112       31.206        0.021      336.718        8.207      856.796
12/17/2014  13:09:00       44.986        5.280       52.508       55.200       62.361       43.893     3047.079     3888.955     1926.565        0.683        0.443       45.295       28.026        0.383      336.924        8.552      856.820
12/17/2014  13:10:00      114.231      -41.334       19.882       46.444       63.691       50.127     2157.019     4056.581     2512.718        1.194        0.436      121.479       31.324        0.066      336.777        8.307      856.848
12/17/2014  13:11:00       62.504      -73.285       -0.791       32.995       54.495       27.271     1088.689     2969.684      743.728        0.704        0.240       96.320       25.094        0.068      336.911        8.531      856.872
12/17/2014  13:12:00       14.602      -14.013       41.929       48.256       79.241       45.157     2328.634     6279.142     2039.121        0.641        0.532       20.238       43.424        4.604      337.036        8.739      856.876
12/17/2014  13:13:00       31.599      -27.775       36.772       50.051       82.715       48.214     2505.083     6841.713     2324.545        0.739        0.584       42.071       48.733        1.342      337.085        8.820      856.874
12/17/2014  13:14:00       68.892      -69.826       20.244       60.867       76.787       53.824     3704.830     5896.258     2897.022        1.126        0.625       98.091       43.412        0.196      336.989        8.660      856.870
12/17/2014  13:15:00      114.534     -105.080      -23.120       81.876      111.551       68.423     6703.634    12443.631     4681.713        2.426        1.191      155.435       76.626        0.243      336.805        8.351      856.856
12/17/2014  13:16:00       93.457     -155.400      -23.546       93.386       89.821       62.808     8720.921     8067.728     3944.893        2.708        1.037      181.337       65.260        0.130      336.729        8.225      856.839
12/17/2014  13:17:00      147.060     -209.215      -36.120       85.703       81.057       38.970     7345.021     6570.177     1518.643        4.106        0.772      255.729       37.557        0.022      336.675        8.134      856.832
12/17/2014  13:18:00       68.159      -48.135       43.717       79.209       81.639       58.694     6274.023     6664.854     3445.017        1.263        0.819       83.443       63.629        0.581      336.756        8.272      856.830
12/17/2014  13:19:00       33.174      -10.064       28.779       49.496       69.028       52.676     2449.887     4764.804     2774.798        0.601        0.499       34.667       53.295        2.363      336.821        8.380      856.826
12/17/2014  13:20:00       83.269      -54.356       34.922       88.277      154.035       82.258     7792.783    23726.775     6766.298        2.469        1.914       99.440      103.324        1.080      336.754        8.267      856.806
12/17/2014  13:21:00       61.752      -15.985       75.767       59.986       91.542       64.175     3598.316     8379.981     4118.385        1.295        0.805       63.787       64.874        1.034      336.830        8.395      856.807
12/17/2014  13:22:00       59.094       44.020       85.399       65.609       79.940       57.060     4304.544     6390.473     3255.882        1.333        0.698       73.687       56.792        0.594      336.817        8.374      856.825
12/17/2014  13:23:00       34.444        4.790       33.129       27.269       29.310       22.623      743.620      859.084      511.797        0.221        0.106       34.776        3.270        0.009      336.907        8.524      856.858
12/17/2014  13:24:00       55.734       27.123       77.526       69.189       85.215       61.564     4787.103     7261.612     3790.083        1.284        0.792       61.984       68.427        1.219      336.865        8.453      856.877
12/17/2014  13:25:00       49.384       -9.575       39.630       72.063       54.221       46.828     5193.018     2939.906     2192.852        0.721        0.516       50.304       37.676        0.561      336.928        8.558      856.875
12/17/2014  13:26:00       61.966       82.223       69.883       72.605       51.752       52.900     5271.439     2678.274     2798.453        1.311        0.537      102.958       48.739        0.224      336.779        8.310      856.879
12/17/2014  13:27:00       61.615       56.134       47.285       49.146       41.260       37.907     2415.328     1702.410     1436.944        0.737        0.278       83.351       22.742        0.074      336.725        8.220      856.885
12/17/2014  13:28:00      -11.460      -26.219       26.438       58.825       76.071       53.025     3460.435     5786.766     2811.633        0.679        0.603       28.614       57.647        4.059      336.970        8.627      856.883
12/17/2014  13:29:00       26.424      -63.351        4.196       50.710       61.198       48.341     2571.463     3745.234     2336.826        0.669        0.433       68.641       42.439        0.382      337.086        8.822      856.900
12/17/2014  13:30:00       55.424      -75.988       17.756       57.284       71.171       56.817     3281.479     5065.261     3228.122        1.037        0.579       94.054       47.030        0.250      337.020        8.710      856.917
12/17/2014  13:31:00       33.461      -93.768       -0.677       45.490       49.058       42.588     2069.316     2406.719     1813.773        0.810        0.314       99.559       28.452        0.082      336.955        8.603      856.931
12/17/2014  13:32:00       17.101      -43.434       36.753       39.799       75.119       41.757     1583.987     5642.868     1743.655        0.625        0.449       46.679       39.763        0.726      337.031        8.731      856.922
12/17/2014  13:33:00       25.288      -58.553       24.518       45.664       63.313       37.289     2085.219     4008.589     1390.449        0.608        0.374       63.781       38.354        0.362      337.126        8.890      856.922
12/17/2014  13:34:00       78.205     -123.863      -16.667       71.586       80.748       47.854     5124.580     6520.220     2289.962        1.783        0.697      146.485       43.909        0.090      336.970        8.627      856.921
12/17/2014  13:35:00       85.097     -101.100      -20.172       70.423       87.288       62.184     4959.380     7619.126     3866.840        1.715        0.822      132.147       55.963        0.179      336.839        8.408      856.929
12/17/2014  13:36:00       25.686      -54.130       47.459       73.394       82.733       50.485     5386.687     6844.823     2548.711        1.031        0.739       59.915       50.425        0.708      336.823        8.383      856.937
12/17/2014  13:37:00      -46.516      -75.900       13.309       46.889       50.326       42.298     2198.602     2532.659     1789.128        0.731        0.326       89.020       28.264        0.101      336.931        8.563      856.955
12/17/2014  13:38:00       26.779       -0.942       30.974       40.048       64.308       41.402     1603.808     4135.527     1714.107        0.456        0.373       26.796       45.626        2.899      336.952        8.598      856.980
12/17/2014  13:39:00       21.935      -59.129        4.259       41.440       50.777       32.453     1717.288     2578.326     1053.196        0.467        0.267       63.067       30.783        0.238      336.972        8.631      857.009
12/17/2014  13:40:00       23.263      -27.894       16.412       45.645       45.836       29.026     2083.482     2100.950      842.507        0.331        0.251       36.321       28.720        0.625      336.887        8.489      857.028
12/17/2014  13:41:00      -22.464      -37.357        3.296       42.150       32.441       24.699     1776.647     1052.400      610.052        0.267        0.172       43.591       15.547        0.127      337.029        8.726      857.029
12/17/2014  13:42:00      -90.194     -105.173        8.958       79.843       65.523       45.386     6374.909     4293.200     2059.868        1.600        0.636      138.550       36.982        0.071      336.871        8.462      857.028
12/17/2014  13:43:00      -53.094     -109.812       -3.947       74.009       56.600       45.105     5477.373     3203.572     2034.489        1.280        0.536      121.974       14.094        0.013      336.888        8.492      857.010
12/17/2014  13:44:00      -19.955      -47.903        6.546       43.138       31.585       26.100     1860.845      997.629      681.187        0.314        0.177       51.893       20.295        0.153      336.934        8.569      857.008
12/17/2014  13:45:00       19.562      -45.491       18.536       39.191       67.709       49.778     1535.939     4584.574     2477.845        0.570        0.430       49.519       46.860        0.896      336.973        8.633      856.997
12/17/2014  13:46:00       10.521      -73.320       -6.255       60.960       65.608       34.516     3716.102     4304.376     1191.350        0.737        0.461       74.071       36.167        0.238      336.941        8.580      856.999
12/17/2014  13:47:00      -14.487        3.019       29.816       40.054       46.189       31.575     1604.337     2133.428      996.972        0.292        0.237       14.798       35.281        5.684      336.996        8.673      856.989
12/17/2014  13:48:00       -1.847       -7.868       36.383       18.928       31.779       22.727      358.285     1009.884      516.510        0.164        0.094        8.082       21.566        7.121      337.099        8.845      856.985
12/17/2014  13:49:00      -13.555       -4.247       48.174       25.202       52.061       31.826      635.157     2710.329     1012.899        0.344        0.218       14.205       34.633        5.944      337.036        8.739      856.985
12/17/2014  13:50:00        7.644      -25.229       42.119       43.565       64.851       34.391     1897.920     4205.639     1182.730        0.488        0.364       26.362       29.614        1.262      336.992        8.665      856.991
12/17/2014  13:51:00        6.952      -30.535       20.045       32.541       39.686       31.604     1058.889     1574.963      998.843        0.251        0.182       31.317       30.906        0.974      337.014        8.701      857.007
12/17/2014  13:52:00       25.311       24.821       44.224       40.263       51.934       43.315     1621.086     2697.168     1876.179        0.470        0.310       35.450       40.483        1.304      337.008        8.692      857.008
12/17/2014  13:53:00       32.687       -2.701       50.865       40.065       70.042       48.831     1605.174     4905.862     2384.495        0.628        0.445       32.799       53.027        2.614      336.897        8.505      857.008
12/17/2014  13:54:00       12.534       34.488       47.566       35.397       36.963       23.082     1252.917     1366.227      532.785        0.338        0.158       36.694       22.185        0.366      336.917        8.541      857.009
12/17/2014  13:55:00     -124.194      -43.705        8.108       39.931       38.521       23.446     1594.481     1483.901      549.722        1.051        0.181      131.660       18.509        0.020      336.934        8.568      857.030
12/17/2014  13:56:00     -114.394      -43.707        0.890       45.812       38.647       24.974     2098.778     1493.618      623.699        0.961        0.211      122.459       24.631        0.040      336.872        8.465      857.038
12/17/2014  13:57:00     -106.342      -64.650       -2.723       35.997       31.241       24.632     1295.775      976.013      606.753        0.919        0.144      124.452        9.504        0.006      336.828        8.392      857.046
12/17/2014  13:58:00      -42.980     -115.905       -0.467       27.927       57.047       19.627      779.906     3254.365      385.231        0.985        0.221      123.617       20.298        0.027      336.842        8.415      857.047
12/17/2014  13:59:00      -43.914      -30.259        5.175       34.933       32.113       19.374     1220.336     1031.231      375.352        0.275        0.131       53.329       15.342        0.083      336.932        8.565      857.049
12/17/2014  14:00:00      -12.770       -9.099        8.937       20.514       17.694       16.640      420.834      313.085      276.888        0.067        0.051       15.680       12.444        0.630      337.041        8.745      857.052
12/17/2014  14:01:00       22.845      -49.116       11.984       35.983       67.966       40.557     1294.800     4619.411     1644.878        0.532        0.378       54.169       39.244        0.525      337.017        8.708      857.040
12/17/2014  14:02:00       61.499       65.403       -2.833       55.153       33.725       24.481     3041.895     1137.342      599.305        0.642        0.239       89.776       21.772        0.059      336.957        8.605      857.056
12/17/2014  14:03:00       30.696       60.818        3.151       24.176       21.711       18.820      584.464      471.356      354.174        0.303        0.070       68.125       14.359        0.044      336.931        8.561      857.050
12/17/2014  14:04:00       -7.340       28.096       -2.005       33.544       33.280       10.675     1125.227     1107.533      113.957        0.160        0.117       29.039       12.550        0.187      336.984        8.653      857.058
12/17/2014  14:05:00      -58.153     -101.155       -3.487       75.035       54.366       32.393     5630.179     2955.640     1049.288        1.163        0.482      116.679       18.962        0.026      337.082        8.817      857.065
12/17/2014  14:06:00     -111.383     -107.948       16.204      104.534       95.593       52.093    10927.259     9137.990     2713.705        2.355        1.139      155.109       51.736        0.111      336.886        8.487      857.053
12/17/2014  14:07:00      -84.422      -33.918       14.724       85.627       70.696       43.986     7331.991     4997.891     1934.810        1.138        0.713       90.980       49.383        0.295      337.030        8.729      857.075
12/17/2014  14:08:00     -140.070      -79.744      -16.757       89.938       50.892       37.729     8088.810     2590.040     1423.502        1.918        0.605      161.179       33.772        0.044      336.927        8.554      857.093
12/17/2014  14:09:00     -155.512      -60.335       15.125      138.565       97.590       61.028    19200.267     9523.719     3724.451        3.024        1.622      166.806       61.987        0.138      336.878        8.473      857.091
12/17/2014  14:10:00     -288.437     -181.301      -19.327      118.543       61.858       54.088    14052.498     3826.398     2925.528        6.862        1.040      340.685       60.636        0.032      336.747        8.252      857.105
12/17/2014  14:11:00     -342.169     -191.177      -19.334      131.748      106.703       68.315    17357.453    11385.600     4666.914        9.370        1.670      391.955       47.608        0.015      336.728        8.222      857.103
12/17/2014  14:12:00     -320.385     -242.626      -15.741      193.466      168.979       87.013    37429.007    28553.758     7571.193       11.764        3.678      401.888      107.746        0.072      336.669        8.125      857.085
12/17/2014  14:13:00     -244.561     -134.238      -11.411      148.116      113.265       68.670    21938.468    12828.934     4715.617        5.871        1.974      278.980       68.406        0.060      336.692        8.162      857.088
12/17/2014  14:14:00     -297.149     -132.256      -15.225      124.500       92.794       52.663    15500.168     8610.699     2773.379        6.645        1.344      325.253       57.629        0.031      336.675        8.133      857.099
12/17/2014  14:15:00     -312.777     -194.463       -4.614      160.462      140.521       86.115    25747.917    19746.173     7415.877        9.428        2.645      368.301       95.688        0.068      336.665        8.119      857.083
12/17/2014  14:16:00     -206.523     -106.056      -17.824      119.740       75.872       55.437    14337.646     5756.590     3073.271        3.869        1.158      232.163       61.871        0.071      336.703        8.181      857.096
12/17/2014  14:17:00     -288.012      -98.797       -8.202      173.675      106.653       62.388    30162.867    11374.900     3892.294        6.910        2.272      304.486       62.425        0.042      336.688        8.156      857.080
12/17/2014  14:18:00     -182.425      -82.585       10.358      150.528      110.473       73.777    22658.658    12204.270     5443.093        4.025        2.015      200.247       85.252        0.181      336.773        8.298      857.079
12/17/2014  14:19:00     -152.599     -136.877       14.826      140.130      110.469       69.077    19636.421    12203.334     4771.594        3.942        1.831      204.992       83.500        0.166      336.748        8.258      857.104
12/17/2014  14:20:00     -160.255     -109.929       -6.513      130.151      107.757       65.163    16939.241    11611.588     4246.232        3.530        1.640      194.335       77.999        0.161      336.729        8.224      857.122
12/17/2014  14:21:00     -258.395     -207.169       -9.263      175.616      124.838       80.641    30841.007    15584.589     6502.945        8.134        2.646      331.191       78.527        0.056      336.695        8.167      857.134
12/17/2014  14:22:00     -281.600      -94.437      -12.770      143.529       99.426       51.040    20600.717     9885.455     2605.110        6.073        1.655      297.013       59.037        0.040      336.687        8.154      857.149
12/17/2014  14:23:00     -219.878     -182.179       -3.353      177.196      112.982       68.881    31398.442    12764.834     4744.613        6.522        2.445      285.544       83.090        0.085      336.686        8.152      857.145
12/17/2014  14:24:00     -231.675     -170.957        1.173      146.054      121.978       80.872    21331.773    14878.626     6540.346        6.282        2.138      287.923       77.974        0.073      336.677        8.137      857.146
12/17/2014  14:25:00     -165.102     -100.627       -1.393       76.164       78.594       45.859     5800.961     6176.995     2103.080        2.573        0.704      193.351       36.074        0.035      336.714        8.201      857.150
12/17/2014  14:26:00     -176.225       15.391        0.586      164.973      101.448       66.801    27216.238    10291.794     4462.435        3.662        2.099      176.895       80.319        0.206      336.833        8.399      857.128
12/17/2014  14:27:00     -296.214     -139.553        1.940      143.034      124.683       65.583    20458.673    15545.861     4301.151        7.376        2.015      327.441       71.228        0.047      336.642        8.078      857.113
12/17/2014  14:28:00     -218.990     -104.182       -7.771      105.011      117.393       56.824    11027.218    13781.192     3228.923        4.345        1.402      242.509       47.017        0.038      336.699        8.174      857.101
12/17/2014  14:29:00     -118.669      -88.672       15.151      104.434       75.360       50.719    10906.406     5679.156     2572.438        2.066        0.958      148.138       54.317        0.134      336.732        8.230      857.120
12/17/2014  14:30:00     -155.311     -150.353        2.427      102.100       80.545       50.669    10424.330     6487.494     2567.320        3.310        0.974      216.165       41.905        0.038      336.630        8.059      857.103
12/17/2014  14:31:00     -198.181      -49.956       -1.514      114.826       93.548       50.035    13185.004     8751.268     2503.457        3.310        1.222      204.381       49.809        0.059      336.678        8.141      857.112
12/17/2014  14:32:00     -146.410      -50.957       -9.357      113.691       90.075       54.595    12925.680     8113.555     2980.612        2.407        1.201      155.025       47.030        0.092      336.746        8.253      857.120
12/17/2014  14:33:00     -164.660        6.256        8.491      121.618       80.961       68.799    14790.836     6554.615     4733.315        2.665        1.304      164.779       76.628        0.216      336.780        8.310      857.112
12/17/2014  14:34:00     -323.951      -75.628       -6.557      151.352      119.291       62.557    22907.525    14230.342     3913.437        7.587        2.053      332.662       63.510        0.036      336.587        7.985      857.121
12/17/2014  14:35:00     -191.066     -121.077       -2.615      125.128       86.524       52.875    15656.977     7486.427     2795.754        3.855        1.297      226.199       47.480        0.044      336.539        7.907      857.118
12/17/2014  14:36:00     -340.695      -26.399      -11.379      206.968      120.831       73.753    42835.697    14600.190     5439.531        8.987        3.144      341.716       90.709        0.070      336.599        8.007      857.117
12/17/2014  14:37:00     -247.923      -38.354       -0.079      175.695      144.498       68.581    30868.561    20879.628     4703.305        5.968        2.823      250.872       79.886        0.101      336.609        8.023      857.120
12/17/2014  14:38:00     -120.652     -104.482       -6.655       86.460      110.460       44.220     7475.384    12201.392     1955.375        2.357        1.082      159.604       36.679        0.053      336.639        8.073      857.086
12/17/2014  14:39:00     -305.141       54.987      -17.576      150.225       96.591       53.858    22567.417     9329.868     2900.676        6.561        1.740      310.056       60.312        0.038      336.635        8.067      857.096
12/17/2014  14:40:00     -118.099      -27.305        8.698      102.415       84.448       47.966    10488.888     7131.412     2300.701        1.734        0.996      121.214       35.299        0.085      336.746        8.256      857.106
12/17/2014  14:41:00      -51.803      -46.100        5.715       99.156       61.044       43.293     9831.906     3726.389     1874.269        1.013        0.772       69.345       47.693        0.473      336.725        8.220      857.124
12/17/2014  14:42:00     -353.502      -41.149      -42.572      111.021       83.383       50.415    12325.597     6952.688     2541.696        7.514        1.091      355.889       43.959        0.015      336.457        7.768      857.122
12/17/2014  14:43:00     -152.961     -177.532       -7.138      114.081      100.448       52.680    13014.573    10089.789     2775.208        4.042        1.294      234.338       51.462        0.048      336.552        7.929      857.103
12/17/2014  14:44:00     -172.059      -83.557        4.918      126.210      140.841       70.017    15928.933    19836.145     4902.442        3.863        2.033      191.275       79.028        0.171      336.675        8.136      857.111
12/17/2014  14:45:00     -184.427      -94.073       -0.605      147.259      100.170       58.875    21685.318    10034.064     3466.208        3.902        1.759      207.034       40.498        0.038      336.566        7.953      857.137
12/17/2014  14:46:00     -253.943     -144.594        3.444      165.400       90.738       63.569    27357.204     8233.297     4041.008        6.251        1.982      292.223       70.110        0.058      336.488        7.820      857.138
12/17/2014  14:47:00     -316.000     -158.127      -14.760      203.993      135.112       77.245    41613.082    18255.345     5966.731        9.544        3.292      353.355       94.280        0.071      336.433        7.728      857.146
12/17/2014  14:48:00     -159.068      -82.745        4.232      124.783      112.359       62.303    15570.790    12624.581     3881.650        3.212        1.604      179.303       60.346        0.113      336.471        7.791      857.152
12/17/2014  14:49:00     -263.192     -192.815       -9.306      177.485      144.080       73.904    31501.042    20758.960     5461.787        8.212        2.886      326.263       91.686        0.079      336.477        7.802      857.155
12/17/2014  14:50:00     -243.958     -125.567       -0.742      157.283      119.922       84.162    24737.817    14381.198     7083.239        6.073        2.310      274.377       79.608        0.084      336.408        7.685      857.137
12/17/2014  14:51:00     -196.501      -89.419       -4.641      146.905      106.465       64.235    21581.053    11334.831     4126.134        4.183        1.852      215.890       77.686        0.129      336.484        7.813      857.146
12/17/2014  14:52:00     -115.050      -14.676        9.731      120.349       72.426       55.205    14483.935     5245.548     3047.602        1.816        1.139      115.982       61.754        0.283      336.536        7.903      857.173
12/17/2014  14:53:00     -131.764      -43.709        4.371      125.067       92.464       49.534    15641.843     8549.604     2453.611        2.296        1.332      138.825       46.209        0.111      336.544        7.916      857.171
12/17/2014  14:54:00     -207.413     -108.437        0.966      165.478      140.476       57.224    27382.921    19733.534     3274.538        5.258        2.520      234.048       76.142        0.106      336.472        7.793      857.167
12/17/2014  14:55:00     -141.252      -31.711       23.197      184.275      114.078       92.489    33957.181    13013.792     8554.182        3.850        2.776      144.768      111.292        0.591      336.521        7.876      857.155
12/17/2014  14:56:00     -402.886     -142.473      -18.569      246.976      157.985       85.299    60997.226    24959.329     7275.994       13.808        4.662      427.335       92.231        0.047      336.301        7.508      857.144
12/17/2014  14:57:00     -270.876      -35.394      -13.618      133.989      122.399       63.288    17952.945    14981.461     4005.415        5.587        1.847      273.178       55.580        0.041      336.457        7.768      857.160
12/17/2014  14:58:00     -126.306      -29.360       23.678      123.730       89.498       63.138    15309.091     8009.930     3986.396        2.234        1.365      129.674       70.698        0.297      336.414        7.696      857.190
12/17/2014  14:59:00     -193.768      -90.096       -7.057      104.707       72.537       55.867    10963.635     5261.636     3121.116        3.253        0.967      213.690       57.684        0.073      336.351        7.590      857.206
12/17/2014  15:00:00     -224.263      -78.389        5.776      197.604      146.678       74.316    39047.443    21514.383     5522.856        6.127        3.304      237.568       97.214        0.167      336.317        7.534      857.200
12/17/2014  15:01:00     -324.279      -55.028      -15.071      161.563      134.029       67.692    26102.540    17963.818     4582.180        7.852        2.432      328.915       67.850        0.043      336.362        7.609      857.198
12/17/2014  15:02:00     -365.910      -41.175      -45.201      203.515      162.249       76.274    41418.474    26324.843     5817.764       10.558        3.678      368.219       59.997        0.027      336.305        7.514      857.227
12/17/2014  15:03:00     -143.640      -86.356        4.441      119.299       83.383       56.022    14232.273     6952.724     3138.491        2.621        1.216      167.600       63.269        0.143      336.299        7.506      857.239
12/17/2014  15:04:00     -141.906      -83.627        3.918      133.120      133.471       63.529    17720.946    17814.469     4035.911        3.335        1.979      164.714       73.887        0.201      336.301        7.509      857.253
12/17/2014  15:05:00     -303.726     -194.560       -9.203      131.722      135.439       71.507    17350.781    18343.729     5113.301        8.549        2.040      360.698       65.203        0.033      336.246        7.416      857.245
12/17/2014  15:06:00     -121.013      -68.060       27.665      145.041      115.486       53.424    21036.928    13337.098     2854.094        2.863        1.861      138.839       69.054        0.247      336.345        7.583      857.236
12/17/2014  15:07:00     -108.619      -50.204       -1.548      106.754       55.074       50.480    11396.402     3033.115     2548.213        1.565        0.849      119.660       51.574        0.186      336.314        7.533      857.237
12/17/2014  15:08:00     -103.545      -37.430       13.560      110.432       71.895       49.276    12195.300     5168.932     2428.103        1.605        0.990      110.103       58.051        0.278      336.362        7.612      857.248
12/17/2014  15:09:00     -249.242     -111.680       -0.284      139.876      139.047       69.927    19565.377    19334.185     4889.729        5.918        2.189      273.119       73.486        0.072      336.294        7.497      857.254
12/17/2014  15:10:00     -214.701     -125.171        8.544      146.913      128.161       75.678    21583.320    16425.126     5727.121        5.278        2.187      248.524       78.017        0.099      336.302        7.508      857.260
12/17/2014  15:11:00     -260.775     -197.104      -20.014      112.407      132.330       57.651    12635.229    17511.254     3323.670        7.036        1.674      326.885       42.101        0.017      336.296        7.498      857.283
12/17/2014  15:12:00     -114.251      -75.154        5.471      147.727       96.176       72.094    21823.341     9249.869     5197.553        2.749        1.814      136.753       77.569        0.322      336.337        7.569      857.268
12/17/2014  15:13:00     -211.056      -58.300      -15.538      116.013       89.894       52.099    13459.077     8080.962     2714.322        3.621        1.213      218.960       50.104        0.052      336.467        7.786      857.291
12/17/2014  15:14:00     -174.540      -78.092       -4.181       82.630       88.546       43.364     6827.685     7840.379     1880.415        2.656        0.827      191.214       37.414        0.038      336.384        7.645      857.311
12/17/2014  15:15:00      -59.515      -62.557        5.238       62.066       45.289       32.029     3852.153     2051.062     1025.853        0.720        0.346       86.345       28.200        0.107      336.443        7.747      857.329
12/17/2014  15:16:00     -109.390     -106.159       -0.008       63.739       58.542       37.706     4062.704     3427.187     1421.715        1.607        0.446      152.433       24.634        0.026      336.391        7.660      857.341
12/17/2014  15:17:00     -143.668      -75.528       -0.356       85.772       73.879       34.999     7356.859     5458.087     1224.904        2.019        0.702      162.311       32.823        0.041      336.402        7.676      857.334
12/17/2014  15:18:00      -80.344      -19.682       -0.804       49.609       71.427       26.506     2461.053     5101.874      702.548        0.755        0.413       82.719       19.632        0.056      336.487        7.822      857.337
12/17/2014  15:19:00     -133.734      -83.686        6.028      133.117      101.679       59.324    17720.243    10338.615     3519.339        2.824        1.579      157.760       62.084        0.155      336.442        7.745      857.350
12/17/2014  15:20:00     -294.587     -230.811       -8.061      191.453      138.078       81.317    36654.164    19065.622     6612.508       10.121        3.117      374.240       89.408        0.057      336.289        7.488      857.352
12/17/2014  15:21:00      -69.310      -48.056       35.615      103.599       90.825       52.459    10732.757     8249.261     2751.940        1.505        1.087       84.340       58.800        0.486      336.354        7.597      857.367
12/17/2014  15:22:00     -132.948      -30.430        4.743       96.551       86.060       51.231     9322.006     7406.406     2624.653        1.898        0.968      136.386       49.995        0.134      336.349        7.590      857.362
12/17/2014  15:23:00     -184.847        4.473       -4.618      104.699      102.622       55.834    10961.887    10531.261     3117.436        2.941        1.231      184.902       50.402        0.074      336.461        7.775      857.379
12/17/2014  15:24:00     -167.333      -70.023        7.721      108.566       78.265       44.473    11786.671     6125.482     1977.843        2.642        0.994      181.393       46.445        0.066      336.354        7.598      857.388
12/17/2014  15:25:00     -235.307      -33.129        0.520      163.287      100.324       59.396    26662.801    10064.954     3527.865        4.835        2.013      237.628       73.663        0.096      336.388        7.653      857.399
12/17/2014  15:26:00     -126.812      -98.942        2.554       82.867       77.918       52.408     6866.936     6071.213     2746.573        2.078        0.784      160.845       48.122        0.090      336.441        7.742      857.432
12/17/2014  15:27:00     -152.882     -114.666      -10.996       88.580       81.088       54.055     7846.503     6575.329     2921.893        2.699        0.867      191.106       53.770        0.079      336.414        7.696      857.437
12/17/2014  15:28:00     -166.253      -89.769       -9.177      122.218       80.488       55.145    14937.198     6478.293     3041.004        3.011        1.223      188.941       56.909        0.091      336.383        7.644      857.450
12/17/2014  15:29:00     -113.518      -52.674       -2.841       67.464       37.903       27.044     4551.359     1436.651      731.404        1.119        0.336      125.143       27.702        0.049      336.415        7.700      857.460
12/17/2014  15:30:00     -160.583     -101.328      -12.560       68.849       75.639       38.003     4740.137     5721.207     1444.217        2.406        0.595      189.879       25.923        0.019      336.431        7.725      857.472
12/17/2014  15:31:00     -232.600      -64.912      -19.878       91.993       88.288       38.442     8462.645     7794.772     1477.781        3.822        0.887      241.487       38.986        0.026      336.420        7.703      857.478
12/17/2014  15:32:00     -131.349      -15.617       -4.121       93.539       48.127       36.302     8749.571     2316.223     1317.801        1.495        0.619      132.274       46.261        0.122      336.609        8.024      857.511
12/17/2014  15:33:00      -26.915       -6.186       10.751       63.395       34.396       31.061     4018.901     1183.107      964.785        0.352        0.308       27.617       37.477        1.841      336.554        7.935      857.531
12/17/2014  15:34:00      -98.944      -14.653       -1.365       58.060       31.966       28.123     3370.925     1021.818      790.896        0.759        0.259      100.023       34.725        0.121      336.510        7.861      857.539
12/17/2014  15:35:00      -56.099      -26.921        0.610       24.594       45.316       17.281      604.882     2053.555      298.626        0.341        0.148       62.224       15.910        0.065      336.441        7.746      857.545
12/17/2014  15:36:00      -53.904      -92.923      -12.002       24.110       27.105       22.084      581.272      734.662      487.709        0.674        0.090      107.425        7.813        0.005      336.433        7.734      857.549
12/17/2014  15:37:00      -83.397      -76.181        4.098       53.353       40.848       27.797     2846.505     1668.582      772.658        0.903        0.264      112.954       30.389        0.072      336.486        7.822      857.545
12/17/2014  15:38:00     -101.840      -31.613       -1.376       44.577       22.123       16.703     1987.137      489.412      279.003        0.706        0.138      106.634       18.376        0.030      336.415        7.702      857.542
12/17/2014  15:39:00        4.465      -60.006       22.019       40.515       29.405       24.330     1641.425      864.652      591.932        0.360        0.155       60.171       17.755        0.087      336.455        7.769      857.542
12/17/2014  15:40:00       15.783       -7.004       35.748       32.092       55.830       29.945     1029.895     3116.965      896.687        0.331        0.252       17.267       29.917        3.002      336.606        8.022      857.543
12/17/2014  15:41:00       13.477        6.816       39.597       28.519       38.328       30.791      813.310     1469.010      948.081        0.251        0.162       15.103       29.526        3.822      336.586        7.988      857.554
12/17/2014  15:42:00      -55.567       -8.830        4.537       35.950       21.906       19.893     1292.380      479.871      395.746        0.268        0.108       56.264       19.989        0.126      336.568        7.959      857.572
12/17/2014  15:43:00      -83.270      -63.858       -0.537       47.770       36.993       17.774     2281.974     1368.511      315.904        0.749        0.198      104.937        8.283        0.006      336.435        7.733      857.591
12/17/2014  15:44:00      -88.037      -87.753       -3.039       38.797       59.823       27.073     1505.222     3578.804      732.968        1.064        0.291      124.303       19.712        0.025      336.415        7.701      857.596
12/17/2014  15:45:00     -212.738      -34.842       -8.018      117.761       80.453       56.064    13867.666     6472.662     3143.124        3.500        1.174      215.572       67.758        0.099      336.465        7.782      857.591
12/17/2014  15:46:00      -75.321      -70.501        2.250       73.726       49.532       32.080     5435.553     2453.464     1029.117        0.978        0.446      103.168       28.762        0.078      336.404        7.683      857.579
12/17/2014  15:47:00     -237.051      -61.242       -1.629      117.023      121.359       61.018    13694.466    14728.106     3723.159        4.604        1.607      244.834       63.987        0.068      336.446        7.749      857.555
12/17/2014  15:48:00     -150.968      -20.863        9.097       75.605       82.026       44.472     5716.161     6728.310     1977.783        1.886        0.721      152.403       44.406        0.085      336.508        7.856      857.564
12/17/2014  15:49:00     -176.532     -105.976       -0.346      108.979       66.419       38.473    11876.362     4411.500     1480.137        3.008        0.888      205.900       47.858        0.054      336.427        7.718      857.575
12/17/2014  15:50:00     -210.989     -106.279       -3.449      105.176      131.284       67.150    11062.092    17235.431     4509.187        4.431        1.640      236.245       73.740        0.097      336.400        7.671      857.575
12/17/2014  15:51:00     -201.366     -112.059       -2.937      103.801       91.909       55.402    10774.568     8447.342     3069.414        3.770        1.115      230.447       63.983        0.077      336.368        7.618      857.587
12/17/2014  15:52:00     -105.501      -82.432        6.114       54.282       47.234       32.875     2946.525     2231.062     1080.733        1.211        0.313      133.886       34.131        0.065      336.330        7.558      857.582
12/17/2014  15:53:00      -87.319      -75.978        9.269       59.610       67.954       28.329     3553.301     4617.801      802.543        1.123        0.449      115.746       28.691        0.061      336.372        7.628      857.577
12/17/2014  15:54:00     -106.339      -95.380        4.563       80.237       65.843       36.628     6438.045     4335.275     1341.594        1.627        0.606      142.847       38.946        0.074      336.364        7.615      857.577
12/17/2014  15:55:00     -170.015     -123.716       -6.555       93.150       71.839       50.960     8676.964     5160.887     2596.916        3.034        0.822      210.264       53.870        0.066      336.380        7.639      857.583
12/17/2014  15:56:00     -131.857      -65.941       -0.146       66.353       74.144       37.017     4402.689     5497.367     1370.260        1.650        0.564      147.426       39.563        0.072      336.380        7.642      857.582
12/17/2014  15:57:00      -72.355      -68.821        8.523       74.182       54.485       35.194     5502.987     2968.642     1238.623        0.988        0.486       99.858       37.627        0.142      336.362        7.612      857.580
12/17/2014  15:58:00     -144.931       10.348        4.494       95.452       74.009       51.628     9111.144     5477.276     2665.446        1.919        0.863      145.300       54.666        0.142      336.450        7.757      857.593
12/17/2014  15:59:00     -157.862     -115.576        8.807      107.855      105.034       63.732    11632.739    11032.235     4061.760        3.254        1.336      195.648       67.721        0.120      336.365        7.616      857.604
12/17/2014  16:00:00     -182.317      -75.291       12.240       93.424       66.082       46.369     8728.083     4366.803     2150.110        2.715        0.762      197.251       52.763        0.072      336.344        7.579      857.604
12/17/2014  16:01:00     -230.008     -128.365      -12.915      111.841      108.311       44.473    12508.445    11731.269     1977.844        4.788        1.311      263.403       50.451        0.037      336.335        7.564      857.627
12/17/2014  16:02:00     -168.218      -64.289       -0.397       98.556       81.864       48.483     9713.335     6701.637     2350.592        2.559        0.938      180.084       37.210        0.043      336.334        7.564      857.660
12/17/2014  16:03:00      -85.949      -54.761        3.899       76.928       52.995       27.629     5917.960     2808.499      763.351        0.994        0.474      101.911       20.579        0.041      336.379        7.640      857.685
12/17/2014  16:04:00      -83.496      -85.131       -1.925       65.832       46.249       27.353     4333.799     2138.952      748.208        1.072        0.361      119.243       23.762        0.040      336.381        7.644      857.697
12/17/2014  16:05:00     -116.203      -49.476       -0.008       37.302       37.085       24.785     1391.419     1375.271      614.320        0.967        0.169      126.297       19.461        0.024      336.395        7.666      857.727
12/17/2014  16:06:00     -112.916      -16.972        4.679       71.476       43.876       26.823     5108.759     1925.118      719.464        1.041        0.388      114.184       31.497        0.076      336.379        7.640      857.752
12/17/2014  16:07:00     -118.003      -67.458        4.847       82.530       73.633       41.598     6811.246     5421.808     1730.389        1.623        0.698      135.924       47.841        0.124      336.350        7.591      857.756
12/17/2014  16:08:00     -169.828      -35.017      -17.337       37.263       43.082       23.843     1388.565     1856.037      568.496        1.709        0.191      173.401       21.519        0.015      336.299        7.507      857.772
12/17/2014  16:09:00     -163.160      -47.891        1.826       59.745       49.306       30.028     3569.447     2431.092      901.690        1.791        0.345      170.043       29.330        0.030      336.325        7.549      857.799
12/17/2014  16:10:00     -178.601      -41.482       -1.707      116.978       80.300       59.009    13683.736     6448.076     3482.068        2.861        1.181      183.355       64.939        0.125      336.326        7.550      857.800
12/17/2014  16:11:00     -167.502      -77.438       -3.423       87.884       63.053       40.043     7723.564     3975.629     1603.482        2.368        0.665      184.536       43.377        0.055      336.277        7.468      857.799
12/17/2014  16:12:00     -172.882      -26.251        4.018      102.745      103.036       54.627    10556.605    10616.324     2984.136        2.737        1.208      174.864       53.882        0.095      336.444        7.746      857.808
12/17/2014  16:13:00     -310.600     -164.054       -7.172      161.657      148.379       69.339    26132.877    22016.466     4807.917        8.819        2.648      351.264       74.248        0.045      336.279        7.470      857.848
12/17/2014  16:14:00     -282.361     -153.375       -3.999      150.722      105.773       63.330    22717.241    11188.030     4010.703        7.058        1.896      321.328       70.824        0.049      336.205        7.347      857.860
12/17/2014  16:15:00     -144.194      -83.897        6.119      104.629      100.284       54.285    10947.179    10056.802     2946.854        2.590        1.198      166.825       51.733        0.096      336.255        7.431      857.873
12/17/2014  16:16:00     -243.588       24.719       -8.941       84.079       66.473       49.020     7069.200     4418.638     2402.966        3.696        0.695      244.839       50.310        0.042      336.264        7.446      857.884
12/17/2014  16:17:00     -163.348       -9.840      -12.968       87.662       58.602       46.982     7684.619     3434.166     2207.295        2.013        0.666      163.644       49.065        0.090      336.311        7.524      857.876
12/17/2014  16:18:00     -166.080      -28.620        4.039       88.048       86.387       45.484     7752.461     7462.766     2068.756        2.285        0.864      168.528       47.834        0.081      336.241        7.409      857.872
12/17/2014  16:19:00     -159.479      -71.644       -4.270      118.331       96.933       48.970    14002.285     9396.003     2398.071        2.819        1.290      174.833       49.204        0.079      336.251        7.426      857.870
12/17/2014  16:20:00     -175.198      -88.185       -4.385      114.037       65.102       45.152    13004.527     4238.233     2038.677        2.888        0.964      196.140       55.271        0.079      336.128        7.220      857.873
12/17/2014  16:21:00     -115.262      -35.267        1.122       52.789       38.939       30.284     2786.665     1516.274      917.134        0.987        0.261      120.536       22.831        0.036      336.125        7.217      857.873
12/17/2014  16:22:00      -74.555      -79.818        9.106       74.623       67.222       45.637     5568.527     4518.737     2082.739        1.209        0.609      109.221       49.494        0.205      336.171        7.293      857.882
12/17/2014  16:23:00     -194.774      -83.247       -9.798       50.548       78.189       32.238     2555.088     6113.495     1039.292        2.733        0.485      211.818       34.524        0.027      336.152        7.258      857.888
12/17/2014  16:24:00     -128.839      -30.489       -2.439       71.906       55.250       35.487     5170.494     3052.586     1259.340        1.351        0.474      132.397       36.768        0.077      336.216        7.367      857.900
12/17/2014  16:25:00     -209.786     -134.710       -4.661       70.746       77.819       44.153     5005.015     6055.771     1949.479        3.759        0.651      249.313       31.899        0.016      336.163        7.277      857.912
12/17/2014  16:26:00     -165.244      -68.024        2.079      151.312       89.066       73.927    22895.384     7932.821     5465.268        3.411        1.815      178.698       92.262        0.267      336.172        7.294      857.899
12/17/2014  16:27:00     -182.731      -42.592       -2.152       84.906       66.771       47.690     7209.012     4458.327     2274.346        2.457        0.697      187.630       42.994        0.053      336.147        7.252      857.905
12/17/2014  16:28:00     -138.633     -123.098       -0.852      106.447       98.133       53.020    11330.934     9630.002     2811.142        2.907        1.189      185.397       58.428        0.099      336.166        7.283      857.899
12/17/2014  16:29:00     -203.814     -119.480       -8.087       97.012       56.646       50.524     9411.353     3208.718     2552.669        3.552        0.759      236.253       46.694        0.039      336.146        7.248      857.894
12/17/2014  16:30:00     -192.244     -145.730        2.406       95.148       85.936       57.275     9053.207     7385.034     3280.477        3.896        0.986      241.236       55.918        0.054      336.128        7.219      857.895
12/17/2014  16:31:00     -132.374      -85.535       -2.613       76.100       52.820       33.808     5791.261     2789.964     1142.952        1.728        0.486      157.604       31.363        0.040      336.134        7.231      857.901
12/17/2014  16:32:00     -285.101      -88.854      -27.181      127.581       72.082       50.201    16276.999     5195.826     2520.115        5.695        1.200      298.627       51.431        0.030      336.097        7.168      857.919
12/17/2014  16:33:00      -95.056     -111.496      -10.298       62.149       41.096       31.193     3862.543     1688.885      972.979        1.405        0.326      146.516       28.223        0.037      336.161        7.276      857.926
12/17/2014  16:34:00     -159.911      -78.716        1.948       99.853       68.020       45.175     9970.675     4626.787     2040.758        2.420        0.832      178.235       48.675        0.075      336.108        7.184      857.932
12/17/2014  16:35:00     -153.071      -93.013       -3.462       58.150       69.153       38.339     3381.479     4782.120     1469.904        2.086        0.482      179.115       35.507        0.039      336.106        7.183      857.941
12/17/2014  16:36:00     -106.406     -106.025       20.437      107.861       88.635       52.023    11634.001     7856.242     2706.434        2.258        1.110      150.211       69.223        0.212      336.144        7.247      857.975
12/17/2014  16:37:00     -322.097      -31.624      -11.556      137.922      100.285       59.525    19022.449    10057.081     3543.264        6.874        1.631      323.645       55.382        0.029      336.182        7.309      857.983
12/17/2014  16:38:00     -196.460      -36.630       -1.230      100.096       89.932       44.833    10019.171     8087.683     2010.008        3.002        1.006      199.845       46.520        0.054      336.171        7.292      858.008
12/17/2014  16:39:00     -285.036     -165.634      -15.573      148.831       82.433       61.518    22150.656     6795.164     3784.438        7.082        1.637      329.667       68.859        0.044      336.065        7.113      858.022
12/17/2014  16:40:00     -116.341      -56.889        9.907      113.026       73.360       44.061    12774.860     5381.753     1941.347        1.848        1.005      129.505       59.033        0.208      336.109        7.189      858.015
12/17/2014  16:41:00     -155.677      -42.177       -7.433      136.663       66.406       56.170    18676.650     4409.772     3155.027        2.615        1.312      161.289       61.110        0.144      336.179        7.306      858.022
12/17/2014  16:42:00     -284.739      -32.723      -14.630      112.078       89.450       51.424    12561.553     8001.254     2644.457        5.278        1.160      286.613       54.147        0.036      336.082        7.142      858.019
12/17/2014  16:43:00     -416.338       10.826      -18.660      156.934       95.614       75.049    24628.390     9142.119     5632.426       10.659        1.970      416.478       84.871        0.042      336.044        7.078      858.019
12/17/2014  16:44:00     -218.667      -13.796       -2.370      111.541      107.055       53.407    12441.340    11460.827     2852.317        3.738        1.338      219.101       51.820        0.056      336.045        7.081      858.042
12/17/2014  16:45:00     -281.989      -57.260       -4.358      150.027      118.497       60.928    22508.075    14041.516     3712.242        6.153        2.013      287.744       70.908        0.061      336.080        7.138      858.054
12/17/2014  16:46:00     -296.657      -93.493      -17.548      154.964      120.994       76.973    24013.742    14639.599     5924.858        7.081        2.229      311.041       83.957        0.073      335.997        6.999      858.059
12/17/2014  16:47:00     -107.088      -39.091        7.321      128.992       88.381       50.785    16639.027     7811.121     2579.095        2.003        1.351      114.000       51.086        0.201      336.031        7.059      858.091
12/17/2014  16:48:00     -282.286      -58.037      -17.291      132.306      118.370       54.077    17504.753    14011.367     2924.300        5.889        1.722      288.190       48.474        0.028      336.005        7.014      858.120
12/17/2014  16:49:00     -258.953      -32.773      -10.360       84.044       80.069       49.377     7063.314     6411.037     2438.098        4.207        0.796      261.019       48.818        0.035      336.035        7.063      858.159
12/17/2014  16:50:00     -303.148      -71.123      -20.148      117.891       83.567       52.189    13898.365     6983.435     2723.730        6.048        1.180      311.380       48.774        0.025      335.990        6.987      858.168
12/17/2014  16:51:00     -229.852      -71.835      -12.295       95.175       77.174       41.837     9058.211     5955.752     1750.350        3.745        0.838      240.816       43.467        0.033      335.968        6.952      858.175
12/17/2014  16:52:00     -235.596      -52.953      -14.923      134.777       83.226       48.902    18164.787     6926.630     2391.364        4.300        1.374      241.474       54.806        0.052      335.957        6.935      858.193
12/17/2014  16:53:00     -281.491       18.392      -27.357      122.007       63.977       56.375    14885.731     4093.060     3178.176        5.124        1.108      282.091       59.359        0.044      336.002        7.008      858.203
12/17/2014  16:54:00     -204.381      -60.593        2.556      110.535       85.824       45.278    12217.937     7365.688     2050.137        3.354        1.082      213.174       54.322        0.065      335.964        6.946      858.216
12/17/2014  16:55:00     -166.003      -11.062      -13.475      118.443       95.366       48.619    14028.673     9094.633     2363.834        2.667        1.274      166.371       50.646        0.093      335.988        6.985      858.235
12/17/2014  16:56:00      -61.000      -28.483       37.294       94.662       76.729       60.058     8960.818     5887.269     3607.010        1.219        0.923       67.322       63.050        0.877      336.053        7.095      858.237
12/17/2014  16:57:00     -209.535     -106.827      -11.043      141.642       95.551       65.997    20062.495     9130.002     4355.575        4.449        1.677      235.195       70.934        0.091      335.965        6.946      858.234
12/17/2014  16:58:00     -252.265      -31.568      -15.050      143.963       93.595       58.363    20725.250     8760.086     3406.297        4.887        1.645      254.233       73.130        0.083      335.976        6.964      858.255
12/17/2014  16:59:00     -334.589      -41.168      -33.584      150.067       97.302       47.465    22520.016     9467.699     2252.949        7.450        1.712      337.113       37.214        0.012      335.992        6.993      858.248
12/17/2014  17:00:00     -375.292       38.840      -39.118      125.656       93.849       59.811    15789.456     8807.596     3577.401        8.602        1.409      377.297       53.742        0.020      336.014        7.030      858.233
12/17/2014  17:01:00     -308.771       32.213      -18.117       88.923       83.179       45.359     7907.364     6918.723     2057.421        5.679        0.844      310.447       37.164        0.014      336.013        7.027      858.246
12/17/2014  17:02:00     -156.661      -42.021       -5.504       84.979       68.195       43.802     7221.385     4650.602     1918.649        2.006        0.690      162.199       40.104        0.061      336.056        7.099      858.245
12/17/2014  17:03:00     -102.048      -81.162       -1.970      105.381      122.178       56.572    11105.073    14927.350     3200.422        2.311        1.462      130.388       55.341        0.180      336.009        7.023      858.233
12/17/2014  17:04:00      -62.130       -6.741       21.084       81.976       60.179       55.855     6720.039     3621.514     3119.819        0.890        0.673       62.494       38.329        0.376      336.041        7.075      858.220
12/17/2014  17:05:00     -204.134      -71.970       -2.002      173.422       99.182       50.987    30075.076     9837.041     2599.707        4.467        2.126      216.449       70.267        0.105      335.949        6.921      858.239
12/17/2014  17:06:00     -287.941      -79.057       -9.273      122.660      106.889       50.042    15045.466    11425.295     2504.172        5.910        1.449      298.597       50.780        0.029      335.867        6.783      858.232
12/17/2014  17:07:00     -239.024     -149.007      -16.543      107.234       97.098       55.592    11499.121     9427.931     3090.437        5.181        1.201      281.665       51.049        0.033      335.877        6.799      858.234
12/17/2014  17:08:00     -199.078      -42.021      -18.298      101.336       97.639       54.646    10268.981     9533.372     2986.232        3.226        1.139      203.465       39.340        0.037      335.896        6.831      858.240
12/17/2014  17:09:00     -328.705      -89.050      -10.336      143.284       94.065       60.669    20530.293     8848.318     3680.708        7.456        1.653      340.554       67.448        0.039      335.852        6.760      858.260
12/17/2014  17:10:00     -247.361      -24.084       -5.333      123.012      104.107       57.380    15131.900    10838.248     3292.429        4.552        1.463      248.531       49.154        0.039      335.962        6.942      858.280
12/17/2014  17:11:00     -221.971      -33.924       -7.946      107.593       88.669       66.462    11576.323     7862.179     4417.153        3.717        1.193      224.549       67.507        0.090      335.892        6.824      858.280
12/17/2014  17:12:00     -219.213      -79.501      -15.881      146.206       85.084       59.780    21376.075     7239.250     3573.694        4.340        1.609      233.184       61.770        0.070      335.861        6.773      858.306
12/17/2014  17:13:00     -123.547      -87.984       -0.901      126.417      110.842       64.111    15981.253    12285.894     4110.205        2.769        1.619      151.674       60.533        0.159      335.885        6.814      858.311
12/17/2014  17:14:00     -284.097     -165.379      -26.466      135.050      103.147       63.322    18238.471    10639.210     4009.617        7.082        1.644      328.727       61.767        0.035      335.842        6.740      858.318
12/17/2014  17:15:00     -243.151        9.114       -4.790      196.850       73.882       57.050    38749.735     5458.555     3254.698        5.334        2.373      243.322       73.020        0.090      335.914        6.863      858.310
12/17/2014  17:16:00     -255.753     -140.950       -0.589      139.110      125.525       64.848    19351.730    15756.590     4205.309        6.229        1.966      292.021       69.751        0.057      335.840        6.738      858.298
12/17/2014  17:17:00     -205.688       -4.048       10.165      138.705      112.932       81.066    19239.115    12753.672     6571.623        4.049        1.928      205.728       86.602        0.177      335.910        6.855      858.310
12/17/2014  17:18:00     -252.631      -91.140       -6.400      177.149      120.132       63.064    31381.883    14431.616     3977.009        6.097        2.490      268.568       76.109        0.080      335.835        6.730      858.317
12/17/2014  17:19:00     -274.171      -57.274       -2.583      157.857      115.725       70.440    24918.909    13392.377     4961.857        6.086        2.164      280.090       77.525        0.077      335.857        6.767      858.285
12/17/2014  17:20:00     -323.776      -82.185      -17.476      122.964      108.314       69.204    15120.220    11731.977     4789.185        7.176        1.582      334.044       70.541        0.045      335.824        6.710      858.291
12/17/2014  17:21:00     -298.477      -50.464      -15.591      150.616      115.867       65.644    22685.222    13425.148     4309.182        6.614        2.021      302.713       71.294        0.055      335.894        6.829      858.310
12/17/2014  17:22:00     -173.739      -60.207       -3.819      133.262       86.000       70.477    17758.661     7395.920     4966.942        3.197        1.506      183.875       79.731        0.188      335.838        6.736      858.308
12/17/2014  17:23:00     -120.063        3.382       10.116       87.211       76.410       53.745     7605.704     5838.451     2888.488        1.543        0.817      120.110       43.948        0.134      335.954        6.930      858.305
12/17/2014  17:24:00     -138.497      -49.953       -6.170       87.791       76.579       43.389     7707.267     5864.304     1882.590        1.858        0.773      147.230       44.383        0.091      335.896        6.833      858.322
12/17/2014  17:25:00     -341.666      -49.181      -21.347       83.672       74.743       51.822     7001.011     5586.588     2685.500        6.744        0.764      345.187       47.569        0.019      335.841        6.740      858.326
12/17/2014  17:26:00     -278.012      -61.746      -16.782       94.702      111.193       52.394     8968.557    12363.983     2745.148        5.273        1.204      284.786       49.223        0.030      335.817        6.700      858.325
12/17/2014  17:27:00     -247.550        4.863       -7.253      110.793       91.687       65.186    12275.116     8406.573     4249.200        4.314        1.247      247.598       62.821        0.064      335.909        6.853      858.334
12/17/2014  17:28:00     -351.935       20.469      -14.189      139.057      100.127       51.237    19336.860    10025.333     2625.218        7.823        1.599      352.530       43.115        0.015      335.862        6.774      858.341
12/17/2014  17:29:00     -279.249       -8.648       -7.392      136.101       94.113       54.071    18523.354     8857.311     2923.655        5.420        1.515      279.383       62.796        0.051      335.809        6.687      858.348
12/17/2014  17:30:00     -328.824      -40.801      -18.369       90.613      128.277       56.786     8210.713    16455.063     3224.693        6.900        1.395      331.346       44.240        0.018      335.819        6.702      858.355
12/17/2014  17:31:00     -269.936      -33.888       -5.429       87.993      108.574       64.037     7742.794    11788.368     4100.717        4.883        1.182      272.055       53.190        0.038      335.793        6.659      858.347
12/17/2014  17:32:00     -253.212      -21.398      -10.673      117.561       86.736       50.278    13820.697     7523.113     2527.874        4.428        1.194      254.114       53.065        0.044      335.781        6.641      858.360
12/17/2014  17:33:00     -289.302      -39.714      -12.365      112.523       99.571       54.455    12661.419     9914.469     2965.368        5.548        1.277      292.015       54.387        0.035      335.756        6.599      858.365
12/17/2014  17:34:00     -379.048      -33.114      -31.462      112.691       95.059       54.239    12699.180     9036.222     2941.833        8.522        1.234      380.492       53.154        0.020      335.772        6.624      858.360
12/17/2014  17:35:00     -188.317      -68.885        1.482      119.908       96.497       50.164    14377.902     9311.654     2516.409        3.320        1.310      200.520       56.160        0.078      335.720        6.540      858.365
12/17/2014  17:36:00     -210.758      -86.879       -5.636      112.763      109.893       51.074    12715.475    12076.396     2608.593        3.969        1.370      227.962       49.014        0.046      335.692        6.492      858.376
12/17/2014  17:37:00     -235.798      -42.284      -12.769       79.690      103.581       48.292     6350.457    10729.117     2332.137        3.848        0.971      239.559       48.614        0.041      335.718        6.536      858.389
12/17/2014  17:38:00     -147.163        1.031       15.548      124.448       77.240       56.543    15487.364     5966.011     3197.124        2.327        1.233      147.166       68.217        0.215      335.788        6.654      858.376
12/17/2014  17:39:00     -226.146      -81.426        6.326      110.636      104.633       49.782    12240.423    10947.995     2478.259        4.173        1.283      240.358       33.359        0.019      335.738        6.569      858.375
12/17/2014  17:40:00     -263.465        0.254      -17.652       94.317       84.493       45.719     8895.614     7139.072     2090.267        4.392        0.906      263.465       45.237        0.029      335.740        6.571      858.377
12/17/2014  17:41:00     -175.821       46.854       -2.315      120.613       88.101       55.341    14547.386     7761.868     3062.678        2.924        1.269      181.957       64.102        0.124      335.846        6.749      858.381
12/17/2014  17:42:00     -260.340      -23.158      -15.986      112.689      107.998       54.397    12698.905    11663.593     2959.082        4.794        1.366      261.368       52.656        0.041      335.794        6.661      858.389
12/17/2014  17:43:00     -319.836      -85.363       -9.393      115.990       76.942       53.914    13453.613     5920.134     2906.686        6.597        1.114      331.031       57.832        0.031      335.653        6.428      858.396
12/17/2014  17:44:00     -158.803      -58.939       12.632      115.762       83.405       47.450    13400.942     6956.432     2251.534        2.573        1.130      169.388       55.740        0.108      335.650        6.425      858.406
12/17/2014  17:45:00     -184.828      -38.193       -3.321       72.862       74.774       39.656     5308.842     5591.124     1572.610        2.405        0.624      188.733       24.679        0.017      335.728        6.552      858.421
12/17/2014  17:46:00     -232.449     -109.407       -1.908      100.464       78.897       45.885    10092.953     6224.744     2105.419        4.221        0.921      256.910       50.325        0.038      335.658        6.436      858.439
12/17/2014  17:47:00     -168.352      -51.188       -0.001      104.782       69.168       45.029    10979.233     4784.271     2027.654        2.437        0.890      175.962       48.837        0.077      335.666        6.450      858.455
12/17/2014  17:48:00     -250.087      -21.844      -19.199      108.841       71.247       50.205    11846.348     5076.109     2520.534        4.141        0.972      251.039       60.217        0.058      335.640        6.407      858.465
12/17/2014  17:49:00     -250.917       -8.790      -14.742      129.031       98.701       56.210    16648.921     9741.854     3159.514        4.640        1.478      251.071       68.038        0.073      335.711        6.525      858.448
12/17/2014  17:50:00     -219.033       10.908       -6.296      102.776       69.765       43.127    10562.840     4867.125     1859.919        3.271        0.864      219.304       48.680        0.049      335.747        6.585      858.440
12/17/2014  17:51:00     -221.768      -28.237      -12.542       94.001       67.378       42.839     8836.144     4539.772     1835.141        3.267        0.761      223.559       38.641        0.030      335.777        6.633      858.437
12/17/2014  17:52:00     -239.335       -8.245       -6.930       96.770       77.518       52.341     9364.392     6009.019     2739.587        3.775        0.906      239.477       58.500        0.060      335.659        6.436      858.430
12/17/2014  17:53:00     -171.611       -1.630       -5.088       90.615       59.951       42.429     8211.153     3594.107     1800.229        2.154        0.680      171.619       49.234        0.082      335.676        6.467      858.436
12/17/2014  17:54:00     -202.577      -60.232      -11.905       85.743       81.613       46.571     7351.864     6660.699     2168.855        3.049        0.809      211.341       41.708        0.039      335.641        6.408      858.441
12/17/2014  17:55:00     -216.850      -15.697      -11.048      118.991       82.395       47.674    14158.895     6788.950     2272.841        3.530        1.161      217.417       55.254        0.065      335.737        6.568      858.444
12/17/2014  17:56:00     -391.953      -27.792      -36.223       84.327       72.959       48.309     7111.002     5323.061     2333.800        8.524        0.738      392.937       42.671        0.012      335.658        6.435      858.444
12/17/2014  17:57:00     -309.445      -14.009       -8.795      113.960      116.291       60.606    12986.922    13523.618     3673.094        6.310        1.509      309.762       64.483        0.043      335.633        6.392      858.457
12/17/2014  17:58:00     -195.937      -49.177       -8.208       77.866       73.673       41.178     6063.079     5427.677     1695.608        2.703        0.659      202.014       41.111        0.041      335.671        6.457      858.469
12/17/2014  17:59:00     -190.686      -67.661       -3.300      115.812       84.749       51.165    13412.427     7182.424     2617.898        3.208        1.161      202.334       42.874        0.045      335.610        6.356      858.459
12/17/2014  18:00:00     -260.014      -49.912      -14.369       79.940       61.670       37.715     6390.446     3803.203     1422.421        4.096        0.581      264.761       35.677        0.018      335.612        6.358      858.455
12/17/2014  18:01:00     -198.928       -2.264       -8.087       88.248       79.227       40.821     7787.650     6276.863     1666.370        2.768        0.787      198.941       40.450        0.041      335.643        6.411      858.446
12/17/2014  18:02:00     -281.323      -54.537      -16.165       74.380       65.244       44.209     5532.458     4256.844     1954.447        4.706        0.587      286.561       40.875        0.020      335.582        6.308      858.453
12/17/2014  18:03:00     -229.506      -63.470      -10.381       70.777       64.149       42.228     5009.351     4115.157     1783.185        3.386        0.545      238.121       43.170        0.033      335.587        6.316      858.459
12/17/2014  18:04:00     -132.531      -70.164        7.034      117.670       77.875       42.583    13846.344     6064.489     1813.339        2.213        1.086      149.958       41.101        0.075      335.552        6.260      858.473
12/17/2014  18:05:00     -147.495      -51.264        1.329       71.883       64.240       39.357     5167.182     4126.806     1548.966        1.761        0.542      156.150       43.052        0.076      335.582        6.311      858.487
12/17/2014  18:06:00     -116.129      -48.516        4.320      109.466       71.718       36.488    11982.800     5143.467     1331.368        1.715        0.923      125.856       53.620        0.182      335.597        6.335      858.494
12/17/2014  18:07:00     -103.891      -87.942        5.397      100.924       65.725       39.986    10185.578     4319.808     1598.844        1.733        0.805      136.115       48.805        0.129      335.576        6.302      858.503
12/17/2014  18:08:00     -130.352     -102.356      -12.854      121.916       65.385       51.151    14863.422     4275.151     2616.471        2.469        1.088      165.736       49.652        0.090      335.597        6.335      858.510
12/17/2014  18:09:00     -128.101        3.211        1.359       68.975       75.260       38.302     4757.571     5663.996     1467.018        1.415        0.594      128.141       30.417        0.056      335.704        6.515      858.528
12/17/2014  18:10:00     -177.633      -86.379      -11.362       90.188       86.753       41.997     8133.919     7526.001     1763.787        2.828        0.871      197.521       34.220        0.030      335.597        6.336      858.536
12/17/2014  18:11:00      -82.595      -62.647       -2.297       32.666       32.930       20.600     1067.043     1084.398      424.347        0.666        0.129      103.666       21.363        0.042      335.605        6.351      858.532
12/17/2014  18:12:00      -92.545      -44.783        6.976       65.044       42.486       31.402     4230.716     1805.056      986.105        0.882        0.351      102.811       29.076        0.080      335.569        6.291      858.528
12/17/2014  18:13:00     -106.620      -24.585        0.910       40.554       32.012       19.603     1644.617     1024.775      384.283        0.751        0.153      109.418       20.907        0.037      335.561        6.278      858.530
12/17/2014  18:14:00     -102.485      -23.387       -2.400       64.292       51.895       28.346     4133.451     2693.115      803.510        0.934        0.382      105.119       30.240        0.083      335.518        6.204      858.542
12/17/2014  18:15:00      -49.740      -89.288        5.054       45.169       50.569       25.495     2040.195     2557.178      650.015        0.786        0.262      102.208       27.642        0.073      335.617        6.371      858.559
12/17/2014  18:16:00      -47.571      -71.496        7.280       61.437       50.850       39.147     3774.527     2585.713     1532.520        0.766        0.395       85.876       35.336        0.169      335.612        6.362      858.571
12/17/2014  18:17:00     -124.804      -41.423       -0.221       70.527       44.454       31.500     4974.113     1976.135      992.268        1.262        0.397      131.498       36.365        0.076      335.578        6.306      858.600
12/17/2014  18:18:00     -213.012      -35.281       -7.062       69.731       42.437       32.124     4862.426     1800.899     1031.939        2.718        0.385      215.915       29.190        0.018      335.591        6.324      858.621
12/17/2014  18:19:00     -211.158      -71.894      -10.677       61.588       41.500       34.521     3793.025     1722.288     1191.668        2.829        0.335      223.061       33.117        0.022      335.575        6.298      858.635
12/17/2014  18:20:00      -70.450      -35.873        3.278       50.333       26.994       20.030     2533.449      728.701      401.209        0.496        0.183       79.057       23.811        0.091      335.556        6.270      858.654
12/17/2014  18:21:00      -77.247      -51.408        0.699       39.704       48.009       21.515     1576.392     2304.847      462.901        0.648        0.217       92.789       20.588        0.049      335.573        6.297      858.657
12/17/2014  18:22:00      -54.034      -23.824       -7.657       15.780       20.552       13.779      249.010      422.372      189.866        0.220        0.043       59.053       11.192        0.036      335.600        6.342      858.663
12/17/2014  18:23:00      -47.947      -89.741        0.432       52.949       37.731       17.837     2803.610     1423.651      318.161        0.745        0.227      101.747       14.220        0.020      335.669        6.457      858.667
12/17/2014  18:24:00      -90.938      -90.969       14.393       60.056       48.008       38.830     3606.767     2304.750     1507.779        1.208        0.371      128.627       41.318        0.103      335.624        6.381      858.681
12/17/2014  18:25:00     -114.897     -104.166      -17.778       40.220       39.578       23.718     1617.684     1566.400      562.526        1.406        0.187      155.086       19.696        0.016      335.587        6.320      858.698
12/17/2014  18:26:00     -112.439      -57.063       10.716       52.712       40.821       22.625     2778.507     1666.345      511.891        1.048        0.248      126.090       21.025        0.028      335.535        6.233      858.723
12/17/2014  18:27:00     -100.194      -60.855       -2.058       28.637       32.918       20.682      820.097     1083.624      427.745        0.804        0.117      117.227       11.803        0.010      335.581        6.311      858.744
12/17/2014  18:28:00      -57.302     -117.708       14.038       71.966       72.116       37.477     5179.058     5200.716     1404.490        1.456        0.589      130.915       41.571        0.101      335.609        6.356      858.766
12/17/2014  18:29:00     -111.094     -133.139      -13.931       56.129       71.363       24.135     3150.518     5092.629      582.507        1.954        0.441      173.401       26.440        0.023      335.576        6.299      858.782
12/17/2014  18:30:00     -121.947      -96.800       -8.782       53.328       54.152       30.867     2843.831     2932.396      952.748        1.552        0.336      155.697       28.426        0.033      335.558        6.273      858.791
12/17/2014  18:31:00      -58.393      -87.308        1.494       92.159       53.546       31.122     8493.317     2867.209      968.567        1.168        0.616      105.035       24.249        0.053      335.610        6.358      858.800
12/17/2014  18:32:00      -62.861      -50.904       -6.800       42.938       30.767       22.946     1843.661      946.633      526.517        0.495        0.166       80.887       17.283        0.046      335.614        6.366      858.821
12/17/2014  18:33:00     -112.986      -81.627       -2.624       35.249       42.911       19.286     1242.526     1841.315      371.936        1.145        0.173      139.387       11.836        0.007      335.595        6.334      858.836
12/17/2014  18:34:00      -79.430     -126.873       -3.728       54.476       42.502       28.842     2967.683     1806.428      831.876        1.401        0.280      149.686       18.704        0.016      335.599        6.341      858.856
12/17/2014  18:35:00     -162.929     -102.653       -7.003       81.320       55.487       36.496     6612.940     3078.763     1331.978        2.408        0.551      192.571       37.383        0.038      335.548        6.253      858.873
12/17/2014  18:36:00     -151.881      -82.251       -0.514       83.824       62.078       37.432     7026.427     3853.714     1401.173        2.105        0.614      172.723       35.218        0.042      335.498        6.169      858.903
12/17/2014  18:37:00     -129.879      -54.532       -5.877       49.898       40.875       23.695     2489.817     1670.764      561.438        1.230        0.236      140.863       24.044        0.029      335.549        6.256      858.926
12/17/2014  18:38:00      -80.034      -31.231        0.254       46.126       43.734       23.131     2127.613     1912.667      535.047        0.598        0.229       85.911       25.797        0.090      335.550        6.258      858.942
12/17/2014  18:39:00      -51.846      -11.422       -1.063       36.593       25.577       24.708     1339.078      654.158      610.510        0.271        0.130       53.090       15.866        0.089      335.535        6.235      858.943
12/17/2014  18:40:00      -56.064      -40.429       -1.854       45.416       21.591       14.871     2062.592      466.188      221.146        0.376        0.137       69.121        7.589        0.012      335.561        6.277      858.966
12/17/2014  18:41:00     -112.128      -51.734       -6.265       41.385       25.772       18.731     1712.688      664.203      350.848        0.901        0.136      123.487       14.131        0.013      335.547        6.253      858.991
12/17/2014  18:42:00     -130.175      -29.939       -2.586       57.419       33.146       25.768     3296.902     1098.674      664.008        1.145        0.253      133.573       29.906        0.050      335.509        6.190      859.014
12/17/2014  18:43:00     -131.243      -33.196      -15.937       18.631       18.765       13.732      347.115      352.129      188.557        0.973        0.044      135.376        5.970        0.002      335.548        6.255      859.039
12/17/2014  18:44:00      -89.009      -47.307        5.437       51.253       36.422       19.942     2626.895     1326.541      397.689        0.727        0.218      100.800       23.277        0.053      335.522        6.211      859.054
12/17/2014  18:45:00     -106.669      -19.897        3.502       60.978       30.993       25.696     3718.285      960.582      660.301        0.856        0.267      108.509       28.668        0.070      335.521        6.209      859.055
12/17/2014  18:46:00     -157.737      -83.301      -12.705       70.329       48.964       34.750     4946.126     2397.460     1207.533        2.026        0.428      178.382       33.736        0.036      335.468        6.119      859.052
12/17/2014  18:47:00     -215.074      -65.953       -5.690       71.594       56.941       32.261     5125.635     3242.227     1040.776        3.002        0.470      224.959       31.880        0.020      335.415        6.030      859.053
12/17/2014  18:48:00     -207.725      -61.589      -11.833       65.431       39.903       28.144     4281.219     1592.238      792.103        2.687        0.333      216.663       24.320        0.013      335.439        6.071      859.068
12/17/2014  18:49:00     -113.525      -19.984       -3.324       50.335       27.557       21.103     2533.662      759.413      445.340        0.852        0.187      115.270       18.898        0.027      335.425        6.050      859.077
12/17/2014  18:50:00      -78.118      -37.423       -3.574       55.142       41.675       29.295     3040.692     1736.787      858.177        0.657        0.282       86.620       30.428        0.123      335.505        6.183      859.077
12/17/2014  18:51:00      -38.335      -53.828        7.983       36.132       27.479       15.040     1305.527      755.068      226.200        0.336        0.114       66.084       15.956        0.058      335.521        6.210      859.087
12/17/2014  18:52:00      -82.841      -47.339        6.330       58.795       84.435       32.566     3456.893     7129.349     1060.575        1.039        0.582       95.413       35.799        0.141      335.503        6.179      859.085
12/17/2014  18:53:00      -43.221      -70.438        2.871       74.718       60.865       34.192     5582.843     3704.497     1169.108        0.865        0.523       82.641       37.983        0.211      335.484        6.149      859.097
12/17/2014  18:54:00      -46.121      -55.095       11.912       48.034       41.092       27.553     2307.293     1688.567      759.188        0.503        0.238       71.852       22.281        0.096      335.459        6.105      859.128
12/17/2014  18:55:00     -136.521      -81.446       -7.428       49.967       30.983       26.757     2496.749      959.930      715.933        1.475        0.209      158.970       20.432        0.017      335.439        6.073      859.155
12/17/2014  18:56:00     -124.466      -56.634        0.752       69.439       34.038       26.729     4821.824     1158.577      714.465        1.270        0.335      136.745       33.078        0.059      335.449        6.089      859.172
12/17/2014  18:57:00     -147.725     -113.021       -6.241       69.886       45.333       28.412     4883.998     2055.097      807.231        2.119        0.387      186.001       38.117        0.042      335.431        6.058      859.193
12/17/2014  18:58:00     -138.929      -62.141       -9.088       67.952       42.466       29.133     4617.504     1803.397      848.750        1.526        0.363      152.193       24.173        0.025      335.415        6.032      859.207
12/17/2014  18:59:00     -136.958     -115.640        7.623       86.352       71.774       46.975     7456.726     5151.530     2206.695        2.350        0.741      179.249       53.267        0.088      335.414        6.029      859.220
12/17/2014  19:00:00      -85.632      -75.336        5.735       61.154       48.748       36.182     3739.832     2376.328     1309.172        1.023        0.371      114.054       32.097        0.079      335.459        6.106      859.232
12/17/2014  19:01:00      -87.047      -46.446        0.648       65.422       35.730       23.826     4280.012     1276.651      567.669        0.793        0.306       98.663       21.467        0.047      335.476        6.135      859.246
12/17/2014  19:02:00     -141.169     -111.845       -1.254       59.523       41.483       38.605     3542.945     1720.877     1490.378        1.960        0.338      180.106       27.518        0.023      335.477        6.136      859.263
12/17/2014  19:03:00     -192.015     -104.690       -7.879       40.182       62.529       31.110     1614.624     3909.817      967.828        2.719        0.325      218.700       26.050        0.014      335.460        6.104      859.279
12/17/2014  19:04:00      -92.979      -23.700       -0.957       57.676       36.667       25.877     3326.474     1344.475      669.597        0.727        0.267       95.952       29.011        0.091      335.418        6.038      859.290
12/17/2014  19:05:00      -38.874      -23.942       19.096       36.213       24.379       22.174     1311.372      594.340      491.674        0.242        0.120       45.655       17.957        0.155      335.401        6.009      859.301
12/17/2014  19:06:00      -86.850      -18.124        4.983       39.012       24.679       17.998     1521.961      609.042      323.916        0.518        0.123       88.721       21.106        0.057      335.451        6.093      859.299
12/17/2014  19:07:00     -119.062      -43.492       -5.486       59.239       47.212       29.948     3509.301     2228.986      896.894        1.136        0.332      126.757       34.099        0.072      335.446        6.086      859.307
12/17/2014  19:08:00     -137.440      -68.244       -0.091       59.017       53.738       32.849     3483.046     2887.824     1079.069        1.550        0.372      153.450       30.570        0.040      335.442        6.077      859.313
12/17/2014  19:09:00      -79.296      -60.478        4.346       63.128       58.949       30.800     3985.124     3475.016      948.640        0.918        0.420       99.727       20.322        0.042      335.468        6.121      859.315
12/17/2014  19:10:00     -139.882     -102.475       -3.936       64.450       63.617       44.251     4153.832     4047.111     1958.142        2.012        0.508      173.402       35.550        0.042      335.489        6.155      859.323
12/17/2014  19:11:00      -75.974      -85.987      -11.739       69.832       58.476       42.533     4876.574     3419.440     1809.044        1.170        0.505      114.742       42.039        0.134      335.484        6.148      859.332
12/17/2014  19:12:00     -163.804      -88.262        0.306       73.974       62.907       34.780     5472.201     3957.310     1209.642        2.263        0.532      186.070       35.953        0.037      335.482        6.142      859.331
12/17/2014  19:13:00     -161.903      -54.189       -2.965       62.934       53.584       33.425     3960.673     2871.275     1117.237        1.855        0.397      170.731       32.935        0.037      335.468        6.121      859.347
12/17/2014  19:14:00     -208.590      -49.276       -6.338       83.225       84.438       40.351     6926.363     7129.701     1628.189        3.083        0.784      214.331       43.525        0.041      335.492        6.159      859.344
12/17/2014  19:15:00     -151.226      -76.715       -7.663      100.433       70.442       42.544    10086.835     4962.030     1810.001        2.283        0.843      169.572       51.229        0.091      335.519        6.203      859.326
12/17/2014  19:16:00     -168.249      -62.364       -6.016       58.122       44.847       30.080     3378.118     2011.269      904.823        1.926        0.315      179.435       23.632        0.017      335.576        6.300      859.327
12/17/2014  19:17:00     -123.023      -27.261       -7.416       44.912       49.970       33.510     2017.043     2496.966     1122.899        1.078        0.282      126.007       31.929        0.064      335.509        6.189      859.321
12/17/2014  19:18:00     -154.187      -60.375        1.172       52.750       45.203       26.920     2782.578     2043.354      724.689        1.648        0.278      165.586       25.548        0.024      335.487        6.153      859.341
12/17/2014  19:19:00     -102.943      -20.184        3.908       51.517       46.086       29.593     2653.952     2123.900      875.716        0.834        0.283      104.903       22.648        0.047      335.505        6.183      859.364
12/17/2014  19:20:00      -82.532      -32.285        8.189       57.173       43.140       29.576     3268.717     1861.048      874.721        0.696        0.300       88.622       27.366        0.095      335.472        6.128      859.392
12/17/2014  19:21:00     -130.109      -46.920       -4.354       53.185       33.812       21.341     2828.689     1143.242      455.425        1.179        0.221      138.311       22.533        0.027      335.497        6.171      859.420
12/17/2014  19:22:00      -83.044      -41.614        3.128       57.445       34.408       23.360     3299.943     1183.906      545.673        0.683        0.251       92.887       15.273        0.027      335.467        6.118      859.444
12/17/2014  19:23:00      -78.890      -87.942        4.028       46.803       37.689       28.922     2190.561     1420.497      836.476        0.921        0.222      118.142       30.327        0.066      335.515        6.199      859.465
12/17/2014  19:24:00     -119.211     -152.452       -1.397       65.472       59.938       36.709     4286.619     3592.522     1347.544        2.334        0.461      193.528       37.508        0.038      335.514        6.195      859.483
12/17/2014  19:25:00     -189.820     -115.770      -14.094       71.452       33.912       34.656     5105.361     1150.038     1201.071        2.854        0.373      222.338       34.363        0.024      335.491        6.156      859.486
12/17/2014  19:26:00     -137.417      -94.614        0.033       67.697       47.971       30.656     4582.936     2301.220      939.770        1.783        0.391      166.839       36.961        0.049      335.471        6.126      859.494
12/17/2014  19:27:00     -160.174      -16.631      -12.722       62.098       53.421       28.993     3856.114     2853.812      840.599        1.682        0.378      161.036       24.281        0.023      335.490        6.159      859.500
12/17/2014  19:28:00     -131.858      -90.230      -10.122       39.901       39.296       23.337     1592.060     1544.161      544.625        1.465        0.184      159.774       15.919        0.010      335.512        6.195      859.493
12/17/2014  19:29:00      -77.816      -64.891       -2.758       62.811       42.273       32.245     3945.241     1787.024     1039.762        0.852        0.339      101.323       39.169        0.149      335.474        6.132      859.478
12/17/2014  19:30:00     -148.511      -35.791      -14.511       29.462       44.350       23.145      868.005     1966.909      535.683        1.346        0.169      152.763       20.184        0.017      335.462        6.111      859.469
12/17/2014  19:31:00     -177.256      -64.872       -6.362       47.922       42.459       29.749     2296.533     1802.738      884.986        2.033        0.249      188.754       29.272        0.024      335.397        6.003      859.450
12/17/2014  19:32:00     -195.332      -74.263       -5.053       62.086       63.058       30.331     3854.617     3976.366      919.953        2.622        0.438      208.973       35.625        0.029      335.445        6.079      859.439
12/17/2014  19:33:00     -195.788      -62.550        6.138       83.986       67.726       37.363     7053.603     4586.763     1395.958        2.766        0.652      205.537       33.846        0.027      335.454        6.096      859.457
12/17/2014  19:34:00     -206.775      -87.205       -0.293       80.355       81.746       39.708     6456.958     6682.379     1576.695        3.254        0.736      224.411       38.409        0.029      335.502        6.175      859.462
12/17/2014  19:35:00     -261.277     -164.011      -16.004       91.131       62.481       48.912     8304.919     3903.853     2392.379        5.501        0.730      308.489       53.103        0.030      335.545        6.247      859.485
12/17/2014  19:36:00     -172.384      -87.557      -12.427       70.245       51.268       39.502     4934.395     2628.411     1560.403        2.333        0.456      193.346       39.012        0.041      335.516        6.200      859.489
12/17/2014  19:37:00     -170.109      -20.836       -0.486       70.623       49.367       32.942     4987.639     2437.115     1085.196        1.894        0.425      171.380       33.883        0.039      335.434        6.063      859.493
12/17/2014  19:38:00     -167.277      -29.029       -7.600       80.202       53.954       36.285     6432.354     2911.088     1316.584        1.977        0.533      169.777       40.091        0.056      335.486        6.149      859.496
12/17/2014  19:39:00     -228.367       12.363      -14.135       86.958       50.513       34.295     7561.760     2551.546     1176.143        3.189        0.564      228.701       36.667        0.026      335.660        6.438      859.480
12/17/2014  19:40:00     -160.842      -29.574        5.164      103.871       66.329       47.199    10789.199     4399.599     2227.719        2.209        0.871      163.538       47.293        0.084      335.493        6.162      859.467
12/17/2014  19:41:00     -137.045      -96.678       -4.414       64.410       59.906       34.861     4148.686     3588.749     1215.268        1.855        0.448      167.714       35.502        0.045      335.477        6.136      859.483
12/17/2014  19:42:00     -187.885      -87.751       -6.617       80.533       59.228       43.537     6485.534     3507.931     1895.442        2.746        0.594      207.367       43.010        0.043      335.457        6.102      859.486
12/17/2014  19:43:00     -204.976      -47.761       -6.866       84.202       83.854       48.708     7089.942     7031.510     2372.469        3.042        0.825      210.467       42.368        0.041      335.475        6.132      859.507
12/17/2014  19:44:00     -279.445      -56.702       -8.950       78.939       88.762       49.645     6231.433     7878.703     2464.643        4.898        0.829      285.140       45.675        0.026      335.503        6.176      859.518
12/17/2014  19:45:00     -194.391      -69.956      -13.051      128.056       94.182       58.121    16398.352     8870.241     3378.060        3.574        1.432      206.596       66.392        0.103      335.459        6.105      859.532
12/17/2014  19:46:00     -153.308      -78.959        4.546      104.265       73.287       61.453    10871.230     5371.019     3776.499        2.488        1.001      172.447       56.433        0.107      335.442        6.076      859.547
12/17/2014  19:47:00     -253.248     -105.645      -12.250       66.756       76.384       42.174     4456.339     5834.463     1778.687        4.375        0.603      274.400       37.481        0.019      335.432        6.057      859.564
12/17/2014  19:48:00     -208.189      -33.906        7.695      109.444      108.183       51.556    11977.958    11703.547     2658.016        3.544        1.317      210.932       46.369        0.048      335.524        6.212      859.571
12/17/2014  19:49:00     -265.382      -28.019      -21.983      120.782       88.606       60.353    14588.280     7850.967     3642.439        4.888        1.304      266.857       64.984        0.059      335.531        6.224      859.580
12/17/2014  19:50:00     -136.365      -34.522       -1.628      116.354       70.038       44.514    13538.297     4905.291     1981.527        2.010        1.021      140.667       55.965        0.158      335.533        6.229      859.599
12/17/2014  19:51:00     -132.467       -8.060       -4.035       75.395       52.824       27.786     5684.337     2790.397      772.084        1.344        0.462      132.712       34.121        0.066      335.527        6.218      859.597
12/17/2014  19:52:00     -219.580      -63.336      -19.120       69.315       71.470       35.276     4804.611     5107.934     1244.363        3.187        0.558      228.532       35.160        0.024      335.502        6.176      859.589
12/17/2014  19:53:00     -191.107      -60.974       -5.090       49.138       48.073       37.220     2414.582     2311.008     1385.335        2.319        0.306      200.598       30.718        0.023      335.440        6.074      859.602
12/17/2014  19:54:00     -173.822      -47.435       -4.199       85.304       77.320       40.276     7276.824     5978.390     1622.164        2.368        0.744      180.178       44.588        0.061      335.454        6.096      859.628
12/17/2014  19:55:00     -261.748       20.238      -13.810       86.988       72.642       37.639     7566.989     5276.916     1416.664        4.168        0.713      262.529       38.723        0.022      335.612        6.358      859.634
12/17/2014  19:56:00     -172.587      -21.502      -14.693       84.662       46.155       31.859     7167.624     2130.245     1014.969        2.039        0.516      173.921       30.456        0.031      335.650        6.422      859.640
12/17/2014  19:57:00     -107.641      -45.844       -7.638       52.418       42.991       26.530     2747.618     1848.201      703.827        0.952        0.265      116.996       24.420        0.044      335.552        6.261      859.642
12/17/2014  19:58:00     -113.263        5.941       -2.300       36.306       71.534       33.008     1318.159     5117.164     1089.552        1.020        0.376      113.418       23.018        0.041      335.667        6.453      859.638
12/17/2014  19:59:00      -82.610      -30.265        7.212       83.244       41.198       37.244     6929.534     1697.309     1387.103        0.890        0.501       87.980       47.101        0.287      335.540        6.241      859.632
12/17/2014  20:00:00     -118.785      -52.356       -0.625       91.322       52.046       31.892     8339.785     2708.813     1017.094        1.446        0.603      129.812       35.500        0.075      335.553        6.264      859.625
12/17/2014  20:01:00     -333.829       -6.294      -25.506       63.603       66.025       38.027     4045.288     4359.299     1446.082        6.099        0.493      333.888       32.000        0.009      335.524        6.212      859.623
12/17/2014  20:02:00     -220.611       30.072      -13.747       45.293       49.445       29.518     2051.454     2444.792      871.300        2.756        0.268      222.651       15.969        0.005      335.560        6.272      859.617
12/17/2014  20:03:00     -117.640      -81.549       -4.393       56.974       68.362       25.841     3246.056     4673.406      667.741        1.455        0.429      143.141       26.352        0.034      335.521        6.208      859.619
12/17/2014  20:04:00     -128.682     -112.820      -10.509       84.350       64.109       33.723     7114.874     4110.010     1137.212        2.088        0.618      171.136       38.265        0.050      335.519        6.205      859.611
12/17/2014  20:05:00     -167.108     -128.361        1.204       96.145       76.901       44.502     9243.772     5913.779     1980.412        3.077        0.857      210.717       51.048        0.059      335.492        6.160      859.603
12/17/2014  20:06:00     -132.145      -89.062       -5.356       56.928       46.967       37.178     3240.774     2205.898     1382.179        1.612        0.341      159.356       40.957        0.066      335.523        6.214      859.588
12/17/2014  20:07:00     -128.525      -69.405       -2.453       57.596       54.310       26.218     3317.266     2949.590      687.360        1.415        0.348      146.068       27.129        0.034      335.516        6.200      859.579
12/17/2014  20:08:00     -119.047     -101.782        7.132       80.778       59.184       45.499     6525.157     3502.787     2070.176        1.834        0.605      156.626       42.832        0.075      335.526        6.216      859.582
12/17/2014  20:09:00     -151.900      -74.417        1.742       78.939       52.158       35.457     6231.352     2720.492     1257.189        1.941        0.510      169.150       41.782        0.061      335.502        6.175      859.593
12/17/2014  20:10:00     -110.838      -69.494       -4.261       44.445       39.640       26.479     1975.316     1571.294      701.125        1.069        0.212      130.822       26.589        0.041      335.532        6.228      859.608
12/17/2014  20:11:00     -155.181      -90.607      -11.496       57.500       35.324       24.555     3306.279     1247.768      602.945        1.879        0.258      179.697       27.240        0.023      335.526        6.219      859.622
12/17/2014  20:12:00     -201.215      -72.740        0.661       68.812       63.185       36.778     4735.155     3992.304     1352.619        2.793        0.504      213.959       32.737        0.023      335.466        6.115      859.627
12/17/2014  20:13:00     -220.839      -14.152      -14.826       65.065       75.032       33.019     4233.427     5629.844     1090.245        3.007        0.548      221.292       25.934        0.014      335.600        6.338      859.626
12/17/2014  20:14:00     -124.281      -50.955        3.017       63.044       62.931       34.456     3974.500     3960.277     1187.186        1.358        0.456      134.321       29.433        0.048      335.472        6.127      859.626
12/17/2014  20:15:00      -79.547      -85.587        1.599       55.689       42.157       29.129     3101.265     1777.206      848.523        0.969        0.286      116.845       29.115        0.062      335.514        6.199      859.625
12/17/2014  20:16:00     -113.398      -84.004       -2.538       55.586       43.849       27.469     3089.817     1922.724      754.549        1.284        0.288      141.123       21.290        0.023      335.524        6.215      859.624
12/17/2014  20:17:00     -150.346      -85.189       -2.707       55.999       43.522       30.641     3135.939     1894.186      938.895        1.792        0.298      172.804       28.834        0.028      335.487        6.152      859.627
12/17/2014  20:18:00     -144.226     -107.712      -10.219       64.440       34.773       24.380     4152.480     1209.137      594.396        1.923        0.298      180.009       23.289        0.017      335.481        6.141      859.636
12/17/2014  20:19:00     -101.804      -69.071        6.736       59.589       58.971       24.580     3550.881     3477.541      604.180        1.140        0.382      123.024       22.223        0.033      335.455        6.100      859.637
12/17/2014  20:20:00     -150.167     -104.607       -4.518       56.272       60.030       35.781     3166.520     3603.585     1280.305        2.078        0.403      183.010       25.936        0.020      335.407        6.019      859.646
12/17/2014  20:21:00     -120.625      -90.657       -5.006       59.163       53.026       33.975     3500.292     2811.724     1154.306        1.513        0.373      150.894       31.985        0.045      335.410        6.024      859.653
12/17/2014  20:22:00      -71.127      -58.504        1.598       54.750       40.282       21.526     2997.544     1622.646      463.370        0.678        0.254       92.097       22.959        0.062      335.461        6.109      859.662
12/17/2014  20:23:00     -111.665     -107.603       -3.667       84.814       57.559       43.881     7193.420     3313.014     1925.545        1.824        0.622      155.072       51.417        0.110      335.460        6.107      859.660
12/17/2014  20:24:00     -138.708     -117.478       -8.399       71.056       60.057       34.030     5048.910     3606.802     1158.043        2.146        0.491      181.772       30.240        0.028      335.454        6.098      859.666
12/17/2014  20:25:00     -138.369      -68.320       -1.346       63.643       65.241       30.185     4050.391     4256.369      911.130        1.651        0.461      154.317       27.466        0.032      335.422        6.044      859.667
12/17/2014  20:26:00     -139.024      -73.980       -6.895       61.832       45.822       27.182     3823.206     2099.640      738.848        1.575        0.333      157.483       24.009        0.023      335.428        6.053      859.670
12/17/2014  20:27:00     -156.481     -126.207      -10.627       98.659       51.833       40.311     9733.633     2686.709     1625.014        2.728        0.702      201.033       52.768        0.069      335.442        6.077      859.671
12/17/2014  20:28:00     -199.100     -142.483       -6.618      104.345       65.034       47.581    10887.841     4229.361     2263.959        3.868        0.869      244.831       34.839        0.020      335.443        6.079      859.669
12/17/2014  20:29:00     -190.033     -149.514        4.938      110.033       91.390       54.335    12107.333     8352.200     2952.267        4.095        1.171      241.800       56.630        0.055      335.476        6.132      859.674
12/17/2014  20:30:00     -133.634     -149.763        5.791       91.423       74.127       49.120     8358.128     5494.819     2412.761        2.829        0.813      200.716       48.735        0.059      335.451        6.092      859.681
12/17/2014  20:31:00     -189.102     -149.096      -14.439       98.533       67.427       48.332     9708.731     4546.453     2336.016        3.739        0.830      240.810       49.652        0.043      335.459        6.102      859.701
12/17/2014  20:32:00     -169.135     -131.408        9.650      106.462       74.551       46.412    11334.183     5557.827     2154.082        3.250        0.952      214.183       49.195        0.053      335.419        6.038      859.717
12/17/2014  20:33:00     -176.562     -125.971      -13.997       66.713       61.121       41.286     4450.562     3735.827     1704.515        2.856        0.495      216.893       31.147        0.021      335.444        6.078      859.739
12/17/2014  20:34:00     -113.688      -62.121        6.557       80.148       56.329       43.009     6423.672     3172.985     1849.782        1.413        0.572      129.553       39.201        0.092      335.414        6.031      859.750
12/17/2014  20:35:00     -112.421      -94.160        1.493       51.151       38.192       27.684     2616.433     1458.594      766.392        1.317        0.242      146.644       27.211        0.034      335.415        6.032      859.760
12/17/2014  20:36:00      -42.192      -51.961        8.331       42.395       29.288       25.665     1797.321      857.771      658.676        0.393        0.166       66.934       22.194        0.110      335.430        6.059      859.769
12/17/2014  20:37:00     -102.042      -90.398       -7.171       57.416       32.958       21.856     3296.549     1086.236      477.700        1.175        0.243      136.324       17.207        0.016      335.364        5.948      859.774
12/17/2014  20:38:00      -67.008      -71.007      -13.504       43.824       38.077       22.046     1920.543     1449.865      486.012        0.678        0.193       97.633       16.932        0.030      335.356        5.934      859.779
12/17/2014  20:39:00      -21.961      -49.610        5.762       25.341       39.795       29.033      642.161     1583.676      842.900        0.302        0.153       54.253       30.062        0.307      335.431        6.061      859.783
12/17/2014  20:40:00       -8.809       -0.830       15.825       23.404       15.400       15.964      547.755      237.152      254.849        0.068        0.052        8.848       13.980        2.497      335.460        6.107      859.790
12/17/2014  20:41:00      -61.229      -60.539       -4.379       41.255       38.815       28.034     1701.977     1506.570      785.915        0.571        0.200       86.104       30.609        0.126      335.389        5.991      859.809
12/17/2014  20:42:00      -71.205      -77.529        1.210       51.229       38.834       27.212     2624.392     1508.099      740.511        0.798        0.244      105.266       34.281        0.106      335.363        5.947      859.823
12/17/2014  20:43:00      -42.923      -58.669        7.518       43.174       37.265       22.802     1863.992     1388.661      519.913        0.456        0.189       72.694       20.790        0.082      335.353        5.929      859.828
12/17/2014  20:44:00      -75.284     -152.440       -1.893       55.765       57.395       25.470     3109.778     3294.225      648.698        1.798        0.353      170.016       21.589        0.016      335.282        5.810      859.826
12/17/2014  20:45:00      -17.541      -54.629        5.962       39.107       51.296       23.011     1529.363     2631.235      529.495        0.401        0.235       57.376       22.124        0.149      335.299        5.839      859.810
12/17/2014  20:46:00      -84.550     -119.187      -17.135       56.166       50.141       27.986     3154.663     2514.102      783.202        1.405        0.323      146.131       17.275        0.014      335.270        5.791      859.810
12/17/2014  20:47:00      -96.364      -63.733        5.175       66.410       77.704       31.967     4410.304     6037.871     1021.907        1.242        0.574      115.533       43.977        0.145      335.276        5.798      859.791
12/17/2014  20:48:00     -122.567      -85.887       -1.037      114.203       66.779       47.343    13042.343     4459.435     2241.336        2.107        0.987      149.664       45.862        0.094      335.299        5.838      859.800
12/17/2014  20:49:00      -62.080      -61.593      -13.230       33.751       25.983       19.348     1139.147      675.129      374.354        0.501        0.109       87.451        4.370        0.002      335.384        5.982      859.798
12/17/2014  20:50:00      -62.626      -65.145        4.488       32.780       35.687       26.696     1074.537     1273.559      712.688        0.562        0.153       90.365       21.021        0.054      335.390        5.991      859.805
12/17/2014  20:51:00      -58.656      -46.983        1.630       44.788       31.917       23.744     2005.978     1018.726      563.754        0.462        0.179       75.153       16.316        0.047      335.350        5.923      859.814
12/17/2014  20:52:00      -32.958      -26.748        7.966       31.713       33.388       20.095     1005.715     1114.762      403.793        0.219        0.126       42.446       15.315        0.130      335.310        5.857      859.825
12/17/2014  20:53:00      -50.502      -76.070        8.217       51.127       37.799       29.262     2613.977     1428.747      856.291        0.665        0.245       91.308       23.125        0.064      335.264        5.781      859.829
12/17/2014  20:54:00      -62.826      -61.180       -7.412       34.289       29.472       21.403     1175.709      868.583      458.098        0.512        0.125       87.693       15.476        0.031      335.250        5.759      859.816
12/17/2014  20:55:00      -52.247      -79.837       -1.286       28.875       34.833       20.173      833.784     1213.345      406.963        0.578        0.123       95.413       15.233        0.025      335.303        5.846      859.813
12/17/2014  20:56:00      -69.034      -25.953        6.558       57.923       48.553       25.489     3355.050     2357.395      649.700        0.592        0.318       73.751       18.821        0.065      335.277        5.804      859.799
12/17/2014  20:57:00      -88.961     -150.344        2.402       48.977       50.039       32.267     2398.753     2503.947     1041.176        1.823        0.297      174.692       29.023        0.028      335.275        5.798      859.789
12/17/2014  20:58:00      -82.469     -106.456       -1.395       66.497       52.577       36.188     4421.913     2764.304     1309.579        1.331        0.425      134.663       25.162        0.035      335.279        5.806      859.769
12/17/2014  20:59:00     -144.542      -83.116      -23.832       69.754       70.802       27.912     4865.565     5012.934      779.094        1.951        0.533      166.735       27.607        0.027      335.269        5.788      859.769
12/17/2014  21:00:00     -130.516      -59.515       -1.169       57.348       48.366       28.391     3288.836     2339.259      806.039        1.350        0.322      143.445       23.846        0.028      335.211        5.692      859.782
12/17/2014  21:01:00      -72.541      -61.679        8.154       59.909       43.642       26.937     3589.059     1904.646      725.585        0.767        0.311       95.218       24.302        0.065      335.188        5.656      859.802
12/17/2014  21:02:00      -52.773      -83.214        2.843       53.842       47.162       26.835     2898.978     2224.232      720.138        0.778        0.292       98.537       23.562        0.057      335.241        5.742      859.792
12/17/2014  21:03:00     -110.798      -94.758       -2.281       52.164       43.788       29.746     2721.089     1917.425      884.851        1.339        0.276      145.792       27.484        0.036      335.205        5.682      859.798
12/17/2014  21:04:00      -93.786      -66.715        8.388       53.247       32.783       23.409     2835.232     1074.743      547.968        0.889        0.223      115.094       19.882        0.030      335.215        5.700      859.809
12/17/2014  21:05:00      -89.655      -25.318      -10.410       27.807       22.547       18.807      773.222      508.388      353.716        0.521        0.082       93.161        8.745        0.009      335.285        5.817      859.794
12/17/2014  21:06:00      -55.193      -95.725       -0.102       39.334       65.313       32.200     1547.177     4265.773     1036.833        0.953        0.342      110.497       16.078        0.021      335.279        5.805      859.803
12/17/2014  21:07:00     -103.407      -77.850       11.803       62.594       53.324       31.417     3918.034     2843.450      987.013        1.232        0.387      129.436       29.728        0.053      335.275        5.799      859.801
12/17/2014  21:08:00      -62.303      -65.723        0.085       41.757       29.017       24.970     1743.667      841.964      623.512        0.570        0.160       90.561       18.075        0.040      335.271        5.793      859.806
12/17/2014  21:09:00     -159.887     -126.515       -9.716       62.399       43.900       32.141     3893.585     1927.244     1033.054        2.426        0.343      203.887       26.193        0.017      335.228        5.719      859.809
12/17/2014  21:10:00      -62.048      -92.392        6.675       58.553       50.686       34.026     3428.399     2569.097     1157.798        0.979        0.358      111.293       33.140        0.089      335.255        5.765      859.810
12/17/2014  21:11:00      -71.482      -85.701        1.452       50.229       38.437       24.328     2522.947     1477.415      591.834        0.852        0.230      111.599       25.747        0.053      335.234        5.732      859.804
12/17/2014  21:12:00     -162.747     -115.978       -7.907       83.379       69.981       49.340     6952.042     4897.281     2434.412        2.714        0.714      199.844       46.751        0.055      335.225        5.713      859.811
12/17/2014  21:13:00     -210.695      -38.813       -5.904       77.592       59.675       43.302     6020.490     3561.123     1875.105        2.869        0.573      214.240       40.833        0.036      335.258        5.768      859.834
12/17/2014  21:14:00     -109.046      -32.630       -2.486       47.145       43.766       28.589     2222.630     1915.504      817.346        0.896        0.248      113.823       26.473        0.054      335.216        5.702      859.847
12/17/2014  21:15:00      -96.956      -63.608      -10.098       74.607       42.260       28.112     5566.166     1785.916      790.291        1.084        0.407      115.959       22.732        0.038      335.279        5.806      859.846
12/17/2014  21:16:00     -159.893      -62.492       -8.645       48.078       34.648       27.247     2311.466     1200.467      742.391        1.690        0.213      171.671       25.777        0.023      335.292        5.826      859.838
12/17/2014  21:17:00      -78.441      -28.256        2.531       30.055       29.006       21.389      903.310      841.364      457.469        0.458        0.110       83.375        8.073        0.009      335.306        5.851      859.827
12/17/2014  21:18:00      -80.419      -42.085        0.906       73.599       33.808       22.181     5416.791     1142.967      491.988        0.764        0.353       90.765       21.049        0.054      335.301        5.843      859.816
12/17/2014  21:19:00     -205.697      -98.741       -3.725       92.188       68.044       40.162     8498.603     4629.943     1612.980        3.341        0.737      228.169       41.816        0.034      335.302        5.842      859.807
12/17/2014  21:20:00     -200.015     -126.822      -25.164       85.052       82.174       41.639     7233.781     6752.633     1733.775        3.622        0.786      236.833       43.126        0.033      335.324        5.878      859.815
12/17/2014  21:21:00      -70.881      -87.785       11.363       70.404       62.256       37.004     4956.790     3875.799     1369.259        1.153        0.510      112.829       32.568        0.083      335.326        5.885      859.815
12/17/2014  21:22:00     -142.409     -108.298       -8.490       74.492       54.807       38.626     5549.060     3003.809     1491.963        2.106        0.502      178.911       43.480        0.059      335.307        5.851      859.814
12/17/2014  21:23:00      -79.056      -68.492       -3.814       50.780       59.410       21.196     2578.615     3529.504      449.251        0.876        0.328      104.599       23.096        0.049      335.285        5.814      859.818
12/17/2014  21:24:00      -68.198      -38.706        4.801       41.889       45.921       26.921     1754.695     2108.694      724.751        0.538        0.229       78.416       24.090        0.094      335.316        5.867      859.823
12/17/2014  21:25:00     -110.013     -103.035        2.868       54.230       43.983       28.370     2940.905     1934.474      804.829        1.420        0.284      150.729       24.631        0.027      335.363        5.946      859.829
12/17/2014  21:26:00     -149.962      -85.197      -13.148       71.495       66.341       38.006     5111.471     4401.145     1444.468        2.044        0.548      172.473       38.429        0.050      335.368        5.953      859.835
12/17/2014  21:27:00     -178.656      -72.699      -22.432       48.962       29.533       29.382     2397.322      872.226      863.273        2.092        0.207      192.881       19.905        0.011      335.364        5.948      859.844
12/17/2014  21:28:00     -212.348      -35.637      -13.374       43.904       50.030       29.052     1927.535     2503.003      844.035        2.591        0.264      215.318       13.371        0.004      335.337        5.900      859.859
12/17/2014  21:29:00     -132.662      -73.846       -6.323       49.565       36.939       26.992     2456.645     1364.459      728.548        1.382        0.227      151.831       15.589        0.011      335.347        5.920      859.870
12/17/2014  21:30:00      -59.792      -89.529       -3.416       33.042       40.114       22.361     1091.749     1609.127      500.035        0.740        0.160      107.659       17.714        0.027      335.350        5.926      859.876
12/17/2014  21:31:00      -72.888      -69.889        0.695       34.783       37.357       24.428     1209.866     1395.544      596.744        0.670        0.160      100.981       21.705        0.046      335.347        5.919      859.867
12/17/2014  21:32:00      -56.487      -58.235       -2.106       28.210       27.886       19.040      795.777      777.605      362.521        0.426        0.097       81.130       18.311        0.051      335.309        5.855      859.868
12/17/2014  21:33:00      -27.991      -89.406        5.031       23.716       34.858       22.275      562.449     1215.101      496.191        0.554        0.114       93.686        7.433        0.006      335.330        5.893      859.877
12/17/2014  21:34:00      -55.609      -39.910        4.028       29.066       32.787       19.002      844.821     1074.959      361.065        0.349        0.114       68.448       16.782        0.060      335.296        5.834      859.895
12/17/2014  21:35:00      -67.468      -67.409       -2.468       38.062       38.017       28.696     1448.683     1445.276      823.442        0.641        0.186       95.373       24.877        0.068      335.319        5.873      859.920
12/17/2014  21:36:00      -90.582      -80.331       -5.941       53.307       51.862       23.645     2841.585     2689.658      559.071        1.039        0.305      121.071       21.612        0.032      335.267        5.788      859.934
12/17/2014  21:37:00      -64.729      -97.872        5.996       57.267       44.006       30.022     3279.558     1936.515      901.331        0.996        0.306      117.340       34.338        0.086      335.286        5.818      859.943
12/17/2014  21:38:00      -51.536      -92.855       -0.100       49.005       73.415       33.024     2401.538     5389.734     1090.565        1.008        0.444      106.199       31.458        0.088      335.297        5.837      859.953
12/17/2014  21:39:00      -17.147      -28.223       18.699       22.678       48.571       24.637      514.270     2359.096      606.975        0.246        0.174       33.023       27.584        0.698      335.360        5.940      859.947
12/17/2014  21:40:00      -29.448      -15.772        8.003       21.023       23.568       14.161      441.963      555.450      200.547        0.119        0.060       33.406        7.299        0.048      335.346        5.916      859.939
12/17/2014  21:41:00      -28.396      -20.730       -3.350       31.980       53.355       29.112     1022.690     2846.808      847.536        0.298        0.236       35.158       18.153        0.267      335.345        5.916      859.934
12/17/2014  21:42:00      -37.120       26.269       35.854       26.550       21.826       34.347      704.919      476.387     1179.712        0.286        0.118       45.475       22.848        0.252      335.216        5.700      859.941
12/17/2014  21:43:00      -16.945      -43.445        9.014       32.256       51.620       32.032     1040.435     2664.616     1026.057        0.349        0.237       46.632       34.224        0.539      335.253        5.762      859.956
12/17/2014  21:44:00       37.789       28.185       56.679       54.435       73.382       46.118     2963.203     5384.901     2126.863        0.795        0.524       47.142       52.945        1.261      335.166        5.619      859.967
12/17/2014  21:45:00       -6.649       48.441       78.986       24.495       39.527       27.496      599.999     1562.402      756.020        0.577        0.146       48.895       26.423        0.292      335.146        5.586      859.984
12/17/2014  21:46:00       20.938       30.284       63.344       38.476       45.333       30.314     1480.413     2055.097      918.962        0.491        0.223       36.818       27.479        0.557      335.169        5.625      860.003
12/17/2014  21:47:00       30.257       20.648       49.694       41.227       37.926       31.090     1699.651     1438.382      966.605        0.396        0.205       36.631       27.452        0.562      335.137        5.571      860.016
12/17/2014  21:48:00       35.303      -12.784       22.079       38.408       49.617       40.650     1475.209     2461.848     1652.436        0.374        0.279       37.547       38.448        1.049      335.122        5.547      860.026
12/17/2014  21:49:00       -1.437       57.485       74.832       17.531       30.770       17.467      307.338      946.774      305.107        0.523        0.078       57.503       16.341        0.081      335.051        5.429      860.033
12/17/2014  21:50:00       56.962       73.371       76.432       40.028       34.957       23.590     1602.263     1221.985      556.509        0.892        0.169       92.887       11.048        0.014      334.935        5.237      860.044
12/17/2014  21:51:00       79.174       64.318       58.645       48.162       44.479       35.904     2319.595     1978.400     1289.130        0.971        0.279      102.006       26.127        0.066      334.859        5.110      860.052
12/17/2014  21:52:00       77.488       60.870       56.955       47.376       41.501       35.093     2244.449     1722.305     1231.536        0.907        0.260       98.537       25.946        0.069      334.808        5.025      860.057
12/17/2014  21:53:00       59.404       59.780       51.893       56.782       56.997       41.291     3224.154     3248.680     1704.938        0.898        0.409       84.276       35.190        0.174      334.781        4.980      860.063
12/17/2014  21:54:00       49.620       28.358       50.448       55.163       47.106       41.897     3042.995     2219.014     1755.331        0.641        0.351       57.152       45.275        0.628      334.770        4.962      860.066
12/17/2014  21:55:00       -2.915       23.947       65.329       32.240       53.956       28.673     1039.415     2911.256      822.113        0.481        0.239       24.123       32.582        1.824      334.842        5.080      860.074
12/17/2014  21:56:00        5.547       48.114       83.495       23.105       36.678       23.383      533.828     1345.285      546.765        0.587        0.121       48.433       23.668        0.239      334.776        4.971      860.076
12/17/2014  21:57:00       30.568       40.166       65.017       38.246       41.426       31.235     1462.757     1716.083      975.610        0.546        0.208       50.475       27.602        0.299      334.783        4.983      860.080
12/17/2014  21:58:00       41.272       47.189       55.089       41.987       31.876       30.865     1762.927     1016.048      952.658        0.535        0.187       62.691       27.277        0.189      334.750        4.929      860.084
12/17/2014  21:59:00       18.228       39.074       49.846       30.850       37.414       22.958      951.718     1399.793      527.067        0.361        0.144       43.116       21.245        0.243      334.685        4.821      860.089
12/17/2014  22:00:00       40.139       66.125       55.213       36.796       35.671       28.551     1353.933     1272.451      815.157        0.624        0.172       77.354       19.802        0.066      334.679        4.810      860.096
12/17/2014  22:01:00       82.774       47.592       40.426       43.679       27.142       29.310     1907.846      736.665      859.104        0.713        0.175       95.480       23.955        0.063      334.682        4.814      860.104
12/17/2014  22:02:00       86.710       42.305       32.178       36.671       32.966       27.677     1344.769     1086.733      766.010        0.677        0.160       96.480       19.766        0.042      334.645        4.755      860.109
12/17/2014  22:03:00       84.585       48.316       21.258       41.508       36.670       31.968     1722.892     1344.659     1021.935        0.701        0.204       97.412       26.268        0.073      334.541        4.581      860.111
12/17/2014  22:04:00      110.638       70.941       28.960       29.191       25.666       27.177      852.138      658.731      738.601        1.018        0.112      131.428       15.883        0.015      334.525        4.556      860.122
12/17/2014  22:05:00      118.542       62.183       21.433       39.316       32.277       27.232     1545.724     1041.802      741.597        1.085        0.166      133.861       22.504        0.028      334.550        4.595      860.129
12/17/2014  22:06:00      121.069       64.669        2.436       46.727       28.389       27.006     2183.426      805.940      729.347        1.128        0.186      137.258       12.408        0.008      334.520        4.547      860.135
12/17/2014  22:07:00       96.413       46.745        7.665       47.091       30.547       21.437     2217.602      933.089      459.524        0.757        0.181      107.147       14.771        0.019      334.420        4.381      860.149
12/17/2014  22:08:00      119.271       71.490        6.794       52.243       31.674       28.239     2729.291     1003.219      797.451        1.196        0.226      139.056       22.254        0.026      334.388        4.329      860.150
12/17/2014  22:09:00      132.751       82.004       17.636       42.748       31.592       29.178     1827.433      998.024      851.364        1.417        0.184      156.037       16.893        0.012      334.407        4.361      860.146
12/17/2014  22:10:00       56.753       41.403       29.110       32.643       29.068       29.022     1065.541      844.963      842.294        0.427        0.138       70.251       20.850        0.088      334.382        4.318      860.159
12/17/2014  22:11:00       77.136       46.001       28.647       43.536       34.431       29.224     1895.388     1185.464      854.065        0.641        0.197       89.811       21.662        0.058      334.330        4.232      860.186
12/17/2014  22:12:00       56.327       25.712       22.576       27.615       26.433       26.246      762.614      698.726      688.857        0.325        0.108       61.918       12.938        0.044      334.293        4.172      860.213
12/17/2014  22:13:00       38.503       42.351        6.192       29.235       17.898       19.131      854.701      320.322      365.982        0.243        0.077       57.237       10.962        0.037      334.238        4.079      860.231
12/17/2014  22:14:00       10.141       61.264      -10.500       17.315       19.943        9.844      299.822      397.725       96.909        0.238        0.040       62.098        9.329        0.023      334.207        4.026      860.253
12/17/2014  22:15:00       22.181       88.839      -10.382       10.291       14.054       14.054      105.914      197.501      197.522        0.450        0.025       91.566        4.728        0.003      334.237        4.077      860.269
12/17/2014  22:16:00       31.219       77.254        4.015       23.704       37.212       24.701      561.873     1384.762      610.144        0.476        0.128       83.323       23.131        0.077      334.238        4.079      860.269
12/17/2014  22:17:00       39.206       99.667      -13.767       26.351       24.812       17.461      694.357      615.645      304.873        0.664        0.081      107.102       15.449        0.021      334.252        4.103      860.269
12/17/2014  22:18:00       34.314       76.757       -5.816       36.651       43.566       29.869     1343.299     1897.972      892.135        0.562        0.207       84.078       25.927        0.095      334.320        4.215      860.267
12/17/2014  22:19:00       58.316       74.673        0.432       40.298       46.900       28.405     1623.946     2199.628      806.829        0.680        0.232       94.746       25.875        0.075      334.412        4.369      860.269
12/17/2014  22:20:00       47.994       49.268        5.894       33.956       35.315       28.396     1153.035     1247.127      806.319        0.399        0.160       68.781       27.975        0.165      334.403        4.353      860.272
12/17/2014  22:21:00       42.011       42.662        1.775       26.767       29.122       26.792      716.488      848.080      717.808        0.293        0.114       59.874       21.732        0.132      334.349        4.263      860.285
12/17/2014  22:22:00       24.279       93.517      -16.282       18.045       38.321       18.215      325.629     1468.501      331.781        0.586        0.106       96.617       22.149        0.053      334.363        4.286      860.298
12/17/2014  22:23:00       -3.781      114.091      -22.567       18.583       21.915       10.184      345.310      480.252      103.723        0.723        0.046      114.154        7.515        0.004      334.469        4.463      860.309
12/17/2014  22:24:00        7.909      116.757      -21.715       14.654       23.599       10.717      214.739      556.920      114.850        0.753        0.044      117.025        6.995        0.004      334.533        4.568      860.330
12/17/2014  22:25:00       35.876      109.358       -7.491       35.718       34.213       18.296     1275.782     1170.508      334.729        0.804        0.139      115.092       15.771        0.019      334.487        4.493      860.345
12/17/2014  22:26:00       77.908       58.660        6.307       37.129       38.594       28.627     1378.552     1489.516      819.503        0.662        0.184       97.522       27.382        0.079      334.533        4.570      860.356
12/17/2014  22:27:00       85.593       54.537       22.970       37.026       37.507       31.011     1370.939     1406.795      961.713        0.728        0.187      101.491       26.977        0.071      334.435        4.407      860.355
12/17/2014  22:28:00      109.250       68.292       13.131       39.836       27.765       26.357     1586.909      770.871      694.691        0.991        0.153      128.838       19.205        0.022      334.444        4.420      860.359
12/17/2014  22:29:00       89.047       44.732        3.225       20.587       17.430       18.853      423.804      303.791      355.425        0.551        0.054       99.651        7.434        0.006      334.442        4.418      860.366
12/17/2014  22:30:00       87.054       53.052       14.074       20.331       23.071       15.442      413.366      532.254      238.453        0.589        0.059      101.945       13.370        0.017      334.560        4.614      860.375
12/17/2014  22:31:00       35.438       32.570        6.499       17.836       16.613       12.669      318.132      275.999      160.512        0.156        0.038       48.131       10.269        0.046      334.466        4.458      860.390
12/17/2014  22:32:00        8.642       86.410      -13.024       12.084       20.361        8.505      146.012      414.590       72.335        0.417        0.032       86.841        5.935        0.005      334.428        4.395      860.410
12/17/2014  22:33:00        4.224      143.084      -23.564       17.318       22.505       10.126      299.921      506.464      102.535        1.098        0.045      143.146        5.900        0.002      334.572        4.632      860.397
12/17/2014  22:34:00       38.144       94.799      -17.282       17.961       24.712        8.911      322.601      610.673       79.407        0.588        0.051      102.185        9.809        0.009      334.666        4.788      860.399
12/17/2014  22:35:00       48.270       53.322       -0.897       22.020       22.898       19.052      484.888      524.327      362.976        0.327        0.069       71.925       15.304        0.045      334.529        4.560      860.365
12/17/2014  22:36:00       35.395       75.579       -7.863       18.495       25.305       14.074      342.081      640.355      198.074        0.410        0.059       83.456       12.865        0.024      334.516        4.541      860.339
12/17/2014  22:37:00       96.635       47.581        0.621       26.438       22.457       15.037      698.948      504.330      226.101        0.652        0.071      107.714       13.058        0.015      334.493        4.501      860.329
12/17/2014  22:38:00       43.429       57.313       58.799       41.029       29.522       28.720     1683.360      871.569      824.825        0.600        0.169       71.909       26.028        0.131      334.383        4.319      860.322
12/17/2014  22:39:00        6.508       30.531       47.537       30.486       27.666       25.174      929.380      765.431      633.751        0.278        0.116       31.217       23.760        0.579      334.486        4.490      860.315
12/17/2014  22:40:00       37.572       29.486       11.053       26.279       21.464       19.899      690.578      460.712      395.974        0.197        0.077       47.761       14.515        0.092      334.538        4.576      860.306
12/17/2014  22:41:00       19.084       30.248        2.991       24.239       38.894       16.493      587.534     1512.759      272.028        0.183        0.119       35.765       19.240        0.289      334.508        4.526      860.302
12/17/2014  22:42:00       58.056       36.096        9.783       35.874       19.403       18.070     1286.909      376.476      326.516        0.338        0.099       68.363       14.874        0.047      334.598        4.676      860.288
12/17/2014  22:43:00      102.014       50.522        5.306       32.886       31.023       25.471     1081.492      962.405      648.793        0.784        0.135      113.839       12.870        0.013      334.637        4.740      860.279
12/17/2014  22:44:00      130.203       63.605       37.941       48.040       31.329       44.155     2307.820      981.533     1949.685        1.384        0.262      144.908       35.541        0.060      334.681        4.813      860.275
12/17/2014  22:45:00      183.226       81.296       35.818       38.165       25.464       31.329     1456.534      648.395      981.536        2.227        0.154      200.452       14.193        0.005      334.709        4.857      860.266
12/17/2014  22:46:00      124.742       44.242       26.790       52.328       45.621       32.895     2738.198     2081.248     1082.106        1.207        0.295      132.355       22.683        0.029      334.687        4.824      860.258
12/17/2014  22:47:00       91.738       36.779       22.235       42.803       31.515       34.415     1832.066      993.196     1184.407        0.714        0.200       98.836       24.834        0.063      334.534        4.568      860.264
12/17/2014  22:48:00      145.607       81.303        4.445       49.043       48.037       29.220     2405.262     2307.556      853.829        1.670        0.278      166.768       24.638        0.022      334.571        4.630      860.263
12/17/2014  22:49:00      171.945       77.684       15.174       44.406       37.186       36.059     1971.878     1382.761     1300.265        2.024        0.233      188.679       19.738        0.011      334.593        4.665      860.248
12/17/2014  22:50:00       91.602       66.562       58.643       57.443       42.579       37.198     3299.675     1813.001     1383.713        1.138        0.325      113.232       34.605        0.093      334.583        4.650      860.230
12/17/2014  22:51:00       94.549       88.145       71.447       57.549       37.180       39.747     3311.905     1382.381     1579.811        1.404        0.314      129.263       31.796        0.061      334.472        4.466      860.234
12/17/2014  22:52:00       73.793       74.970       82.317       50.754       45.974       31.559     2575.948     2113.602      995.968        1.176        0.284      105.195       26.303        0.063      334.474        4.470      860.236
12/17/2014  22:53:00       65.746       91.810       74.363       44.868       44.289       33.542     2013.170     1961.506     1125.038        1.169        0.255      112.923       22.446        0.040      334.420        4.381      860.241
12/17/2014  22:54:00       19.377       46.835       53.341       35.459       26.687       19.049     1257.363      712.178      362.865        0.387        0.117       50.685       12.064        0.057      334.399        4.346      860.249
12/17/2014  22:55:00       -3.006      -62.519        4.225       25.741       49.312       27.083      662.591     2431.635      733.474        0.388        0.191       62.591       32.052        0.262      334.497        4.509      860.262
12/17/2014  22:56:00       -7.216      -50.957        7.279       25.133       23.623       18.784      631.667      558.037      352.822        0.212        0.077       51.465       12.202        0.056      334.521        4.548      860.282
12/17/2014  22:57:00        9.133       33.092       48.482       24.952       24.347       20.305      622.603      592.755      412.280        0.258        0.081       34.330       20.508        0.357      334.342        4.252      860.294
12/17/2014  22:58:00       46.369       59.210       55.091       45.598       29.320       24.840     2079.172      859.641      617.033        0.612        0.178       75.206       17.408        0.054      334.358        4.280      860.298
12/17/2014  22:59:00      181.985       85.387       18.875       45.695       40.053       35.076     2088.070     1604.217     1230.298        2.284        0.246      201.021       19.499        0.009      334.365        4.287      860.284
12/17/2014  23:00:00      116.654       67.585       17.159       60.749       48.541       31.872     3690.435     2356.237     1015.809        1.276        0.353      134.818       16.931        0.016      334.320        4.216      860.278
12/17/2014  23:01:00       89.396       38.135       10.656       38.817       36.370       30.986     1506.782     1322.745      960.118        0.667        0.189       97.190       19.170        0.039      334.337        4.244      860.288
12/17/2014  23:02:00       27.603       -4.455        1.577       44.745       30.456       16.382     2002.109      927.560      268.377        0.199        0.160       27.960        5.817        0.043      334.340        4.250      860.316
12/17/2014  23:03:00        9.394      -25.961       -7.095        9.137        9.945       13.491       83.477       98.901      182.019        0.059        0.018       27.609        5.195        0.035      334.319        4.214      860.329
12/17/2014  23:04:00      -36.148       -7.346       -9.064       29.858       15.767       10.587      891.480      248.606      112.083        0.135        0.063       36.887       12.011        0.106      334.304        4.190      860.342
12/17/2014  23:05:00        7.058      -40.135       -6.098       19.777       14.611        9.602      391.129      213.480       92.201        0.120        0.035       40.751        5.912        0.021      334.353        4.271      860.346
12/17/2014  23:06:00      -17.935        5.900       11.326        8.326        8.699        7.824       69.330       75.672       61.207        0.035        0.010       18.880        5.511        0.085      334.273        4.136      860.346
12/17/2014  23:07:00      -15.105       -2.338        8.899        7.590        7.474        5.107       57.613       55.859       26.080        0.023        0.007       15.285        1.998        0.017      334.237        4.078      860.354
12/17/2014  23:08:00       -2.618       -4.220        6.664        9.441        9.497        8.452       89.137       90.184       71.434        0.016        0.013        4.966        5.913        1.418      334.152        3.937      860.367
12/17/2014  23:09:00        4.412      -25.229       -8.105       15.315       14.135        9.495      234.555      199.794       90.154        0.062        0.026       25.612        7.176        0.078      334.223        4.055      860.391
12/17/2014  23:10:00      -41.141      -19.534        1.853       11.482       12.877        9.491      131.836      165.816       90.089        0.123        0.019       45.543        4.893        0.012      334.218        4.045      860.399
12/17/2014  23:11:00      -15.546      -22.249        0.328       14.580        7.630        4.260      212.583       58.209       18.147        0.051        0.014       27.142        3.448        0.016      334.220        4.050      860.399
12/17/2014  23:12:00       30.178        9.060        0.603       13.540       17.426       15.302      183.337      303.674      234.137        0.086        0.036       31.508       10.607        0.113      334.260        4.116      860.395
12/17/2014  23:13:00       21.882       20.622       25.373       15.132       14.765       15.005      228.982      218.011      225.136        0.111        0.034       30.068       11.950        0.158      334.177        3.977      860.382
12/17/2014  23:14:00       54.187       23.508       23.588       37.082       14.159       18.130     1375.108      200.485      328.713        0.297        0.095       59.067       15.181        0.066      334.274        4.140      860.380
12/17/2014  23:15:00       57.695       47.340       12.614       39.090       31.110       25.333     1528.047      967.814      641.755        0.443        0.157       74.631       31.053        0.173      334.506        4.522      860.380
12/17/2014  23:16:00     -129.488      -45.323      -10.705       76.759       39.754       18.022     5891.952     1580.405      324.808        1.336        0.390      137.191       11.102        0.007      334.283        4.153      860.392
12/17/2014  23:17:00      -97.552      -53.821        6.365       77.717       52.527       30.807     6039.912     2759.066      949.062        1.110        0.487      111.414       36.861        0.109      334.062        3.786      860.414
12/17/2014  23:18:00      -83.816      -21.223       -5.276       39.804       28.263       25.118     1584.343      798.783      630.898        0.526        0.151       86.461       23.951        0.077      334.145        3.924      860.424
12/17/2014  23:19:00      -24.374      -14.874        1.858       13.032       12.861        9.446      169.822      165.403       89.234        0.062        0.021       28.554        3.257        0.013      334.194        4.005      860.434
12/17/2014  23:20:00      -57.943      -29.744       -4.216       15.769       16.176        7.062      248.650      261.666       49.876        0.241        0.028       65.131        4.351        0.004      334.373        4.304      860.448
12/17/2014  23:21:00      -53.047      -27.640       -4.881       11.251       11.877        7.453      126.588      141.057       55.551        0.196        0.016       59.816        2.729        0.002      334.232        4.068      860.454
12/17/2014  23:22:00      -52.751      -15.907       -7.585       15.188       14.102        6.419      230.669      198.869       41.208        0.178        0.024       55.097        5.685        0.011      334.152        3.935      860.457
12/17/2014  23:23:00      -26.246      -15.013       -1.680       21.416       16.454        7.931      458.653      270.726       62.904        0.085        0.040       30.237       10.752        0.126      334.173        3.972      860.456
12/17/2014  23:24:00      -77.626      -16.352       -5.648       17.202       16.654        8.359      295.916      277.349       69.877        0.348        0.032       79.329        8.878        0.013      334.157        3.943      860.459
12/17/2014  23:25:00      -69.269      -10.379      -13.792       19.193       18.170        8.514      368.374      330.150       72.494        0.293        0.039       70.042        8.995        0.016      334.402        4.351      860.464
12/17/2014  23:26:00      -37.912      -47.477       -2.224       19.491       21.328       17.249      379.885      454.892      297.513        0.241        0.057       60.756       16.222        0.071      334.470        4.464      860.467
12/17/2014  23:27:00      -24.911      -30.492        6.875       29.844       18.275       16.732      890.665      333.992      279.957        0.155        0.075       39.374       13.600        0.119      334.494        4.505      860.467
12/17/2014  23:28:00        7.648      -22.290       -1.927       19.028       17.606       17.949      362.080      309.988      322.175        0.078        0.050       23.566       14.217        0.364      334.452        4.433      860.471
12/17/2014  23:29:00       14.588       14.753        1.442        9.228       13.582        9.714       85.164      184.481       94.361        0.040        0.018       20.747        9.670        0.217      334.268        4.131      860.475
12/17/2014  23:30:00        7.426      -34.812       -9.488        9.734       21.762       10.610       94.750      473.583      112.568        0.102        0.034       35.595        7.611        0.046      334.344        4.255      860.479
12/17/2014  23:31:00       -8.052      -50.613        2.335       12.667       24.908       15.044      160.457      620.398      226.324        0.182        0.050       51.250       10.566        0.043      334.524        4.553      860.469
12/17/2014  23:32:00       10.833       -8.291        1.790       23.155       12.002       12.753      536.137      144.037      162.639        0.052        0.042       13.642       11.519        0.713      334.449        4.430      860.471
12/17/2014  23:33:00       16.507        7.272       -6.366       12.275        9.840        8.378      150.681       96.817       70.188        0.034        0.016       18.038        6.481        0.129      334.364        4.289      860.476
12/17/2014  23:34:00        7.175        9.175       -8.858        9.171       12.811        9.071       84.103      164.116       82.279        0.027        0.017       11.648        9.738        0.699      334.325        4.222      860.470
12/17/2014  23:35:00        2.395        2.856       -4.412        5.146        6.944        3.636       26.477       48.222       13.220        0.006        0.004        3.727        1.757        0.222      334.254        4.107      860.457
12/17/2014  23:36:00       -5.741       -9.903        1.002       13.746       14.441        7.111      188.959      208.551       50.569        0.029        0.022       11.447        7.668        0.449      334.489        4.497      860.452
12/17/2014  23:37:00       19.564       22.774       10.274       22.359       11.995       15.908      499.945      143.877      253.062        0.095        0.045       30.024       14.099        0.221      334.382        4.318      860.456
12/17/2014  23:38:00       -7.571        2.960       -0.597        9.087       13.694        8.686       82.572      187.521       75.446        0.021        0.017        8.129        8.342        1.053      334.400        4.349      860.463
12/17/2014  23:39:00        1.541       12.406        5.746       10.248       17.245        5.825      105.020      297.401       33.929        0.031        0.022       12.501        5.202        0.173      334.370        4.300      860.478
12/17/2014  23:40:00       -0.830       22.918       -0.056       19.038       23.669       20.689      362.437      560.230      428.027        0.094        0.068       22.933       11.540        0.253      334.466        4.457      860.475
12/17/2014  23:41:00      -23.140       -8.001        6.834       33.927       15.055       15.058     1151.062      226.659      226.745        0.113        0.080       24.484       19.910        0.661      334.232        4.070      860.481
12/17/2014  23:42:00      -24.879        4.788       12.603       46.435       13.879       18.232     2156.234      192.619      332.397        0.174        0.134       25.336       27.554        1.183      334.526        4.559      860.487
12/17/2014  23:43:00       28.401       13.421        3.949       21.845       21.248       15.309      477.218      451.466      234.363        0.108        0.058       31.413       10.703        0.116      334.199        4.016      860.481
12/17/2014  23:44:00       61.310       33.427        9.768       21.963       18.435       15.731      482.384      339.857      247.469        0.302        0.053       69.831        9.858        0.020      334.075        3.809      860.479
12/17/2014  23:45:00       56.316       49.510       15.213       20.972       19.509       19.784      439.806      380.620      391.411        0.353        0.061       74.985       10.975        0.021      333.923        3.557      860.485
12/17/2014  23:46:00       88.375       45.412        9.240       11.079       10.834        8.791      122.738      117.386       77.284        0.514        0.016       99.360        4.497        0.002      333.960        3.619      860.489
12/17/2014  23:47:00       60.600       42.299       10.091       19.418       17.681       14.357      377.056      312.629      206.124        0.323        0.045       73.902        7.617        0.011      333.873        3.475      860.489
12/17/2014  23:48:00       25.274      -43.883       -2.373       45.096       36.328       18.482     2033.646     1319.724      341.586        0.313        0.185       50.641       14.198        0.079      333.879        3.484      860.484
12/17/2014  23:49:00        7.765      -30.034      -21.856       12.585       16.115       10.523      158.370      259.683      110.736        0.098        0.026       31.022        6.725        0.047      333.848        3.432      860.493
12/17/2014  23:50:00       23.140       23.067        5.566       19.335       26.199       13.224      373.860      686.380      174.883        0.117        0.062       32.673       16.516        0.256      333.763        3.289      860.495
12/17/2014  23:51:00       60.100       59.526        5.877       17.925       20.268       17.621      321.316      410.783      310.508        0.412        0.052       84.590       13.743        0.026      333.695        3.178      860.495
12/17/2014  23:52:00       23.124       51.506       -6.775       26.541       26.732       14.991      704.425      714.603      224.739        0.244        0.082       56.459       15.621        0.077      333.682        3.157      860.479
12/17/2014  23:53:00       20.942       23.343       -0.257       13.039       20.937       11.007      170.026      438.361      121.153        0.086        0.036       31.360        9.392        0.090      333.667        3.133      860.489
12/17/2014  23:54:00       15.251       24.043       -1.748       13.958       17.392        7.961      194.819      302.470       63.377        0.069        0.028       28.471        8.047        0.080      333.653        3.109      860.497
12/17/2014  23:55:00       28.888       54.069       -4.664       14.134       16.620       12.165      199.777      276.231      147.979        0.220        0.031       61.303        9.104        0.022      333.658        3.117      860.500
12/17/2014  23:56:00       35.586       60.286       -0.756       13.099       17.127       12.013      171.583      293.347      144.311        0.276        0.030       70.006        9.583        0.019      333.679        3.152      860.497
12/17/2014  23:57:00       73.230       44.242       12.905       22.826       15.347       16.254      521.019      235.531      264.193        0.425        0.051       85.557        8.691        0.010      333.678        3.152      860.488
12/17/2014  23:58:00       67.994       45.982       11.910       30.052       20.938       14.407      903.126      438.380      207.562        0.421        0.077       82.083       11.202        0.019      333.686        3.165      860.474
12/17/2014  23:59:00        0.099        2.053       19.595       10.685       13.621        8.519      114.175      185.535       72.571        0.038        0.019        2.055        6.016        8.567      333.585        2.997      860.464
